<?xml version="1.0" encoding="UTF-8" standalone="no" ?>
<gpx xmlns="http://www.topografix.com/GPX/1/1" xmlns:xsi="http://www.w3.org/2001/XMLSchema-instance" xsi:schemaLocation="http://www.topografix.com/GPX/1/1 http://www.topografix.com/GPX/1/1/gpx.xsd" version="1.1" creator="VisuGPX - https://www.visugpx.com">
  <metadata>
    <name>De Montfroc à Lardiers par le Col de la Roche</name>
    <desc><![CDATA[De Montfroc à Lardiers par le Col de la Roche. Tracé de Lise]]></desc>
  </metadata>
  <trk>
    <name><![CDATA[De Montfroc à Lardiers par le Col de la Roche]]></name>
    <trkseg>
      <trkpt lat="44.1809" lon="5.63489">
        <ele>828.7</ele>
        <time>2019-11-10T08:24:17Z</time>
      </trkpt>
      <trkpt lat="44.1809" lon="5.63489">
        <ele>828.6</ele>
        <time>2019-11-10T08:24:18Z</time>
      </trkpt>
      <trkpt lat="44.18092" lon="5.63476">
        <ele>828</ele>
        <time>2019-11-10T08:25:06Z</time>
      </trkpt>
      <trkpt lat="44.181" lon="5.63467">
        <ele>830</ele>
        <time>2019-11-10T08:40:40Z</time>
      </trkpt>
      <trkpt lat="44.18107" lon="5.63458">
        <ele>829.6</ele>
        <time>2019-11-10T08:40:48Z</time>
      </trkpt>
      <trkpt lat="44.18115" lon="5.63449">
        <ele>828.6</ele>
        <time>2019-11-10T08:41:05Z</time>
      </trkpt>
      <trkpt lat="44.1811" lon="5.63439">
        <ele>826.9</ele>
        <time>2019-11-10T08:41:16Z</time>
      </trkpt>
      <trkpt lat="44.18103" lon="5.63429">
        <ele>824.9</ele>
        <time>2019-11-10T08:41:26Z</time>
      </trkpt>
      <trkpt lat="44.18098" lon="5.63418">
        <ele>823.8</ele>
        <time>2019-11-10T08:41:35Z</time>
      </trkpt>
      <trkpt lat="44.18092" lon="5.63409">
        <ele>822.6</ele>
        <time>2019-11-10T08:41:44Z</time>
      </trkpt>
      <trkpt lat="44.18082" lon="5.63407">
        <ele>821</ele>
        <time>2019-11-10T08:41:53Z</time>
      </trkpt>
      <trkpt lat="44.18073" lon="5.63405">
        <ele>818.7</ele>
        <time>2019-11-10T08:42:02Z</time>
      </trkpt>
      <trkpt lat="44.18064" lon="5.63402">
        <ele>817.8</ele>
        <time>2019-11-10T08:42:09Z</time>
      </trkpt>
      <trkpt lat="44.18054" lon="5.63399">
        <ele>816.5</ele>
        <time>2019-11-10T08:42:17Z</time>
      </trkpt>
      <trkpt lat="44.18045" lon="5.63397">
        <ele>815.2</ele>
        <time>2019-11-10T08:42:24Z</time>
      </trkpt>
      <trkpt lat="44.18036" lon="5.634">
        <ele>814</ele>
        <time>2019-11-10T08:42:33Z</time>
      </trkpt>
      <trkpt lat="44.18028" lon="5.63406">
        <ele>812.8</ele>
        <time>2019-11-10T08:42:41Z</time>
      </trkpt>
      <trkpt lat="44.1802" lon="5.63413">
        <ele>811.1</ele>
        <time>2019-11-10T08:42:49Z</time>
      </trkpt>
      <trkpt lat="44.18012" lon="5.6342">
        <ele>809.9</ele>
        <time>2019-11-10T08:42:59Z</time>
      </trkpt>
      <trkpt lat="44.18004" lon="5.63427">
        <ele>807.5</ele>
        <time>2019-11-10T08:43:08Z</time>
      </trkpt>
      <trkpt lat="44.17999" lon="5.63439">
        <ele>805.7</ele>
        <time>2019-11-10T08:43:16Z</time>
      </trkpt>
      <trkpt lat="44.17994" lon="5.63452">
        <ele>802.7</ele>
        <time>2019-11-10T08:43:25Z</time>
      </trkpt>
      <trkpt lat="44.17988" lon="5.63462">
        <ele>801.1</ele>
        <time>2019-11-10T08:43:33Z</time>
      </trkpt>
      <trkpt lat="44.17982" lon="5.6347">
        <ele>800</ele>
        <time>2019-11-10T08:43:41Z</time>
      </trkpt>
      <trkpt lat="44.17973" lon="5.63476">
        <ele>799.4</ele>
        <time>2019-11-10T08:43:47Z</time>
      </trkpt>
      <trkpt lat="44.17965" lon="5.63484">
        <ele>798.5</ele>
        <time>2019-11-10T08:43:54Z</time>
      </trkpt>
      <trkpt lat="44.17957" lon="5.63491">
        <ele>797.5</ele>
        <time>2019-11-10T08:44:02Z</time>
      </trkpt>
      <trkpt lat="44.17951" lon="5.635">
        <ele>797</ele>
        <time>2019-11-10T08:44:10Z</time>
      </trkpt>
      <trkpt lat="44.17945" lon="5.6351">
        <ele>796.3</ele>
        <time>2019-11-10T08:44:18Z</time>
      </trkpt>
      <trkpt lat="44.17938" lon="5.6352">
        <ele>795.5</ele>
        <time>2019-11-10T08:44:26Z</time>
      </trkpt>
      <trkpt lat="44.17932" lon="5.63531">
        <ele>794.5</ele>
        <time>2019-11-10T08:44:34Z</time>
      </trkpt>
      <trkpt lat="44.17926" lon="5.6354">
        <ele>793.7</ele>
        <time>2019-11-10T08:44:42Z</time>
      </trkpt>
      <trkpt lat="44.17922" lon="5.63552">
        <ele>792.7</ele>
        <time>2019-11-10T08:44:50Z</time>
      </trkpt>
      <trkpt lat="44.17919" lon="5.63565">
        <ele>791.7</ele>
        <time>2019-11-10T08:44:59Z</time>
      </trkpt>
      <trkpt lat="44.17914" lon="5.6359">
        <ele>790.3</ele>
        <time>2019-11-10T08:45:14Z</time>
      </trkpt>
      <trkpt lat="44.17912" lon="5.63603">
        <ele>789.7</ele>
        <time>2019-11-10T08:45:22Z</time>
      </trkpt>
      <trkpt lat="44.17909" lon="5.63616">
        <ele>788.1</ele>
        <time>2019-11-10T08:45:30Z</time>
      </trkpt>
      <trkpt lat="44.17908" lon="5.6363">
        <ele>786.8</ele>
        <time>2019-11-10T08:45:39Z</time>
      </trkpt>
      <trkpt lat="44.17907" lon="5.63642">
        <ele>785.4</ele>
        <time>2019-11-10T08:45:47Z</time>
      </trkpt>
      <trkpt lat="44.17906" lon="5.63655">
        <ele>784</ele>
        <time>2019-11-10T08:45:55Z</time>
      </trkpt>
      <trkpt lat="44.17903" lon="5.63668">
        <ele>782.9</ele>
        <time>2019-11-10T08:46:04Z</time>
      </trkpt>
      <trkpt lat="44.179" lon="5.63693">
        <ele>780.9</ele>
        <time>2019-11-10T08:46:21Z</time>
      </trkpt>
      <trkpt lat="44.17897" lon="5.63705">
        <ele>780.5</ele>
        <time>2019-11-10T08:46:29Z</time>
      </trkpt>
      <trkpt lat="44.17895" lon="5.63719">
        <ele>780</ele>
        <time>2019-11-10T08:46:37Z</time>
      </trkpt>
      <trkpt lat="44.17888" lon="5.63727">
        <ele>779.6</ele>
        <time>2019-11-10T08:46:46Z</time>
      </trkpt>
      <trkpt lat="44.1788" lon="5.63734">
        <ele>779.8</ele>
        <time>2019-11-10T08:46:53Z</time>
      </trkpt>
      <trkpt lat="44.17871" lon="5.63739">
        <ele>778.6</ele>
        <time>2019-11-10T08:47:31Z</time>
      </trkpt>
      <trkpt lat="44.17863" lon="5.63762">
        <ele>777.1</ele>
        <time>2019-11-10T08:47:50Z</time>
      </trkpt>
      <trkpt lat="44.17855" lon="5.63769">
        <ele>775.6</ele>
        <time>2019-11-10T08:47:58Z</time>
      </trkpt>
      <trkpt lat="44.17847" lon="5.63776">
        <ele>774.4</ele>
        <time>2019-11-10T08:48:04Z</time>
      </trkpt>
      <trkpt lat="44.17838" lon="5.63781">
        <ele>772.5</ele>
        <time>2019-11-10T08:48:12Z</time>
      </trkpt>
      <trkpt lat="44.1783" lon="5.63787">
        <ele>770.7</ele>
        <time>2019-11-10T08:48:20Z</time>
      </trkpt>
      <trkpt lat="44.1782" lon="5.63788">
        <ele>768.4</ele>
        <time>2019-11-10T08:48:29Z</time>
      </trkpt>
      <trkpt lat="44.1781" lon="5.63789">
        <ele>767.1</ele>
        <time>2019-11-10T08:48:36Z</time>
      </trkpt>
      <trkpt lat="44.17793" lon="5.63801">
        <ele>764.1</ele>
        <time>2019-11-10T08:48:51Z</time>
      </trkpt>
      <trkpt lat="44.17784" lon="5.63806">
        <ele>762.5</ele>
        <time>2019-11-10T08:48:58Z</time>
      </trkpt>
      <trkpt lat="44.17774" lon="5.63811">
        <ele>761.1</ele>
        <time>2019-11-10T08:49:05Z</time>
      </trkpt>
      <trkpt lat="44.17766" lon="5.63815">
        <ele>759.6</ele>
        <time>2019-11-10T08:49:12Z</time>
      </trkpt>
      <trkpt lat="44.17756" lon="5.6382">
        <ele>758.6</ele>
        <time>2019-11-10T08:49:19Z</time>
      </trkpt>
      <trkpt lat="44.17747" lon="5.63823">
        <ele>757.6</ele>
        <time>2019-11-10T08:49:27Z</time>
      </trkpt>
      <trkpt lat="44.17738" lon="5.63828">
        <ele>756.4</ele>
        <time>2019-11-10T08:49:34Z</time>
      </trkpt>
      <trkpt lat="44.17729" lon="5.63832">
        <ele>754.9</ele>
        <time>2019-11-10T08:49:41Z</time>
      </trkpt>
      <trkpt lat="44.1771" lon="5.63838">
        <ele>752.6</ele>
        <time>2019-11-10T08:49:56Z</time>
      </trkpt>
      <trkpt lat="44.17701" lon="5.63843">
        <ele>751.7</ele>
        <time>2019-11-10T08:50:04Z</time>
      </trkpt>
      <trkpt lat="44.17692" lon="5.63847">
        <ele>750.9</ele>
        <time>2019-11-10T08:50:11Z</time>
      </trkpt>
      <trkpt lat="44.17683" lon="5.63851">
        <ele>750.4</ele>
        <time>2019-11-10T08:50:18Z</time>
      </trkpt>
      <trkpt lat="44.17674" lon="5.63855">
        <ele>749.8</ele>
        <time>2019-11-10T08:50:25Z</time>
      </trkpt>
      <trkpt lat="44.17665" lon="5.63859">
        <ele>748.7</ele>
        <time>2019-11-10T08:50:33Z</time>
      </trkpt>
      <trkpt lat="44.17656" lon="5.63861">
        <ele>748</ele>
        <time>2019-11-10T08:50:42Z</time>
      </trkpt>
      <trkpt lat="44.17637" lon="5.63864">
        <ele>746.2</ele>
        <time>2019-11-10T08:50:57Z</time>
      </trkpt>
      <trkpt lat="44.17627" lon="5.63864">
        <ele>745.4</ele>
        <time>2019-11-10T08:51:05Z</time>
      </trkpt>
      <trkpt lat="44.17617" lon="5.63865">
        <ele>745</ele>
        <time>2019-11-10T08:51:13Z</time>
      </trkpt>
      <trkpt lat="44.17608" lon="5.63864">
        <ele>744.1</ele>
        <time>2019-11-10T08:51:19Z</time>
      </trkpt>
      <trkpt lat="44.17599" lon="5.63863">
        <ele>744</ele>
        <time>2019-11-10T08:51:40Z</time>
      </trkpt>
      <trkpt lat="44.17592" lon="5.63851">
        <ele>744.2</ele>
        <time>2019-11-10T08:52:26Z</time>
      </trkpt>
      <trkpt lat="44.17594" lon="5.63842">
        <ele>744.2</ele>
        <time>2019-11-10T08:53:55Z</time>
      </trkpt>
      <trkpt lat="44.17584" lon="5.63833">
        <ele>745.3</ele>
        <time>2019-11-10T08:54:16Z</time>
      </trkpt>
      <trkpt lat="44.17577" lon="5.63842">
        <ele>745.6</ele>
        <time>2019-11-10T08:54:26Z</time>
      </trkpt>
      <trkpt lat="44.17568" lon="5.63849">
        <ele>746.2</ele>
        <time>2019-11-10T08:54:34Z</time>
      </trkpt>
      <trkpt lat="44.17558" lon="5.63851">
        <ele>747</ele>
        <time>2019-11-10T08:54:43Z</time>
      </trkpt>
      <trkpt lat="44.17549" lon="5.63855">
        <ele>747.3</ele>
        <time>2019-11-10T08:54:50Z</time>
      </trkpt>
      <trkpt lat="44.1754" lon="5.63858">
        <ele>747.6</ele>
        <time>2019-11-10T08:54:57Z</time>
      </trkpt>
      <trkpt lat="44.17522" lon="5.63867">
        <ele>748.7</ele>
        <time>2019-11-10T08:55:13Z</time>
      </trkpt>
      <trkpt lat="44.17513" lon="5.63872">
        <ele>749.6</ele>
        <time>2019-11-10T08:55:21Z</time>
      </trkpt>
      <trkpt lat="44.17504" lon="5.63876">
        <ele>751</ele>
        <time>2019-11-10T08:55:30Z</time>
      </trkpt>
      <trkpt lat="44.17496" lon="5.63881">
        <ele>751.5</ele>
        <time>2019-11-10T08:55:41Z</time>
      </trkpt>
      <trkpt lat="44.17486" lon="5.63887">
        <ele>751</ele>
        <time>2019-11-10T08:55:50Z</time>
      </trkpt>
      <trkpt lat="44.17477" lon="5.6389">
        <ele>750.1</ele>
        <time>2019-11-10T08:55:58Z</time>
      </trkpt>
      <trkpt lat="44.17459" lon="5.63899">
        <ele>746.5</ele>
        <time>2019-11-10T08:56:16Z</time>
      </trkpt>
      <trkpt lat="44.17449" lon="5.639">
        <ele>745.5</ele>
        <time>2019-11-10T08:56:23Z</time>
      </trkpt>
      <trkpt lat="44.17439" lon="5.63904">
        <ele>744</ele>
        <time>2019-11-10T08:56:30Z</time>
      </trkpt>
      <trkpt lat="44.1743" lon="5.63909">
        <ele>742.4</ele>
        <time>2019-11-10T08:56:38Z</time>
      </trkpt>
      <trkpt lat="44.1742" lon="5.63912">
        <ele>741.1</ele>
        <time>2019-11-10T08:56:46Z</time>
      </trkpt>
      <trkpt lat="44.17411" lon="5.63915">
        <ele>740</ele>
        <time>2019-11-10T08:56:53Z</time>
      </trkpt>
      <trkpt lat="44.17402" lon="5.63919">
        <ele>739.3</ele>
        <time>2019-11-10T08:57:00Z</time>
      </trkpt>
      <trkpt lat="44.17384" lon="5.63927">
        <ele>737</ele>
        <time>2019-11-10T08:57:15Z</time>
      </trkpt>
      <trkpt lat="44.17374" lon="5.63931">
        <ele>736.9</ele>
        <time>2019-11-10T08:57:23Z</time>
      </trkpt>
      <trkpt lat="44.17364" lon="5.63933">
        <ele>736.5</ele>
        <time>2019-11-10T08:57:31Z</time>
      </trkpt>
      <trkpt lat="44.17355" lon="5.63937">
        <ele>736.2</ele>
        <time>2019-11-10T08:57:38Z</time>
      </trkpt>
      <trkpt lat="44.17346" lon="5.63941">
        <ele>736.3</ele>
        <time>2019-11-10T08:57:45Z</time>
      </trkpt>
      <trkpt lat="44.17337" lon="5.63946">
        <ele>736.7</ele>
        <time>2019-11-10T08:57:55Z</time>
      </trkpt>
      <trkpt lat="44.17327" lon="5.63945">
        <ele>736.8</ele>
        <time>2019-11-10T08:58:03Z</time>
      </trkpt>
      <trkpt lat="44.17308" lon="5.63947">
        <ele>737.2</ele>
        <time>2019-11-10T08:58:20Z</time>
      </trkpt>
      <trkpt lat="44.17299" lon="5.6395">
        <ele>737.6</ele>
        <time>2019-11-10T08:58:27Z</time>
      </trkpt>
      <trkpt lat="44.17288" lon="5.63952">
        <ele>737.5</ele>
        <time>2019-11-10T08:58:35Z</time>
      </trkpt>
      <trkpt lat="44.17279" lon="5.63948">
        <ele>737.5</ele>
        <time>2019-11-10T08:58:42Z</time>
      </trkpt>
      <trkpt lat="44.1727" lon="5.63944">
        <ele>737.8</ele>
        <time>2019-11-10T08:58:49Z</time>
      </trkpt>
      <trkpt lat="44.17261" lon="5.63941">
        <ele>737.6</ele>
        <time>2019-11-10T08:58:56Z</time>
      </trkpt>
      <trkpt lat="44.17251" lon="5.6394">
        <ele>737.8</ele>
        <time>2019-11-10T08:59:06Z</time>
      </trkpt>
      <trkpt lat="44.17231" lon="5.63939">
        <ele>738.4</ele>
        <time>2019-11-10T08:59:24Z</time>
      </trkpt>
      <trkpt lat="44.17222" lon="5.63939">
        <ele>738.6</ele>
        <time>2019-11-10T08:59:30Z</time>
      </trkpt>
      <trkpt lat="44.17212" lon="5.63943">
        <ele>738.7</ele>
        <time>2019-11-10T08:59:38Z</time>
      </trkpt>
      <trkpt lat="44.17205" lon="5.63953">
        <ele>738.9</ele>
        <time>2019-11-10T08:59:46Z</time>
      </trkpt>
      <trkpt lat="44.172" lon="5.63963">
        <ele>739</ele>
        <time>2019-11-10T08:59:53Z</time>
      </trkpt>
      <trkpt lat="44.17194" lon="5.63974">
        <ele>739.3</ele>
        <time>2019-11-10T09:00:00Z</time>
      </trkpt>
      <trkpt lat="44.17187" lon="5.63983">
        <ele>739.4</ele>
        <time>2019-11-10T09:00:07Z</time>
      </trkpt>
      <trkpt lat="44.17171" lon="5.64001">
        <ele>740.2</ele>
        <time>2019-11-10T09:00:21Z</time>
      </trkpt>
      <trkpt lat="44.17164" lon="5.64011">
        <ele>740.8</ele>
        <time>2019-11-10T09:00:28Z</time>
      </trkpt>
      <trkpt lat="44.17156" lon="5.64019">
        <ele>741.4</ele>
        <time>2019-11-10T09:00:35Z</time>
      </trkpt>
      <trkpt lat="44.17149" lon="5.64028">
        <ele>741.7</ele>
        <time>2019-11-10T09:00:42Z</time>
      </trkpt>
      <trkpt lat="44.17141" lon="5.64036">
        <ele>742.1</ele>
        <time>2019-11-10T09:00:49Z</time>
      </trkpt>
      <trkpt lat="44.17133" lon="5.64044">
        <ele>742.9</ele>
        <time>2019-11-10T09:00:57Z</time>
      </trkpt>
      <trkpt lat="44.17126" lon="5.64052">
        <ele>743.4</ele>
        <time>2019-11-10T09:01:04Z</time>
      </trkpt>
      <trkpt lat="44.17118" lon="5.6406">
        <ele>744.1</ele>
        <time>2019-11-10T09:01:11Z</time>
      </trkpt>
      <trkpt lat="44.171" lon="5.64074">
        <ele>745.5</ele>
        <time>2019-11-10T09:01:27Z</time>
      </trkpt>
      <trkpt lat="44.17093" lon="5.64082">
        <ele>746</ele>
        <time>2019-11-10T09:01:34Z</time>
      </trkpt>
      <trkpt lat="44.17085" lon="5.6409">
        <ele>746.6</ele>
        <time>2019-11-10T09:01:41Z</time>
      </trkpt>
      <trkpt lat="44.17079" lon="5.641">
        <ele>746.8</ele>
        <time>2019-11-10T09:01:48Z</time>
      </trkpt>
      <trkpt lat="44.17075" lon="5.64111">
        <ele>746.4</ele>
        <time>2019-11-10T09:01:55Z</time>
      </trkpt>
      <trkpt lat="44.17069" lon="5.64121">
        <ele>746.4</ele>
        <time>2019-11-10T09:02:04Z</time>
      </trkpt>
      <trkpt lat="44.17065" lon="5.64132">
        <ele>746.4</ele>
        <time>2019-11-10T09:02:17Z</time>
      </trkpt>
      <trkpt lat="44.17052" lon="5.64153">
        <ele>746.5</ele>
        <time>2019-11-10T09:02:31Z</time>
      </trkpt>
      <trkpt lat="44.17045" lon="5.64163">
        <ele>746.2</ele>
        <time>2019-11-10T09:02:39Z</time>
      </trkpt>
      <trkpt lat="44.17039" lon="5.64173">
        <ele>746.1</ele>
        <time>2019-11-10T09:02:46Z</time>
      </trkpt>
      <trkpt lat="44.17032" lon="5.64184">
        <ele>746.4</ele>
        <time>2019-11-10T09:02:54Z</time>
      </trkpt>
      <trkpt lat="44.17026" lon="5.64194">
        <ele>746.3</ele>
        <time>2019-11-10T09:03:01Z</time>
      </trkpt>
      <trkpt lat="44.17019" lon="5.64204">
        <ele>746.2</ele>
        <time>2019-11-10T09:03:08Z</time>
      </trkpt>
      <trkpt lat="44.1701" lon="5.64212">
        <ele>746.3</ele>
        <time>2019-11-10T09:03:15Z</time>
      </trkpt>
      <trkpt lat="44.17002" lon="5.64219">
        <ele>746.5</ele>
        <time>2019-11-10T09:03:21Z</time>
      </trkpt>
      <trkpt lat="44.16984" lon="5.64229">
        <ele>746.3</ele>
        <time>2019-11-10T09:03:37Z</time>
      </trkpt>
      <trkpt lat="44.16975" lon="5.64231">
        <ele>746.4</ele>
        <time>2019-11-10T09:03:44Z</time>
      </trkpt>
      <trkpt lat="44.16965" lon="5.64232">
        <ele>746.6</ele>
        <time>2019-11-10T09:03:51Z</time>
      </trkpt>
      <trkpt lat="44.16956" lon="5.64234">
        <ele>746.9</ele>
        <time>2019-11-10T09:03:58Z</time>
      </trkpt>
      <trkpt lat="44.16947" lon="5.64238">
        <ele>748.1</ele>
        <time>2019-11-10T09:04:05Z</time>
      </trkpt>
      <trkpt lat="44.16937" lon="5.64241">
        <ele>749</ele>
        <time>2019-11-10T09:04:13Z</time>
      </trkpt>
      <trkpt lat="44.16928" lon="5.64244">
        <ele>750</ele>
        <time>2019-11-10T09:04:20Z</time>
      </trkpt>
      <trkpt lat="44.16918" lon="5.64245">
        <ele>750.7</ele>
        <time>2019-11-10T09:04:28Z</time>
      </trkpt>
      <trkpt lat="44.16899" lon="5.64248">
        <ele>751.5</ele>
        <time>2019-11-10T09:04:42Z</time>
      </trkpt>
      <trkpt lat="44.16889" lon="5.64249">
        <ele>751.3</ele>
        <time>2019-11-10T09:04:49Z</time>
      </trkpt>
      <trkpt lat="44.1688" lon="5.64251">
        <ele>751.3</ele>
        <time>2019-11-10T09:04:56Z</time>
      </trkpt>
      <trkpt lat="44.16871" lon="5.64252">
        <ele>751.6</ele>
        <time>2019-11-10T09:05:02Z</time>
      </trkpt>
      <trkpt lat="44.16862" lon="5.64253">
        <ele>751.5</ele>
        <time>2019-11-10T09:05:08Z</time>
      </trkpt>
      <trkpt lat="44.16853" lon="5.64254">
        <ele>751.9</ele>
        <time>2019-11-10T09:05:14Z</time>
      </trkpt>
      <trkpt lat="44.16844" lon="5.64254">
        <ele>752.1</ele>
        <time>2019-11-10T09:05:21Z</time>
      </trkpt>
      <trkpt lat="44.16834" lon="5.64254">
        <ele>752.3</ele>
        <time>2019-11-10T09:05:29Z</time>
      </trkpt>
      <trkpt lat="44.16816" lon="5.64249">
        <ele>752.4</ele>
        <time>2019-11-10T09:05:43Z</time>
      </trkpt>
      <trkpt lat="44.16806" lon="5.64244">
        <ele>752.3</ele>
        <time>2019-11-10T09:05:50Z</time>
      </trkpt>
      <trkpt lat="44.16797" lon="5.64244">
        <ele>752.4</ele>
        <time>2019-11-10T09:05:57Z</time>
      </trkpt>
      <trkpt lat="44.16788" lon="5.64251">
        <ele>752.5</ele>
        <time>2019-11-10T09:06:04Z</time>
      </trkpt>
      <trkpt lat="44.16779" lon="5.64257">
        <ele>753.3</ele>
        <time>2019-11-10T09:06:12Z</time>
      </trkpt>
      <trkpt lat="44.1677" lon="5.64261">
        <ele>754.5</ele>
        <time>2019-11-10T09:06:21Z</time>
      </trkpt>
      <trkpt lat="44.16761" lon="5.64266">
        <ele>756.1</ele>
        <time>2019-11-10T09:06:29Z</time>
      </trkpt>
      <trkpt lat="44.16752" lon="5.64271">
        <ele>757.5</ele>
        <time>2019-11-10T09:06:36Z</time>
      </trkpt>
      <trkpt lat="44.16734" lon="5.64279">
        <ele>759.6</ele>
        <time>2019-11-10T09:06:50Z</time>
      </trkpt>
      <trkpt lat="44.16724" lon="5.64282">
        <ele>760.5</ele>
        <time>2019-11-10T09:06:57Z</time>
      </trkpt>
      <trkpt lat="44.16715" lon="5.64282">
        <ele>762.2</ele>
        <time>2019-11-10T09:07:06Z</time>
      </trkpt>
      <trkpt lat="44.16706" lon="5.64284">
        <ele>763.4</ele>
        <time>2019-11-10T09:07:19Z</time>
      </trkpt>
      <trkpt lat="44.16696" lon="5.6428">
        <ele>764.2</ele>
        <time>2019-11-10T09:07:28Z</time>
      </trkpt>
      <trkpt lat="44.16687" lon="5.64275">
        <ele>765.3</ele>
        <time>2019-11-10T09:07:35Z</time>
      </trkpt>
      <trkpt lat="44.16679" lon="5.64271">
        <ele>766.4</ele>
        <time>2019-11-10T09:07:42Z</time>
      </trkpt>
      <trkpt lat="44.16662" lon="5.64258">
        <ele>768.6</ele>
        <time>2019-11-10T09:07:56Z</time>
      </trkpt>
      <trkpt lat="44.16653" lon="5.64251">
        <ele>770.4</ele>
        <time>2019-11-10T09:08:04Z</time>
      </trkpt>
      <trkpt lat="44.16644" lon="5.64244">
        <ele>771.9</ele>
        <time>2019-11-10T09:08:12Z</time>
      </trkpt>
      <trkpt lat="44.16636" lon="5.64238">
        <ele>772.9</ele>
        <time>2019-11-10T09:08:19Z</time>
      </trkpt>
      <trkpt lat="44.16627" lon="5.64233">
        <ele>773.7</ele>
        <time>2019-11-10T09:08:35Z</time>
      </trkpt>
      <trkpt lat="44.16618" lon="5.64227">
        <ele>774.4</ele>
        <time>2019-11-10T09:08:43Z</time>
      </trkpt>
      <trkpt lat="44.16599" lon="5.6422">
        <ele>775.2</ele>
        <time>2019-11-10T09:08:56Z</time>
      </trkpt>
      <trkpt lat="44.16589" lon="5.6422">
        <ele>775.3</ele>
        <time>2019-11-10T09:09:33Z</time>
      </trkpt>
      <trkpt lat="44.1658" lon="5.64217">
        <ele>775.6</ele>
        <time>2019-11-10T09:09:53Z</time>
      </trkpt>
      <trkpt lat="44.1656" lon="5.64216">
        <ele>775.9</ele>
        <time>2019-11-10T09:10:07Z</time>
      </trkpt>
      <trkpt lat="44.1655" lon="5.64218">
        <ele>776.1</ele>
        <time>2019-11-10T09:10:14Z</time>
      </trkpt>
      <trkpt lat="44.16541" lon="5.64218">
        <ele>776.1</ele>
        <time>2019-11-10T09:10:20Z</time>
      </trkpt>
      <trkpt lat="44.16531" lon="5.64216">
        <ele>776.6</ele>
        <time>2019-11-10T09:10:26Z</time>
      </trkpt>
      <trkpt lat="44.16522" lon="5.64213">
        <ele>776.9</ele>
        <time>2019-11-10T09:10:32Z</time>
      </trkpt>
      <trkpt lat="44.16513" lon="5.6421">
        <ele>777.2</ele>
        <time>2019-11-10T09:10:38Z</time>
      </trkpt>
      <trkpt lat="44.16504" lon="5.64205">
        <ele>777.8</ele>
        <time>2019-11-10T09:10:44Z</time>
      </trkpt>
      <trkpt lat="44.16495" lon="5.64202">
        <ele>779.2</ele>
        <time>2019-11-10T09:10:50Z</time>
      </trkpt>
      <trkpt lat="44.16485" lon="5.64201">
        <ele>780.4</ele>
        <time>2019-11-10T09:10:57Z</time>
      </trkpt>
      <trkpt lat="44.16466" lon="5.64209">
        <ele>784.1</ele>
        <time>2019-11-10T09:11:13Z</time>
      </trkpt>
      <trkpt lat="44.16458" lon="5.64215">
        <ele>785.4</ele>
        <time>2019-11-10T09:11:20Z</time>
      </trkpt>
      <trkpt lat="44.16449" lon="5.64222">
        <ele>786.5</ele>
        <time>2019-11-10T09:11:27Z</time>
      </trkpt>
      <trkpt lat="44.16441" lon="5.64228">
        <ele>787.9</ele>
        <time>2019-11-10T09:11:34Z</time>
      </trkpt>
      <trkpt lat="44.16432" lon="5.64234">
        <ele>789.5</ele>
        <time>2019-11-10T09:11:42Z</time>
      </trkpt>
      <trkpt lat="44.16423" lon="5.6424">
        <ele>791.5</ele>
        <time>2019-11-10T09:11:50Z</time>
      </trkpt>
      <trkpt lat="44.16414" lon="5.64247">
        <ele>792.8</ele>
        <time>2019-11-10T09:11:58Z</time>
      </trkpt>
      <trkpt lat="44.16399" lon="5.64264">
        <ele>795.5</ele>
        <time>2019-11-10T09:12:13Z</time>
      </trkpt>
      <trkpt lat="44.16392" lon="5.64273">
        <ele>796.7</ele>
        <time>2019-11-10T09:12:19Z</time>
      </trkpt>
      <trkpt lat="44.16386" lon="5.64282">
        <ele>798.6</ele>
        <time>2019-11-10T09:12:26Z</time>
      </trkpt>
      <trkpt lat="44.16378" lon="5.64291">
        <ele>800</ele>
        <time>2019-11-10T09:12:34Z</time>
      </trkpt>
      <trkpt lat="44.16371" lon="5.643">
        <ele>801.2</ele>
        <time>2019-11-10T09:12:41Z</time>
      </trkpt>
      <trkpt lat="44.16363" lon="5.64307">
        <ele>802.1</ele>
        <time>2019-11-10T09:12:48Z</time>
      </trkpt>
      <trkpt lat="44.16355" lon="5.64316">
        <ele>802.7</ele>
        <time>2019-11-10T09:12:55Z</time>
      </trkpt>
      <trkpt lat="44.16348" lon="5.64324">
        <ele>803.5</ele>
        <time>2019-11-10T09:13:02Z</time>
      </trkpt>
      <trkpt lat="44.16331" lon="5.64339">
        <ele>805.9</ele>
        <time>2019-11-10T09:13:18Z</time>
      </trkpt>
      <trkpt lat="44.16322" lon="5.64344">
        <ele>807.1</ele>
        <time>2019-11-10T09:13:26Z</time>
      </trkpt>
      <trkpt lat="44.16312" lon="5.64348">
        <ele>808.8</ele>
        <time>2019-11-10T09:13:34Z</time>
      </trkpt>
      <trkpt lat="44.16303" lon="5.64351">
        <ele>810.1</ele>
        <time>2019-11-10T09:13:42Z</time>
      </trkpt>
      <trkpt lat="44.16294" lon="5.64358">
        <ele>811.5</ele>
        <time>2019-11-10T09:13:52Z</time>
      </trkpt>
      <trkpt lat="44.16303" lon="5.64365">
        <ele>813.4</ele>
        <time>2019-11-10T09:14:31Z</time>
      </trkpt>
      <trkpt lat="44.16322" lon="5.64368">
        <ele>813.4</ele>
        <time>2019-11-10T09:14:58Z</time>
      </trkpt>
      <trkpt lat="44.16331" lon="5.64369">
        <ele>812.8</ele>
        <time>2019-11-10T09:15:06Z</time>
      </trkpt>
      <trkpt lat="44.16341" lon="5.64373">
        <ele>813.2</ele>
        <time>2019-11-10T09:15:13Z</time>
      </trkpt>
      <trkpt lat="44.16352" lon="5.64374">
        <ele>813.2</ele>
        <time>2019-11-10T09:15:20Z</time>
      </trkpt>
      <trkpt lat="44.16362" lon="5.64376">
        <ele>813.5</ele>
        <time>2019-11-10T09:15:27Z</time>
      </trkpt>
      <trkpt lat="44.16369" lon="5.64386">
        <ele>814.8</ele>
        <time>2019-11-10T09:15:34Z</time>
      </trkpt>
      <trkpt lat="44.16371" lon="5.64414">
        <ele>817.5</ele>
        <time>2019-11-10T09:15:46Z</time>
      </trkpt>
      <trkpt lat="44.16371" lon="5.64428">
        <ele>818.5</ele>
        <time>2019-11-10T09:15:53Z</time>
      </trkpt>
      <trkpt lat="44.16372" lon="5.64442">
        <ele>819</ele>
        <time>2019-11-10T09:16:00Z</time>
      </trkpt>
      <trkpt lat="44.1637" lon="5.64454">
        <ele>818.9</ele>
        <time>2019-11-10T09:16:07Z</time>
      </trkpt>
      <trkpt lat="44.16369" lon="5.64468">
        <ele>818</ele>
        <time>2019-11-10T09:16:14Z</time>
      </trkpt>
      <trkpt lat="44.16366" lon="5.64481">
        <ele>817.5</ele>
        <time>2019-11-10T09:16:21Z</time>
      </trkpt>
      <trkpt lat="44.16362" lon="5.64494">
        <ele>816.1</ele>
        <time>2019-11-10T09:16:28Z</time>
      </trkpt>
      <trkpt lat="44.16358" lon="5.64505">
        <ele>815</ele>
        <time>2019-11-10T09:16:34Z</time>
      </trkpt>
      <trkpt lat="44.16355" lon="5.64517">
        <ele>814.5</ele>
        <time>2019-11-10T09:16:40Z</time>
      </trkpt>
      <trkpt lat="44.16345" lon="5.64542">
        <ele>813.2</ele>
        <time>2019-11-10T09:16:54Z</time>
      </trkpt>
      <trkpt lat="44.16341" lon="5.64554">
        <ele>813</ele>
        <time>2019-11-10T09:17:00Z</time>
      </trkpt>
      <trkpt lat="44.16342" lon="5.64569">
        <ele>813.3</ele>
        <time>2019-11-10T09:17:07Z</time>
      </trkpt>
      <trkpt lat="44.16343" lon="5.64583">
        <ele>812.7</ele>
        <time>2019-11-10T09:17:15Z</time>
      </trkpt>
      <trkpt lat="44.16343" lon="5.64596">
        <ele>812</ele>
        <time>2019-11-10T09:17:22Z</time>
      </trkpt>
      <trkpt lat="44.16344" lon="5.6461">
        <ele>811.8</ele>
        <time>2019-11-10T09:17:29Z</time>
      </trkpt>
      <trkpt lat="44.16346" lon="5.64624">
        <ele>811.7</ele>
        <time>2019-11-10T09:17:36Z</time>
      </trkpt>
      <trkpt lat="44.16349" lon="5.64638">
        <ele>811.6</ele>
        <time>2019-11-10T09:17:42Z</time>
      </trkpt>
      <trkpt lat="44.16348" lon="5.64665">
        <ele>811.4</ele>
        <time>2019-11-10T09:17:55Z</time>
      </trkpt>
      <trkpt lat="44.16343" lon="5.64677">
        <ele>810.8</ele>
        <time>2019-11-10T09:18:02Z</time>
      </trkpt>
      <trkpt lat="44.16337" lon="5.64687">
        <ele>809.9</ele>
        <time>2019-11-10T09:18:09Z</time>
      </trkpt>
      <trkpt lat="44.16329" lon="5.64695">
        <ele>809</ele>
        <time>2019-11-10T09:18:16Z</time>
      </trkpt>
      <trkpt lat="44.16323" lon="5.64705">
        <ele>808.9</ele>
        <time>2019-11-10T09:18:22Z</time>
      </trkpt>
      <trkpt lat="44.16317" lon="5.64715">
        <ele>807.8</ele>
        <time>2019-11-10T09:18:28Z</time>
      </trkpt>
      <trkpt lat="44.16309" lon="5.64723">
        <ele>807.3</ele>
        <time>2019-11-10T09:18:35Z</time>
      </trkpt>
      <trkpt lat="44.16298" lon="5.64723">
        <ele>806.1</ele>
        <time>2019-11-10T09:18:42Z</time>
      </trkpt>
      <trkpt lat="44.16289" lon="5.64722">
        <ele>805</ele>
        <time>2019-11-10T09:18:48Z</time>
      </trkpt>
      <trkpt lat="44.16278" lon="5.64742">
        <ele>802.9</ele>
        <time>2019-11-10T09:19:01Z</time>
      </trkpt>
      <trkpt lat="44.16272" lon="5.64752">
        <ele>802</ele>
        <time>2019-11-10T09:20:09Z</time>
      </trkpt>
      <trkpt lat="44.16285" lon="5.64787">
        <ele>800.7</ele>
        <time>2019-11-10T09:21:41Z</time>
      </trkpt>
      <trkpt lat="44.1629" lon="5.64797">
        <ele>800</ele>
        <time>2019-11-10T09:21:48Z</time>
      </trkpt>
      <trkpt lat="44.16296" lon="5.64808">
        <ele>799.4</ele>
        <time>2019-11-10T09:21:55Z</time>
      </trkpt>
      <trkpt lat="44.16296" lon="5.64821">
        <ele>798.8</ele>
        <time>2019-11-10T09:22:21Z</time>
      </trkpt>
      <trkpt lat="44.16289" lon="5.64831">
        <ele>798.8</ele>
        <time>2019-11-10T09:22:28Z</time>
      </trkpt>
      <trkpt lat="44.16281" lon="5.64841">
        <ele>799.2</ele>
        <time>2019-11-10T09:22:34Z</time>
      </trkpt>
      <trkpt lat="44.16267" lon="5.6486">
        <ele>799.5</ele>
        <time>2019-11-10T09:22:47Z</time>
      </trkpt>
      <trkpt lat="44.16259" lon="5.64868">
        <ele>799.6</ele>
        <time>2019-11-10T09:22:54Z</time>
      </trkpt>
      <trkpt lat="44.16251" lon="5.64876">
        <ele>800</ele>
        <time>2019-11-10T09:23:01Z</time>
      </trkpt>
      <trkpt lat="44.16243" lon="5.64882">
        <ele>800</ele>
        <time>2019-11-10T09:23:07Z</time>
      </trkpt>
      <trkpt lat="44.16236" lon="5.64892">
        <ele>800.4</ele>
        <time>2019-11-10T09:23:14Z</time>
      </trkpt>
      <trkpt lat="44.1623" lon="5.64902">
        <ele>800.6</ele>
        <time>2019-11-10T09:23:20Z</time>
      </trkpt>
      <trkpt lat="44.16224" lon="5.64912">
        <ele>801</ele>
        <time>2019-11-10T09:23:27Z</time>
      </trkpt>
      <trkpt lat="44.16218" lon="5.64924">
        <ele>801.4</ele>
        <time>2019-11-10T09:23:34Z</time>
      </trkpt>
      <trkpt lat="44.16213" lon="5.64935">
        <ele>801.6</ele>
        <time>2019-11-10T09:23:41Z</time>
      </trkpt>
      <trkpt lat="44.162" lon="5.64953">
        <ele>802.6</ele>
        <time>2019-11-10T09:23:53Z</time>
      </trkpt>
      <trkpt lat="44.16191" lon="5.64961">
        <ele>802.9</ele>
        <time>2019-11-10T09:23:58Z</time>
      </trkpt>
      <trkpt lat="44.16183" lon="5.64968">
        <ele>804</ele>
        <time>2019-11-10T09:24:04Z</time>
      </trkpt>
      <trkpt lat="44.16176" lon="5.64977">
        <ele>804.5</ele>
        <time>2019-11-10T09:24:11Z</time>
      </trkpt>
      <trkpt lat="44.1617" lon="5.64987">
        <ele>805.2</ele>
        <time>2019-11-10T09:24:18Z</time>
      </trkpt>
      <trkpt lat="44.16165" lon="5.64998">
        <ele>805.6</ele>
        <time>2019-11-10T09:24:25Z</time>
      </trkpt>
      <trkpt lat="44.1616" lon="5.65009">
        <ele>806.1</ele>
        <time>2019-11-10T09:24:32Z</time>
      </trkpt>
      <trkpt lat="44.16154" lon="5.65019">
        <ele>806.5</ele>
        <time>2019-11-10T09:24:40Z</time>
      </trkpt>
      <trkpt lat="44.16149" lon="5.6503">
        <ele>807.3</ele>
        <time>2019-11-10T09:24:47Z</time>
      </trkpt>
      <trkpt lat="44.16137" lon="5.6505">
        <ele>808.2</ele>
        <time>2019-11-10T09:25:01Z</time>
      </trkpt>
      <trkpt lat="44.16131" lon="5.65061">
        <ele>808.8</ele>
        <time>2019-11-10T09:25:09Z</time>
      </trkpt>
      <trkpt lat="44.16127" lon="5.65073">
        <ele>809.3</ele>
        <time>2019-11-10T09:25:16Z</time>
      </trkpt>
      <trkpt lat="44.16121" lon="5.65084">
        <ele>809.7</ele>
        <time>2019-11-10T09:25:23Z</time>
      </trkpt>
      <trkpt lat="44.16117" lon="5.65096">
        <ele>809.9</ele>
        <time>2019-11-10T09:25:30Z</time>
      </trkpt>
      <trkpt lat="44.16111" lon="5.65108">
        <ele>810.2</ele>
        <time>2019-11-10T09:25:37Z</time>
      </trkpt>
      <trkpt lat="44.16107" lon="5.6512">
        <ele>810.4</ele>
        <time>2019-11-10T09:25:42Z</time>
      </trkpt>
      <trkpt lat="44.16103" lon="5.65132">
        <ele>810.9</ele>
        <time>2019-11-10T09:25:48Z</time>
      </trkpt>
      <trkpt lat="44.16095" lon="5.65157">
        <ele>811.8</ele>
        <time>2019-11-10T09:26:02Z</time>
      </trkpt>
      <trkpt lat="44.1609" lon="5.65169">
        <ele>812.7</ele>
        <time>2019-11-10T09:26:10Z</time>
      </trkpt>
      <trkpt lat="44.16087" lon="5.65181">
        <ele>812.9</ele>
        <time>2019-11-10T09:26:16Z</time>
      </trkpt>
      <trkpt lat="44.16085" lon="5.65194">
        <ele>813</ele>
        <time>2019-11-10T09:26:23Z</time>
      </trkpt>
      <trkpt lat="44.16083" lon="5.65207">
        <ele>813.4</ele>
        <time>2019-11-10T09:26:29Z</time>
      </trkpt>
      <trkpt lat="44.16081" lon="5.6522">
        <ele>813.7</ele>
        <time>2019-11-10T09:26:36Z</time>
      </trkpt>
      <trkpt lat="44.16078" lon="5.65235">
        <ele>814.1</ele>
        <time>2019-11-10T09:26:43Z</time>
      </trkpt>
      <trkpt lat="44.16077" lon="5.65249">
        <ele>814.4</ele>
        <time>2019-11-10T09:26:50Z</time>
      </trkpt>
      <trkpt lat="44.16078" lon="5.65276">
        <ele>814.7</ele>
        <time>2019-11-10T09:27:04Z</time>
      </trkpt>
      <trkpt lat="44.16078" lon="5.6529">
        <ele>814.6</ele>
        <time>2019-11-10T09:27:11Z</time>
      </trkpt>
      <trkpt lat="44.16078" lon="5.65303">
        <ele>814.7</ele>
        <time>2019-11-10T09:27:18Z</time>
      </trkpt>
      <trkpt lat="44.16078" lon="5.65317">
        <ele>815.1</ele>
        <time>2019-11-10T09:27:25Z</time>
      </trkpt>
      <trkpt lat="44.16078" lon="5.65331">
        <ele>815</ele>
        <time>2019-11-10T09:27:32Z</time>
      </trkpt>
      <trkpt lat="44.16079" lon="5.65344">
        <ele>815</ele>
        <time>2019-11-10T09:27:39Z</time>
      </trkpt>
      <trkpt lat="44.16076" lon="5.65357">
        <ele>815.5</ele>
        <time>2019-11-10T09:27:46Z</time>
      </trkpt>
      <trkpt lat="44.1607" lon="5.65368">
        <ele>815.6</ele>
        <time>2019-11-10T09:27:53Z</time>
      </trkpt>
      <trkpt lat="44.16065" lon="5.65394">
        <ele>815.2</ele>
        <time>2019-11-10T09:28:07Z</time>
      </trkpt>
      <trkpt lat="44.1607" lon="5.65406">
        <ele>815.7</ele>
        <time>2019-11-10T09:28:14Z</time>
      </trkpt>
      <trkpt lat="44.16075" lon="5.65417">
        <ele>816.6</ele>
        <time>2019-11-10T09:28:20Z</time>
      </trkpt>
      <trkpt lat="44.1608" lon="5.65428">
        <ele>817.3</ele>
        <time>2019-11-10T09:28:27Z</time>
      </trkpt>
      <trkpt lat="44.16084" lon="5.6544">
        <ele>818.2</ele>
        <time>2019-11-10T09:28:35Z</time>
      </trkpt>
      <trkpt lat="44.1608" lon="5.65452">
        <ele>819.8</ele>
        <time>2019-11-10T09:28:51Z</time>
      </trkpt>
      <trkpt lat="44.16071" lon="5.65459">
        <ele>821.3</ele>
        <time>2019-11-10T09:28:57Z</time>
      </trkpt>
      <trkpt lat="44.16054" lon="5.6547">
        <ele>824.9</ele>
        <time>2019-11-10T09:29:13Z</time>
      </trkpt>
      <trkpt lat="44.16045" lon="5.65474">
        <ele>826.5</ele>
        <time>2019-11-10T09:29:21Z</time>
      </trkpt>
      <trkpt lat="44.16039" lon="5.65484">
        <ele>829.5</ele>
        <time>2019-11-10T09:29:32Z</time>
      </trkpt>
      <trkpt lat="44.16038" lon="5.65497">
        <ele>832.3</ele>
        <time>2019-11-10T09:29:42Z</time>
      </trkpt>
      <trkpt lat="44.1603" lon="5.65505">
        <ele>834.8</ele>
        <time>2019-11-10T09:29:52Z</time>
      </trkpt>
      <trkpt lat="44.16021" lon="5.65511">
        <ele>837</ele>
        <time>2019-11-10T09:30:01Z</time>
      </trkpt>
      <trkpt lat="44.16004" lon="5.65518">
        <ele>841.5</ele>
        <time>2019-11-10T09:30:21Z</time>
      </trkpt>
      <trkpt lat="44.15996" lon="5.65526">
        <ele>843.1</ele>
        <time>2019-11-10T09:30:33Z</time>
      </trkpt>
      <trkpt lat="44.15989" lon="5.65535">
        <ele>845.1</ele>
        <time>2019-11-10T09:30:42Z</time>
      </trkpt>
      <trkpt lat="44.1598" lon="5.6554">
        <ele>846.7</ele>
        <time>2019-11-10T09:30:51Z</time>
      </trkpt>
      <trkpt lat="44.15971" lon="5.65542">
        <ele>848.9</ele>
        <time>2019-11-10T09:31:02Z</time>
      </trkpt>
      <trkpt lat="44.15953" lon="5.65544">
        <ele>853</ele>
        <time>2019-11-10T09:31:26Z</time>
      </trkpt>
      <trkpt lat="44.15944" lon="5.65546">
        <ele>854.9</ele>
        <time>2019-11-10T09:31:35Z</time>
      </trkpt>
      <trkpt lat="44.15934" lon="5.6555">
        <ele>857.2</ele>
        <time>2019-11-10T09:31:45Z</time>
      </trkpt>
      <trkpt lat="44.15925" lon="5.65553">
        <ele>859.1</ele>
        <time>2019-11-10T09:31:55Z</time>
      </trkpt>
      <trkpt lat="44.15916" lon="5.65554">
        <ele>860.6</ele>
        <time>2019-11-10T09:32:04Z</time>
      </trkpt>
      <trkpt lat="44.15897" lon="5.65555">
        <ele>863.9</ele>
        <time>2019-11-10T09:32:23Z</time>
      </trkpt>
      <trkpt lat="44.15888" lon="5.65561">
        <ele>865.5</ele>
        <time>2019-11-10T09:32:32Z</time>
      </trkpt>
      <trkpt lat="44.1588" lon="5.65567">
        <ele>867.8</ele>
        <time>2019-11-10T09:32:43Z</time>
      </trkpt>
      <trkpt lat="44.15872" lon="5.65576">
        <ele>869.6</ele>
        <time>2019-11-10T09:32:52Z</time>
      </trkpt>
      <trkpt lat="44.15864" lon="5.65582">
        <ele>871.3</ele>
        <time>2019-11-10T09:33:01Z</time>
      </trkpt>
      <trkpt lat="44.15856" lon="5.6559">
        <ele>873</ele>
        <time>2019-11-10T09:33:10Z</time>
      </trkpt>
      <trkpt lat="44.1584" lon="5.65605">
        <ele>876.9</ele>
        <time>2019-11-10T09:33:30Z</time>
      </trkpt>
      <trkpt lat="44.15832" lon="5.6561">
        <ele>878.7</ele>
        <time>2019-11-10T09:33:40Z</time>
      </trkpt>
      <trkpt lat="44.15823" lon="5.65616">
        <ele>880.4</ele>
        <time>2019-11-10T09:33:50Z</time>
      </trkpt>
      <trkpt lat="44.15814" lon="5.65622">
        <ele>882.3</ele>
        <time>2019-11-10T09:33:59Z</time>
      </trkpt>
      <trkpt lat="44.15806" lon="5.65626">
        <ele>884.1</ele>
        <time>2019-11-10T09:34:08Z</time>
      </trkpt>
      <trkpt lat="44.15797" lon="5.65631">
        <ele>886.1</ele>
        <time>2019-11-10T09:34:19Z</time>
      </trkpt>
      <trkpt lat="44.15778" lon="5.65642">
        <ele>890.7</ele>
        <time>2019-11-10T09:34:40Z</time>
      </trkpt>
      <trkpt lat="44.15769" lon="5.65647">
        <ele>892.4</ele>
        <time>2019-11-10T09:34:49Z</time>
      </trkpt>
      <trkpt lat="44.15761" lon="5.65652">
        <ele>894.2</ele>
        <time>2019-11-10T09:34:58Z</time>
      </trkpt>
      <trkpt lat="44.15753" lon="5.65659">
        <ele>896.5</ele>
        <time>2019-11-10T09:35:22Z</time>
      </trkpt>
      <trkpt lat="44.15735" lon="5.65668">
        <ele>901.2</ele>
        <time>2019-11-10T09:35:50Z</time>
      </trkpt>
      <trkpt lat="44.15726" lon="5.65675">
        <ele>903.3</ele>
        <time>2019-11-10T09:35:59Z</time>
      </trkpt>
      <trkpt lat="44.15718" lon="5.6568">
        <ele>905.3</ele>
        <time>2019-11-10T09:36:09Z</time>
      </trkpt>
      <trkpt lat="44.15708" lon="5.65683">
        <ele>907</ele>
        <time>2019-11-10T09:38:31Z</time>
      </trkpt>
      <trkpt lat="44.15691" lon="5.65693">
        <ele>910.8</ele>
        <time>2019-11-10T09:38:51Z</time>
      </trkpt>
      <trkpt lat="44.15682" lon="5.657">
        <ele>912.8</ele>
        <time>2019-11-10T09:39:00Z</time>
      </trkpt>
      <trkpt lat="44.15673" lon="5.65704">
        <ele>914.7</ele>
        <time>2019-11-10T09:39:11Z</time>
      </trkpt>
      <trkpt lat="44.15664" lon="5.6571">
        <ele>916.5</ele>
        <time>2019-11-10T09:39:21Z</time>
      </trkpt>
      <trkpt lat="44.15655" lon="5.65714">
        <ele>918.3</ele>
        <time>2019-11-10T09:39:29Z</time>
      </trkpt>
      <trkpt lat="44.15646" lon="5.65717">
        <ele>919.4</ele>
        <time>2019-11-10T09:39:38Z</time>
      </trkpt>
      <trkpt lat="44.1563" lon="5.65728">
        <ele>923.1</ele>
        <time>2019-11-10T09:40:00Z</time>
      </trkpt>
      <trkpt lat="44.15621" lon="5.65729">
        <ele>924.3</ele>
        <time>2019-11-10T09:40:08Z</time>
      </trkpt>
      <trkpt lat="44.15611" lon="5.65728">
        <ele>925</ele>
        <time>2019-11-10T09:40:18Z</time>
      </trkpt>
      <trkpt lat="44.15602" lon="5.65729">
        <ele>925.3</ele>
        <time>2019-11-10T09:40:27Z</time>
      </trkpt>
      <trkpt lat="44.15593" lon="5.65731">
        <ele>926.7</ele>
        <time>2019-11-10T09:40:37Z</time>
      </trkpt>
      <trkpt lat="44.15584" lon="5.65736">
        <ele>928.1</ele>
        <time>2019-11-10T09:40:45Z</time>
      </trkpt>
      <trkpt lat="44.15568" lon="5.65749">
        <ele>931.1</ele>
        <time>2019-11-10T09:41:04Z</time>
      </trkpt>
      <trkpt lat="44.15559" lon="5.65754">
        <ele>931.7</ele>
        <time>2019-11-10T09:41:12Z</time>
      </trkpt>
      <trkpt lat="44.15551" lon="5.65759">
        <ele>932.8</ele>
        <time>2019-11-10T09:41:20Z</time>
      </trkpt>
      <trkpt lat="44.15542" lon="5.65765">
        <ele>934.4</ele>
        <time>2019-11-10T09:41:28Z</time>
      </trkpt>
      <trkpt lat="44.15535" lon="5.65773">
        <ele>936.5</ele>
        <time>2019-11-10T09:41:37Z</time>
      </trkpt>
      <trkpt lat="44.15526" lon="5.65779">
        <ele>938.4</ele>
        <time>2019-11-10T09:41:46Z</time>
      </trkpt>
      <trkpt lat="44.15506" lon="5.65782">
        <ele>942.2</ele>
        <time>2019-11-10T09:42:08Z</time>
      </trkpt>
      <trkpt lat="44.15498" lon="5.65789">
        <ele>944.6</ele>
        <time>2019-11-10T09:42:18Z</time>
      </trkpt>
      <trkpt lat="44.15493" lon="5.658">
        <ele>946</ele>
        <time>2019-11-10T09:42:31Z</time>
      </trkpt>
      <trkpt lat="44.15495" lon="5.65812">
        <ele>947.6</ele>
        <time>2019-11-10T09:42:41Z</time>
      </trkpt>
      <trkpt lat="44.15495" lon="5.65825">
        <ele>949.1</ele>
        <time>2019-11-10T09:43:45Z</time>
      </trkpt>
      <trkpt lat="44.15479" lon="5.65812">
        <ele>956.2</ele>
        <time>2019-11-10T09:44:12Z</time>
      </trkpt>
      <trkpt lat="44.15476" lon="5.65825">
        <ele>959.7</ele>
        <time>2019-11-10T09:44:32Z</time>
      </trkpt>
      <trkpt lat="44.15474" lon="5.65838">
        <ele>960.9</ele>
        <time>2019-11-10T09:44:45Z</time>
      </trkpt>
      <trkpt lat="44.15472" lon="5.65851">
        <ele>963</ele>
        <time>2019-11-10T09:44:55Z</time>
      </trkpt>
      <trkpt lat="44.15459" lon="5.65834">
        <ele>969.7</ele>
        <time>2019-11-10T09:45:25Z</time>
      </trkpt>
      <trkpt lat="44.15453" lon="5.65825">
        <ele>972.5</ele>
        <time>2019-11-10T09:45:37Z</time>
      </trkpt>
      <trkpt lat="44.15447" lon="5.65835">
        <ele>975.6</ele>
        <time>2019-11-10T09:45:48Z</time>
      </trkpt>
      <trkpt lat="44.15447" lon="5.6585">
        <ele>978</ele>
        <time>2019-11-10T09:46:01Z</time>
      </trkpt>
      <trkpt lat="44.15444" lon="5.65876">
        <ele>981.5</ele>
        <time>2019-11-10T09:46:21Z</time>
      </trkpt>
      <trkpt lat="44.15441" lon="5.65889">
        <ele>983</ele>
        <time>2019-11-10T09:46:30Z</time>
      </trkpt>
      <trkpt lat="44.15435" lon="5.65899">
        <ele>985.4</ele>
        <time>2019-11-10T09:46:47Z</time>
      </trkpt>
      <trkpt lat="44.15429" lon="5.65909">
        <ele>987.3</ele>
        <time>2019-11-10T09:46:57Z</time>
      </trkpt>
      <trkpt lat="44.15421" lon="5.65918">
        <ele>989.8</ele>
        <time>2019-11-10T09:47:19Z</time>
      </trkpt>
      <trkpt lat="44.15403" lon="5.65923">
        <ele>994.7</ele>
        <time>2019-11-10T09:47:59Z</time>
      </trkpt>
      <trkpt lat="44.15397" lon="5.65913">
        <ele>998.4</ele>
        <time>2019-11-10T09:51:39Z</time>
      </trkpt>
      <trkpt lat="44.15404" lon="5.65888">
        <ele>1002.5</ele>
        <time>2019-11-10T09:51:59Z</time>
      </trkpt>
      <trkpt lat="44.15401" lon="5.65876">
        <ele>1003.6</ele>
        <time>2019-11-10T09:52:09Z</time>
      </trkpt>
      <trkpt lat="44.15399" lon="5.65863">
        <ele>1005.8</ele>
        <time>2019-11-10T09:52:22Z</time>
      </trkpt>
      <trkpt lat="44.15391" lon="5.65871">
        <ele>1011.1</ele>
        <time>2019-11-10T09:52:44Z</time>
      </trkpt>
      <trkpt lat="44.15377" lon="5.65871">
        <ele>1016.9</ele>
        <time>2019-11-10T09:53:06Z</time>
      </trkpt>
      <trkpt lat="44.15374" lon="5.65858">
        <ele>1019.4</ele>
        <time>2019-11-10T09:53:19Z</time>
      </trkpt>
      <trkpt lat="44.15366" lon="5.65861">
        <ele>1023.1</ele>
        <time>2019-11-10T09:53:43Z</time>
      </trkpt>
      <trkpt lat="44.15363" lon="5.65849">
        <ele>1025.8</ele>
        <time>2019-11-10T09:53:53Z</time>
      </trkpt>
      <trkpt lat="44.15359" lon="5.65823">
        <ele>1030.9</ele>
        <time>2019-11-10T09:54:25Z</time>
      </trkpt>
      <trkpt lat="44.15356" lon="5.65811">
        <ele>1034.2</ele>
        <time>2019-11-10T09:54:37Z</time>
      </trkpt>
      <trkpt lat="44.15346" lon="5.65811">
        <ele>1038</ele>
        <time>2019-11-10T09:54:52Z</time>
      </trkpt>
      <trkpt lat="44.15341" lon="5.65822">
        <ele>1040.3</ele>
        <time>2019-11-10T09:55:03Z</time>
      </trkpt>
      <trkpt lat="44.15327" lon="5.65827">
        <ele>1046.6</ele>
        <time>2019-11-10T09:55:47Z</time>
      </trkpt>
      <trkpt lat="44.15324" lon="5.65815">
        <ele>1049</ele>
        <time>2019-11-10T09:55:57Z</time>
      </trkpt>
      <trkpt lat="44.15322" lon="5.65802">
        <ele>1051.3</ele>
        <time>2019-11-10T09:56:09Z</time>
      </trkpt>
      <trkpt lat="44.1531" lon="5.65784">
        <ele>1059.2</ele>
        <time>2019-11-10T09:56:52Z</time>
      </trkpt>
      <trkpt lat="44.15304" lon="5.65772">
        <ele>1062.3</ele>
        <time>2019-11-10T09:57:08Z</time>
      </trkpt>
      <trkpt lat="44.15295" lon="5.65777">
        <ele>1066.5</ele>
        <time>2019-11-10T09:57:26Z</time>
      </trkpt>
      <trkpt lat="44.15273" lon="5.65805">
        <ele>1074.5</ele>
        <time>2019-11-10T10:00:31Z</time>
      </trkpt>
      <trkpt lat="44.15264" lon="5.65807">
        <ele>1077.6</ele>
        <time>2019-11-10T10:00:42Z</time>
      </trkpt>
      <trkpt lat="44.15265" lon="5.65794">
        <ele>1079.3</ele>
        <time>2019-11-10T10:00:50Z</time>
      </trkpt>
      <trkpt lat="44.15263" lon="5.65781">
        <ele>1081.2</ele>
        <time>2019-11-10T10:01:01Z</time>
      </trkpt>
      <trkpt lat="44.15254" lon="5.65779">
        <ele>1087</ele>
        <time>2019-11-10T10:01:41Z</time>
      </trkpt>
      <trkpt lat="44.15238" lon="5.65794">
        <ele>1092.4</ele>
        <time>2019-11-10T10:02:04Z</time>
      </trkpt>
      <trkpt lat="44.1523" lon="5.65799">
        <ele>1095.4</ele>
        <time>2019-11-10T10:02:14Z</time>
      </trkpt>
      <trkpt lat="44.15223" lon="5.65808">
        <ele>1097.3</ele>
        <time>2019-11-10T10:02:24Z</time>
      </trkpt>
      <trkpt lat="44.15215" lon="5.65816">
        <ele>1099.8</ele>
        <time>2019-11-10T10:02:49Z</time>
      </trkpt>
      <trkpt lat="44.15199" lon="5.65829">
        <ele>1105.8</ele>
        <time>2019-11-10T10:03:28Z</time>
      </trkpt>
      <trkpt lat="44.1519" lon="5.65833">
        <ele>1107.8</ele>
        <time>2019-11-10T10:03:37Z</time>
      </trkpt>
      <trkpt lat="44.15182" lon="5.6584">
        <ele>1109.9</ele>
        <time>2019-11-10T10:03:47Z</time>
      </trkpt>
      <trkpt lat="44.15173" lon="5.65845">
        <ele>1111.7</ele>
        <time>2019-11-10T10:03:54Z</time>
      </trkpt>
      <trkpt lat="44.1516" lon="5.65864">
        <ele>1114.8</ele>
        <time>2019-11-10T10:04:13Z</time>
      </trkpt>
      <trkpt lat="44.15151" lon="5.65866">
        <ele>1116.6</ele>
        <time>2019-11-10T10:04:34Z</time>
      </trkpt>
      <trkpt lat="44.15142" lon="5.65869">
        <ele>1120.2</ele>
        <time>2019-11-10T10:04:47Z</time>
      </trkpt>
      <trkpt lat="44.15131" lon="5.65869">
        <ele>1122.5</ele>
        <time>2019-11-10T10:05:02Z</time>
      </trkpt>
      <trkpt lat="44.15114" lon="5.65883">
        <ele>1129.7</ele>
        <time>2019-11-10T10:05:37Z</time>
      </trkpt>
      <trkpt lat="44.15107" lon="5.6589">
        <ele>1132.1</ele>
        <time>2019-11-10T10:05:45Z</time>
      </trkpt>
      <trkpt lat="44.15105" lon="5.65903">
        <ele>1135.9</ele>
        <time>2019-11-10T10:06:05Z</time>
      </trkpt>
      <trkpt lat="44.15091" lon="5.65891">
        <ele>1140.4</ele>
        <time>2019-11-10T10:06:30Z</time>
      </trkpt>
      <trkpt lat="44.15086" lon="5.65879">
        <ele>1143</ele>
        <time>2019-11-10T10:06:43Z</time>
      </trkpt>
      <trkpt lat="44.15085" lon="5.65893">
        <ele>1149</ele>
        <time>2019-11-10T10:07:30Z</time>
      </trkpt>
      <trkpt lat="44.15072" lon="5.65905">
        <ele>1154.4</ele>
        <time>2019-11-10T10:07:54Z</time>
      </trkpt>
      <trkpt lat="44.15066" lon="5.65893">
        <ele>1157.1</ele>
        <time>2019-11-10T10:08:07Z</time>
      </trkpt>
      <trkpt lat="44.15063" lon="5.65881">
        <ele>1158.6</ele>
        <time>2019-11-10T10:08:21Z</time>
      </trkpt>
      <trkpt lat="44.1506" lon="5.65869">
        <ele>1160.5</ele>
        <time>2019-11-10T10:08:33Z</time>
      </trkpt>
      <trkpt lat="44.15052" lon="5.6588">
        <ele>1168.4</ele>
        <time>2019-11-10T10:11:26Z</time>
      </trkpt>
      <trkpt lat="44.15046" lon="5.65891">
        <ele>1171.6</ele>
        <time>2019-11-10T10:11:37Z</time>
      </trkpt>
      <trkpt lat="44.1504" lon="5.65901">
        <ele>1173.7</ele>
        <time>2019-11-10T10:11:49Z</time>
      </trkpt>
      <trkpt lat="44.15031" lon="5.65924">
        <ele>1177.9</ele>
        <time>2019-11-10T10:12:12Z</time>
      </trkpt>
      <trkpt lat="44.1503" lon="5.65938">
        <ele>1180.5</ele>
        <time>2019-11-10T10:12:23Z</time>
      </trkpt>
      <trkpt lat="44.15027" lon="5.6595">
        <ele>1182.5</ele>
        <time>2019-11-10T10:12:34Z</time>
      </trkpt>
      <trkpt lat="44.15025" lon="5.65963">
        <ele>1184.5</ele>
        <time>2019-11-10T10:12:46Z</time>
      </trkpt>
      <trkpt lat="44.15016" lon="5.65957">
        <ele>1187.5</ele>
        <time>2019-11-10T10:13:00Z</time>
      </trkpt>
      <trkpt lat="44.1501" lon="5.6596">
        <ele>1192.7</ele>
        <time>2019-11-10T10:13:28Z</time>
      </trkpt>
      <trkpt lat="44.15009" lon="5.65973">
        <ele>1195.4</ele>
        <time>2019-11-10T10:13:44Z</time>
      </trkpt>
      <trkpt lat="44.15004" lon="5.65984">
        <ele>1197.8</ele>
        <time>2019-11-10T10:14:16Z</time>
      </trkpt>
      <trkpt lat="44.14995" lon="5.66008">
        <ele>1201.1</ele>
        <time>2019-11-10T10:14:37Z</time>
      </trkpt>
      <trkpt lat="44.14989" lon="5.66018">
        <ele>1203.3</ele>
        <time>2019-11-10T10:14:48Z</time>
      </trkpt>
      <trkpt lat="44.1498" lon="5.66016">
        <ele>1206.5</ele>
        <time>2019-11-10T10:15:04Z</time>
      </trkpt>
      <trkpt lat="44.14974" lon="5.66006">
        <ele>1208.6</ele>
        <time>2019-11-10T10:15:15Z</time>
      </trkpt>
      <trkpt lat="44.14973" lon="5.65993">
        <ele>1210.1</ele>
        <time>2019-11-10T10:15:23Z</time>
      </trkpt>
      <trkpt lat="44.14972" lon="5.65966">
        <ele>1212.7</ele>
        <time>2019-11-10T10:15:43Z</time>
      </trkpt>
      <trkpt lat="44.14968" lon="5.65979">
        <ele>1218</ele>
        <time>2019-11-10T10:16:08Z</time>
      </trkpt>
      <trkpt lat="44.14963" lon="5.65991">
        <ele>1220.5</ele>
        <time>2019-11-10T10:16:22Z</time>
      </trkpt>
      <trkpt lat="44.14958" lon="5.66002">
        <ele>1222.2</ele>
        <time>2019-11-10T10:16:32Z</time>
      </trkpt>
      <trkpt lat="44.14946" lon="5.66021">
        <ele>1225.3</ele>
        <time>2019-11-10T10:16:52Z</time>
      </trkpt>
      <trkpt lat="44.1494" lon="5.66032">
        <ele>1226.8</ele>
        <time>2019-11-10T10:17:03Z</time>
      </trkpt>
      <trkpt lat="44.14934" lon="5.66041">
        <ele>1228.5</ele>
        <time>2019-11-10T10:17:16Z</time>
      </trkpt>
      <trkpt lat="44.14933" lon="5.66054">
        <ele>1230.6</ele>
        <time>2019-11-10T10:17:46Z</time>
      </trkpt>
      <trkpt lat="44.14923" lon="5.66079">
        <ele>1235.5</ele>
        <time>2019-11-10T10:18:10Z</time>
      </trkpt>
      <trkpt lat="44.14922" lon="5.66091">
        <ele>1238.3</ele>
        <time>2019-11-10T10:18:23Z</time>
      </trkpt>
      <trkpt lat="44.1492" lon="5.66104">
        <ele>1240.6</ele>
        <time>2019-11-10T10:19:19Z</time>
      </trkpt>
      <trkpt lat="44.14916" lon="5.6613">
        <ele>1245.5</ele>
        <time>2019-11-10T10:19:40Z</time>
      </trkpt>
      <trkpt lat="44.14912" lon="5.66142">
        <ele>1249.1</ele>
        <time>2019-11-10T10:19:55Z</time>
      </trkpt>
      <trkpt lat="44.14911" lon="5.66154">
        <ele>1251.1</ele>
        <time>2019-11-10T10:20:05Z</time>
      </trkpt>
      <trkpt lat="44.14909" lon="5.66167">
        <ele>1252.5</ele>
        <time>2019-11-10T10:20:15Z</time>
      </trkpt>
      <trkpt lat="44.14909" lon="5.66181">
        <ele>1255.9</ele>
        <time>2019-11-10T10:20:33Z</time>
      </trkpt>
      <trkpt lat="44.14896" lon="5.66186">
        <ele>1263.3</ele>
        <time>2019-11-10T10:21:18Z</time>
      </trkpt>
      <trkpt lat="44.14891" lon="5.66176">
        <ele>1266.4</ele>
        <time>2019-11-10T10:21:35Z</time>
      </trkpt>
      <trkpt lat="44.1488" lon="5.66154">
        <ele>1272.5</ele>
        <time>2019-11-10T10:22:05Z</time>
      </trkpt>
      <trkpt lat="44.14875" lon="5.66143">
        <ele>1275.4</ele>
        <time>2019-11-10T10:22:21Z</time>
      </trkpt>
      <trkpt lat="44.14869" lon="5.66132">
        <ele>1278.6</ele>
        <time>2019-11-10T10:22:52Z</time>
      </trkpt>
      <trkpt lat="44.14855" lon="5.66113">
        <ele>1284.4</ele>
        <time>2019-11-10T10:23:16Z</time>
      </trkpt>
      <trkpt lat="44.14847" lon="5.66109">
        <ele>1288.6</ele>
        <time>2019-11-10T10:23:34Z</time>
      </trkpt>
      <trkpt lat="44.14839" lon="5.66117">
        <ele>1294.4</ele>
        <time>2019-11-10T10:24:04Z</time>
      </trkpt>
      <trkpt lat="44.1484" lon="5.66143">
        <ele>1300.5</ele>
        <time>2019-11-10T10:24:35Z</time>
      </trkpt>
      <trkpt lat="44.14842" lon="5.66156">
        <ele>1301.5</ele>
        <time>2019-11-10T10:24:47Z</time>
      </trkpt>
      <trkpt lat="44.14843" lon="5.66169">
        <ele>1303.7</ele>
        <time>2019-11-10T10:25:00Z</time>
      </trkpt>
      <trkpt lat="44.14834" lon="5.66163">
        <ele>1307.1</ele>
        <time>2019-11-10T10:25:19Z</time>
      </trkpt>
      <trkpt lat="44.14825" lon="5.66185">
        <ele>1310.5</ele>
        <time>2019-11-10T10:28:11Z</time>
      </trkpt>
      <trkpt lat="44.1481" lon="5.662">
        <ele>1308.6</ele>
        <time>2019-11-10T10:28:56Z</time>
      </trkpt>
      <trkpt lat="44.14807" lon="5.66212">
        <ele>1310.7</ele>
        <time>2019-11-10T10:29:05Z</time>
      </trkpt>
      <trkpt lat="44.14804" lon="5.66224">
        <ele>1311.3</ele>
        <time>2019-11-10T10:29:14Z</time>
      </trkpt>
      <trkpt lat="44.14804" lon="5.66251">
        <ele>1313.1</ele>
        <time>2019-11-10T10:29:32Z</time>
      </trkpt>
      <trkpt lat="44.14804" lon="5.66264">
        <ele>1314.1</ele>
        <time>2019-11-10T10:29:41Z</time>
      </trkpt>
      <trkpt lat="44.14807" lon="5.66276">
        <ele>1315.3</ele>
        <time>2019-11-10T10:29:59Z</time>
      </trkpt>
      <trkpt lat="44.14809" lon="5.6629">
        <ele>1316.1</ele>
        <time>2019-11-10T10:30:33Z</time>
      </trkpt>
      <trkpt lat="44.14814" lon="5.66314">
        <ele>1319.6</ele>
        <time>2019-11-10T10:30:47Z</time>
      </trkpt>
      <trkpt lat="44.14812" lon="5.66327">
        <ele>1320.3</ele>
        <time>2019-11-10T10:30:54Z</time>
      </trkpt>
      <trkpt lat="44.14811" lon="5.66339">
        <ele>1321.5</ele>
        <time>2019-11-10T10:31:01Z</time>
      </trkpt>
      <trkpt lat="44.14811" lon="5.66353">
        <ele>1323</ele>
        <time>2019-11-10T10:31:09Z</time>
      </trkpt>
      <trkpt lat="44.14811" lon="5.66366">
        <ele>1324</ele>
        <time>2019-11-10T10:31:16Z</time>
      </trkpt>
      <trkpt lat="44.14808" lon="5.66379">
        <ele>1325.9</ele>
        <time>2019-11-10T10:31:23Z</time>
      </trkpt>
      <trkpt lat="44.14809" lon="5.66392">
        <ele>1327.2</ele>
        <time>2019-11-10T10:31:30Z</time>
      </trkpt>
      <trkpt lat="44.1481" lon="5.66406">
        <ele>1328.8</ele>
        <time>2019-11-10T10:31:37Z</time>
      </trkpt>
      <trkpt lat="44.1481" lon="5.66433">
        <ele>1332.2</ele>
        <time>2019-11-10T10:31:51Z</time>
      </trkpt>
      <trkpt lat="44.14811" lon="5.66445">
        <ele>1333.7</ele>
        <time>2019-11-10T10:31:58Z</time>
      </trkpt>
      <trkpt lat="44.14811" lon="5.66459">
        <ele>1335.2</ele>
        <time>2019-11-10T10:32:06Z</time>
      </trkpt>
      <trkpt lat="44.14811" lon="5.66472">
        <ele>1336.8</ele>
        <time>2019-11-10T10:32:14Z</time>
      </trkpt>
      <trkpt lat="44.14812" lon="5.66486">
        <ele>1338.4</ele>
        <time>2019-11-10T10:32:22Z</time>
      </trkpt>
      <trkpt lat="44.14812" lon="5.66502">
        <ele>1339.7</ele>
        <time>2019-11-10T10:32:30Z</time>
      </trkpt>
      <trkpt lat="44.14813" lon="5.66515">
        <ele>1341</ele>
        <time>2019-11-10T10:32:35Z</time>
      </trkpt>
      <trkpt lat="44.14815" lon="5.66529">
        <ele>1342</ele>
        <time>2019-11-10T10:32:42Z</time>
      </trkpt>
      <trkpt lat="44.14819" lon="5.66554">
        <ele>1343.6</ele>
        <time>2019-11-10T10:32:56Z</time>
      </trkpt>
      <trkpt lat="44.14821" lon="5.66568">
        <ele>1344.9</ele>
        <time>2019-11-10T10:33:03Z</time>
      </trkpt>
      <trkpt lat="44.14824" lon="5.6658">
        <ele>1346.1</ele>
        <time>2019-11-10T10:33:10Z</time>
      </trkpt>
      <trkpt lat="44.14828" lon="5.66593">
        <ele>1346.7</ele>
        <time>2019-11-10T10:33:18Z</time>
      </trkpt>
      <trkpt lat="44.14832" lon="5.66605">
        <ele>1348.5</ele>
        <time>2019-11-10T10:33:25Z</time>
      </trkpt>
      <trkpt lat="44.14837" lon="5.66616">
        <ele>1349.7</ele>
        <time>2019-11-10T10:33:33Z</time>
      </trkpt>
      <trkpt lat="44.14839" lon="5.6663">
        <ele>1350.8</ele>
        <time>2019-11-10T10:33:41Z</time>
      </trkpt>
      <trkpt lat="44.14843" lon="5.66642">
        <ele>1352.3</ele>
        <time>2019-11-10T10:33:48Z</time>
      </trkpt>
      <trkpt lat="44.14853" lon="5.66666">
        <ele>1355.1</ele>
        <time>2019-11-10T10:34:03Z</time>
      </trkpt>
      <trkpt lat="44.14856" lon="5.66678">
        <ele>1356.8</ele>
        <time>2019-11-10T10:34:10Z</time>
      </trkpt>
      <trkpt lat="44.14859" lon="5.66692">
        <ele>1358</ele>
        <time>2019-11-10T10:34:18Z</time>
      </trkpt>
      <trkpt lat="44.1486" lon="5.66706">
        <ele>1359.6</ele>
        <time>2019-11-10T10:34:26Z</time>
      </trkpt>
      <trkpt lat="44.14861" lon="5.66719">
        <ele>1361.7</ele>
        <time>2019-11-10T10:34:34Z</time>
      </trkpt>
      <trkpt lat="44.14861" lon="5.66733">
        <ele>1363.5</ele>
        <time>2019-11-10T10:34:42Z</time>
      </trkpt>
      <trkpt lat="44.14859" lon="5.66746">
        <ele>1364.5</ele>
        <time>2019-11-10T10:34:49Z</time>
      </trkpt>
      <trkpt lat="44.14858" lon="5.66774">
        <ele>1367.2</ele>
        <time>2019-11-10T10:35:01Z</time>
      </trkpt>
      <trkpt lat="44.14856" lon="5.66788">
        <ele>1369.1</ele>
        <time>2019-11-10T10:35:27Z</time>
      </trkpt>
      <trkpt lat="44.14859" lon="5.66802">
        <ele>1371.9</ele>
        <time>2019-11-10T10:38:09Z</time>
      </trkpt>
      <trkpt lat="44.14861" lon="5.66829">
        <ele>1376.2</ele>
        <time>2019-11-10T10:38:25Z</time>
      </trkpt>
      <trkpt lat="44.14856" lon="5.66841">
        <ele>1377.2</ele>
        <time>2019-11-10T10:38:33Z</time>
      </trkpt>
      <trkpt lat="44.14851" lon="5.66852">
        <ele>1378.6</ele>
        <time>2019-11-10T10:38:40Z</time>
      </trkpt>
      <trkpt lat="44.14847" lon="5.66865">
        <ele>1380.3</ele>
        <time>2019-11-10T10:38:49Z</time>
      </trkpt>
      <trkpt lat="44.14842" lon="5.66876">
        <ele>1381.6</ele>
        <time>2019-11-10T10:38:56Z</time>
      </trkpt>
      <trkpt lat="44.14835" lon="5.66886">
        <ele>1382.6</ele>
        <time>2019-11-10T10:39:02Z</time>
      </trkpt>
      <trkpt lat="44.14832" lon="5.66898">
        <ele>1383.9</ele>
        <time>2019-11-10T10:39:10Z</time>
      </trkpt>
      <trkpt lat="44.14824" lon="5.66923">
        <ele>1387.9</ele>
        <time>2019-11-10T10:39:25Z</time>
      </trkpt>
      <trkpt lat="44.14819" lon="5.66935">
        <ele>1388.9</ele>
        <time>2019-11-10T10:39:32Z</time>
      </trkpt>
      <trkpt lat="44.14814" lon="5.66946">
        <ele>1389.9</ele>
        <time>2019-11-10T10:39:38Z</time>
      </trkpt>
      <trkpt lat="44.14807" lon="5.66955">
        <ele>1390.2</ele>
        <time>2019-11-10T10:39:45Z</time>
      </trkpt>
      <trkpt lat="44.148" lon="5.66965">
        <ele>1389.6</ele>
        <time>2019-11-10T10:39:53Z</time>
      </trkpt>
      <trkpt lat="44.14791" lon="5.66971">
        <ele>1388.8</ele>
        <time>2019-11-10T10:40:01Z</time>
      </trkpt>
      <trkpt lat="44.14781" lon="5.66974">
        <ele>1387.2</ele>
        <time>2019-11-10T10:40:08Z</time>
      </trkpt>
      <trkpt lat="44.14774" lon="5.66984">
        <ele>1385.6</ele>
        <time>2019-11-10T10:40:17Z</time>
      </trkpt>
      <trkpt lat="44.14766" lon="5.67009">
        <ele>1385.1</ele>
        <time>2019-11-10T10:40:30Z</time>
      </trkpt>
      <trkpt lat="44.14761" lon="5.6702">
        <ele>1384.1</ele>
        <time>2019-11-10T10:40:41Z</time>
      </trkpt>
      <trkpt lat="44.14758" lon="5.67032">
        <ele>1383.9</ele>
        <time>2019-11-10T10:40:53Z</time>
      </trkpt>
      <trkpt lat="44.14751" lon="5.67041">
        <ele>1382.5</ele>
        <time>2019-11-10T10:41:01Z</time>
      </trkpt>
      <trkpt lat="44.14745" lon="5.67052">
        <ele>1381.1</ele>
        <time>2019-11-10T10:41:09Z</time>
      </trkpt>
      <trkpt lat="44.14745" lon="5.67065">
        <ele>1380.7</ele>
        <time>2019-11-10T10:41:17Z</time>
      </trkpt>
      <trkpt lat="44.1474" lon="5.67075">
        <ele>1380.5</ele>
        <time>2019-11-10T10:41:24Z</time>
      </trkpt>
      <trkpt lat="44.14725" lon="5.6709">
        <ele>1377.5</ele>
        <time>2019-11-10T10:41:40Z</time>
      </trkpt>
      <trkpt lat="44.1472" lon="5.67102">
        <ele>1376.9</ele>
        <time>2019-11-10T10:41:47Z</time>
      </trkpt>
      <trkpt lat="44.14718" lon="5.67115">
        <ele>1377.6</ele>
        <time>2019-11-10T10:41:54Z</time>
      </trkpt>
      <trkpt lat="44.14712" lon="5.67125">
        <ele>1378.7</ele>
        <time>2019-11-10T10:42:02Z</time>
      </trkpt>
      <trkpt lat="44.14703" lon="5.67132">
        <ele>1378.5</ele>
        <time>2019-11-10T10:42:09Z</time>
      </trkpt>
      <trkpt lat="44.14694" lon="5.67136">
        <ele>1378.5</ele>
        <time>2019-11-10T10:42:17Z</time>
      </trkpt>
      <trkpt lat="44.14686" lon="5.67144">
        <ele>1379.1</ele>
        <time>2019-11-10T10:42:29Z</time>
      </trkpt>
      <trkpt lat="44.14671" lon="5.67159">
        <ele>1380.7</ele>
        <time>2019-11-10T10:42:43Z</time>
      </trkpt>
      <trkpt lat="44.14664" lon="5.67168">
        <ele>1383.1</ele>
        <time>2019-11-10T10:42:53Z</time>
      </trkpt>
      <trkpt lat="44.14657" lon="5.67176">
        <ele>1384</ele>
        <time>2019-11-10T10:43:00Z</time>
      </trkpt>
      <trkpt lat="44.14648" lon="5.67179">
        <ele>1384.9</ele>
        <time>2019-11-10T10:43:09Z</time>
      </trkpt>
      <trkpt lat="44.14637" lon="5.67179">
        <ele>1385.4</ele>
        <time>2019-11-10T10:43:16Z</time>
      </trkpt>
      <trkpt lat="44.14628" lon="5.67175">
        <ele>1385.6</ele>
        <time>2019-11-10T10:43:23Z</time>
      </trkpt>
      <trkpt lat="44.14618" lon="5.67176">
        <ele>1385.5</ele>
        <time>2019-11-10T10:43:31Z</time>
      </trkpt>
      <trkpt lat="44.14598" lon="5.67178">
        <ele>1385.9</ele>
        <time>2019-11-10T10:43:48Z</time>
      </trkpt>
      <trkpt lat="44.14588" lon="5.67175">
        <ele>1385.8</ele>
        <time>2019-11-10T10:43:55Z</time>
      </trkpt>
      <trkpt lat="44.14577" lon="5.67175">
        <ele>1384.3</ele>
        <time>2019-11-10T10:44:01Z</time>
      </trkpt>
      <trkpt lat="44.14568" lon="5.67174">
        <ele>1384.3</ele>
        <time>2019-11-10T10:44:08Z</time>
      </trkpt>
      <trkpt lat="44.14559" lon="5.67175">
        <ele>1384.6</ele>
        <time>2019-11-10T10:44:16Z</time>
      </trkpt>
      <trkpt lat="44.1455" lon="5.67174">
        <ele>1383.8</ele>
        <time>2019-11-10T10:44:24Z</time>
      </trkpt>
      <trkpt lat="44.1454" lon="5.67178">
        <ele>1383.9</ele>
        <time>2019-11-10T10:44:28Z</time>
      </trkpt>
      <trkpt lat="44.14531" lon="5.67182">
        <ele>1384.5</ele>
        <time>2019-11-10T10:44:34Z</time>
      </trkpt>
      <trkpt lat="44.14512" lon="5.67187">
        <ele>1386.7</ele>
        <time>2019-11-10T10:44:50Z</time>
      </trkpt>
      <trkpt lat="44.14502" lon="5.67189">
        <ele>1388.1</ele>
        <time>2019-11-10T10:44:57Z</time>
      </trkpt>
      <trkpt lat="44.14493" lon="5.67192">
        <ele>1388.4</ele>
        <time>2019-11-10T10:45:04Z</time>
      </trkpt>
      <trkpt lat="44.14484" lon="5.67195">
        <ele>1390.5</ele>
        <time>2019-11-10T10:45:14Z</time>
      </trkpt>
      <trkpt lat="44.14475" lon="5.67197">
        <ele>1391.9</ele>
        <time>2019-11-10T10:46:14Z</time>
      </trkpt>
      <trkpt lat="44.14453" lon="5.67185">
        <ele>1387</ele>
        <time>2019-11-10T10:48:15Z</time>
      </trkpt>
      <trkpt lat="44.1445" lon="5.67196">
        <ele>1390.2</ele>
        <time>2019-11-10T10:48:28Z</time>
      </trkpt>
      <trkpt lat="44.14431" lon="5.67199">
        <ele>1392</ele>
        <time>2019-11-10T10:48:50Z</time>
      </trkpt>
      <trkpt lat="44.14421" lon="5.672">
        <ele>1392.2</ele>
        <time>2019-11-10T10:48:59Z</time>
      </trkpt>
      <trkpt lat="44.14411" lon="5.67204">
        <ele>1392.5</ele>
        <time>2019-11-10T10:49:07Z</time>
      </trkpt>
      <trkpt lat="44.14402" lon="5.67207">
        <ele>1392.9</ele>
        <time>2019-11-10T10:49:14Z</time>
      </trkpt>
      <trkpt lat="44.14392" lon="5.67207">
        <ele>1392.7</ele>
        <time>2019-11-10T10:49:23Z</time>
      </trkpt>
      <trkpt lat="44.14383" lon="5.67205">
        <ele>1392.5</ele>
        <time>2019-11-10T10:49:32Z</time>
      </trkpt>
      <trkpt lat="44.14365" lon="5.67205">
        <ele>1390.8</ele>
        <time>2019-11-10T10:49:48Z</time>
      </trkpt>
      <trkpt lat="44.14356" lon="5.6721">
        <ele>1391.9</ele>
        <time>2019-11-10T10:49:56Z</time>
      </trkpt>
      <trkpt lat="44.14346" lon="5.6721">
        <ele>1392.3</ele>
        <time>2019-11-10T10:50:05Z</time>
      </trkpt>
      <trkpt lat="44.14337" lon="5.67208">
        <ele>1391.2</ele>
        <time>2019-11-10T10:50:14Z</time>
      </trkpt>
      <trkpt lat="44.14328" lon="5.67206">
        <ele>1390.2</ele>
        <time>2019-11-10T10:50:21Z</time>
      </trkpt>
      <trkpt lat="44.14318" lon="5.67206">
        <ele>1390.3</ele>
        <time>2019-11-10T10:50:28Z</time>
      </trkpt>
      <trkpt lat="44.14309" lon="5.67208">
        <ele>1390</ele>
        <time>2019-11-10T10:50:36Z</time>
      </trkpt>
      <trkpt lat="44.14289" lon="5.67207">
        <ele>1388.2</ele>
        <time>2019-11-10T10:50:53Z</time>
      </trkpt>
      <trkpt lat="44.14279" lon="5.67209">
        <ele>1387.5</ele>
        <time>2019-11-10T10:51:01Z</time>
      </trkpt>
      <trkpt lat="44.14271" lon="5.67216">
        <ele>1388.3</ele>
        <time>2019-11-10T10:51:09Z</time>
      </trkpt>
      <trkpt lat="44.14262" lon="5.67222">
        <ele>1389.5</ele>
        <time>2019-11-10T10:51:19Z</time>
      </trkpt>
      <trkpt lat="44.14252" lon="5.67224">
        <ele>1389</ele>
        <time>2019-11-10T10:51:27Z</time>
      </trkpt>
      <trkpt lat="44.14243" lon="5.67227">
        <ele>1388.6</ele>
        <time>2019-11-10T10:51:36Z</time>
      </trkpt>
      <trkpt lat="44.14236" lon="5.67235">
        <ele>1389.7</ele>
        <time>2019-11-10T10:51:45Z</time>
      </trkpt>
      <trkpt lat="44.14218" lon="5.67244">
        <ele>1391.3</ele>
        <time>2019-11-10T10:52:02Z</time>
      </trkpt>
      <trkpt lat="44.14209" lon="5.67247">
        <ele>1391.6</ele>
        <time>2019-11-10T10:52:10Z</time>
      </trkpt>
      <trkpt lat="44.14199" lon="5.67251">
        <ele>1392</ele>
        <time>2019-11-10T10:52:19Z</time>
      </trkpt>
      <trkpt lat="44.1419" lon="5.67253">
        <ele>1392.2</ele>
        <time>2019-11-10T10:52:27Z</time>
      </trkpt>
      <trkpt lat="44.14182" lon="5.6726">
        <ele>1393</ele>
        <time>2019-11-10T10:52:36Z</time>
      </trkpt>
      <trkpt lat="44.14171" lon="5.67266">
        <ele>1393.8</ele>
        <time>2019-11-10T10:53:25Z</time>
      </trkpt>
      <trkpt lat="44.14151" lon="5.67261">
        <ele>1391.7</ele>
        <time>2019-11-10T10:54:20Z</time>
      </trkpt>
      <trkpt lat="44.14141" lon="5.6726">
        <ele>1391.1</ele>
        <time>2019-11-10T10:54:27Z</time>
      </trkpt>
      <trkpt lat="44.14123" lon="5.67251">
        <ele>1390.2</ele>
        <time>2019-11-10T10:54:40Z</time>
      </trkpt>
      <trkpt lat="44.14114" lon="5.67246">
        <ele>1389.1</ele>
        <time>2019-11-10T10:54:48Z</time>
      </trkpt>
      <trkpt lat="44.14106" lon="5.67239">
        <ele>1387.1</ele>
        <time>2019-11-10T10:54:56Z</time>
      </trkpt>
      <trkpt lat="44.14097" lon="5.67237">
        <ele>1386.3</ele>
        <time>2019-11-10T10:55:02Z</time>
      </trkpt>
      <trkpt lat="44.14086" lon="5.67238">
        <ele>1386.4</ele>
        <time>2019-11-10T10:55:09Z</time>
      </trkpt>
      <trkpt lat="44.14076" lon="5.6724">
        <ele>1386.4</ele>
        <time>2019-11-10T10:55:15Z</time>
      </trkpt>
      <trkpt lat="44.14066" lon="5.67241">
        <ele>1386.4</ele>
        <time>2019-11-10T10:55:22Z</time>
      </trkpt>
      <trkpt lat="44.14057" lon="5.67241">
        <ele>1385.8</ele>
        <time>2019-11-10T10:55:29Z</time>
      </trkpt>
      <trkpt lat="44.14038" lon="5.67235">
        <ele>1383.7</ele>
        <time>2019-11-10T10:55:42Z</time>
      </trkpt>
      <trkpt lat="44.14029" lon="5.67234">
        <ele>1383.5</ele>
        <time>2019-11-10T10:55:49Z</time>
      </trkpt>
      <trkpt lat="44.14019" lon="5.67234">
        <ele>1382.6</ele>
        <time>2019-11-10T10:55:56Z</time>
      </trkpt>
      <trkpt lat="44.14009" lon="5.67237">
        <ele>1382.4</ele>
        <time>2019-11-10T10:56:04Z</time>
      </trkpt>
      <trkpt lat="44.13998" lon="5.67237">
        <ele>1381.6</ele>
        <time>2019-11-10T10:56:12Z</time>
      </trkpt>
      <trkpt lat="44.13989" lon="5.67236">
        <ele>1380.6</ele>
        <time>2019-11-10T10:56:18Z</time>
      </trkpt>
      <trkpt lat="44.1398" lon="5.67239">
        <ele>1380.2</ele>
        <time>2019-11-10T10:56:26Z</time>
      </trkpt>
      <trkpt lat="44.13969" lon="5.67242">
        <ele>1379.8</ele>
        <time>2019-11-10T10:56:34Z</time>
      </trkpt>
      <trkpt lat="44.13954" lon="5.67259">
        <ele>1378.7</ele>
        <time>2019-11-10T10:56:48Z</time>
      </trkpt>
      <trkpt lat="44.13947" lon="5.67268">
        <ele>1377.1</ele>
        <time>2019-11-10T10:56:57Z</time>
      </trkpt>
      <trkpt lat="44.13941" lon="5.6728">
        <ele>1375.3</ele>
        <time>2019-11-10T10:57:06Z</time>
      </trkpt>
      <trkpt lat="44.13939" lon="5.67293">
        <ele>1374.4</ele>
        <time>2019-11-10T10:57:14Z</time>
      </trkpt>
      <trkpt lat="44.13935" lon="5.67306">
        <ele>1373.3</ele>
        <time>2019-11-10T10:57:22Z</time>
      </trkpt>
      <trkpt lat="44.13932" lon="5.67318">
        <ele>1371.8</ele>
        <time>2019-11-10T10:57:28Z</time>
      </trkpt>
      <trkpt lat="44.13927" lon="5.6733">
        <ele>1372.1</ele>
        <time>2019-11-10T10:57:35Z</time>
      </trkpt>
      <trkpt lat="44.13911" lon="5.67343">
        <ele>1373</ele>
        <time>2019-11-10T10:57:48Z</time>
      </trkpt>
      <trkpt lat="44.13902" lon="5.6734">
        <ele>1371.9</ele>
        <time>2019-11-10T10:57:55Z</time>
      </trkpt>
      <trkpt lat="44.13893" lon="5.67334">
        <ele>1370.1</ele>
        <time>2019-11-10T10:58:01Z</time>
      </trkpt>
      <trkpt lat="44.13884" lon="5.6733">
        <ele>1369</ele>
        <time>2019-11-10T10:58:08Z</time>
      </trkpt>
      <trkpt lat="44.13875" lon="5.67331">
        <ele>1368</ele>
        <time>2019-11-10T10:58:14Z</time>
      </trkpt>
      <trkpt lat="44.13866" lon="5.67335">
        <ele>1367.4</ele>
        <time>2019-11-10T10:58:21Z</time>
      </trkpt>
      <trkpt lat="44.13857" lon="5.67339">
        <ele>1367</ele>
        <time>2019-11-10T10:58:29Z</time>
      </trkpt>
      <trkpt lat="44.13846" lon="5.6734">
        <ele>1365.8</ele>
        <time>2019-11-10T10:58:38Z</time>
      </trkpt>
      <trkpt lat="44.13827" lon="5.67344">
        <ele>1364.6</ele>
        <time>2019-11-10T10:58:51Z</time>
      </trkpt>
      <trkpt lat="44.13817" lon="5.67348">
        <ele>1363.9</ele>
        <time>2019-11-10T10:58:58Z</time>
      </trkpt>
      <trkpt lat="44.13807" lon="5.67349">
        <ele>1362.6</ele>
        <time>2019-11-10T10:59:05Z</time>
      </trkpt>
      <trkpt lat="44.13798" lon="5.67351">
        <ele>1362.3</ele>
        <time>2019-11-10T10:59:11Z</time>
      </trkpt>
      <trkpt lat="44.13789" lon="5.67353">
        <ele>1361.4</ele>
        <time>2019-11-10T10:59:17Z</time>
      </trkpt>
      <trkpt lat="44.13779" lon="5.67358">
        <ele>1361</ele>
        <time>2019-11-10T10:59:24Z</time>
      </trkpt>
      <trkpt lat="44.13769" lon="5.67361">
        <ele>1359.9</ele>
        <time>2019-11-10T10:59:31Z</time>
      </trkpt>
      <trkpt lat="44.13761" lon="5.67365">
        <ele>1359.2</ele>
        <time>2019-11-10T10:59:37Z</time>
      </trkpt>
      <trkpt lat="44.13752" lon="5.6737">
        <ele>1358.7</ele>
        <time>2019-11-10T10:59:45Z</time>
      </trkpt>
      <trkpt lat="44.13734" lon="5.67378">
        <ele>1357.1</ele>
        <time>2019-11-10T10:59:58Z</time>
      </trkpt>
      <trkpt lat="44.13725" lon="5.67384">
        <ele>1356.6</ele>
        <time>2019-11-10T11:00:06Z</time>
      </trkpt>
      <trkpt lat="44.13716" lon="5.67389">
        <ele>1355.6</ele>
        <time>2019-11-10T11:00:13Z</time>
      </trkpt>
      <trkpt lat="44.13708" lon="5.67395">
        <ele>1355.1</ele>
        <time>2019-11-10T11:00:20Z</time>
      </trkpt>
      <trkpt lat="44.13699" lon="5.674">
        <ele>1354.4</ele>
        <time>2019-11-10T11:00:28Z</time>
      </trkpt>
      <trkpt lat="44.13688" lon="5.67404">
        <ele>1353.4</ele>
        <time>2019-11-10T11:00:35Z</time>
      </trkpt>
      <trkpt lat="44.1368" lon="5.67409">
        <ele>1352.6</ele>
        <time>2019-11-10T11:00:42Z</time>
      </trkpt>
      <trkpt lat="44.13672" lon="5.67417">
        <ele>1352.5</ele>
        <time>2019-11-10T11:00:49Z</time>
      </trkpt>
      <trkpt lat="44.13659" lon="5.67438">
        <ele>1352.1</ele>
        <time>2019-11-10T11:01:04Z</time>
      </trkpt>
      <trkpt lat="44.13655" lon="5.67449">
        <ele>1352</ele>
        <time>2019-11-10T11:01:11Z</time>
      </trkpt>
      <trkpt lat="44.13652" lon="5.67461">
        <ele>1350.6</ele>
        <time>2019-11-10T11:01:19Z</time>
      </trkpt>
      <trkpt lat="44.13647" lon="5.67473">
        <ele>1350.1</ele>
        <time>2019-11-10T11:01:26Z</time>
      </trkpt>
      <trkpt lat="44.13644" lon="5.67485">
        <ele>1348.9</ele>
        <time>2019-11-10T11:01:33Z</time>
      </trkpt>
      <trkpt lat="44.1364" lon="5.67498">
        <ele>1347.5</ele>
        <time>2019-11-10T11:01:42Z</time>
      </trkpt>
      <trkpt lat="44.13636" lon="5.67511">
        <ele>1346.6</ele>
        <time>2019-11-10T11:01:49Z</time>
      </trkpt>
      <trkpt lat="44.13635" lon="5.67526">
        <ele>1345.5</ele>
        <time>2019-11-10T11:01:56Z</time>
      </trkpt>
      <trkpt lat="44.13629" lon="5.67551">
        <ele>1343.1</ele>
        <time>2019-11-10T11:02:09Z</time>
      </trkpt>
      <trkpt lat="44.13627" lon="5.67564">
        <ele>1342.8</ele>
        <time>2019-11-10T11:02:16Z</time>
      </trkpt>
      <trkpt lat="44.13624" lon="5.67578">
        <ele>1342.4</ele>
        <time>2019-11-10T11:02:24Z</time>
      </trkpt>
      <trkpt lat="44.13621" lon="5.6759">
        <ele>1341.4</ele>
        <time>2019-11-10T11:02:30Z</time>
      </trkpt>
      <trkpt lat="44.13619" lon="5.67603">
        <ele>1341</ele>
        <time>2019-11-10T11:02:37Z</time>
      </trkpt>
      <trkpt lat="44.13619" lon="5.67617">
        <ele>1340.8</ele>
        <time>2019-11-10T11:02:44Z</time>
      </trkpt>
      <trkpt lat="44.13618" lon="5.67631">
        <ele>1340.5</ele>
        <time>2019-11-10T11:02:51Z</time>
      </trkpt>
      <trkpt lat="44.13612" lon="5.67641">
        <ele>1340</ele>
        <time>2019-11-10T11:02:59Z</time>
      </trkpt>
      <trkpt lat="44.13603" lon="5.67662">
        <ele>1338.4</ele>
        <time>2019-11-10T11:03:42Z</time>
      </trkpt>
      <trkpt lat="44.136" lon="5.67675">
        <ele>1339</ele>
        <time>2019-11-10T11:05:11Z</time>
      </trkpt>
      <trkpt lat="44.13584" lon="5.67689">
        <ele>1338.2</ele>
        <time>2019-11-10T11:05:24Z</time>
      </trkpt>
      <trkpt lat="44.13573" lon="5.67686">
        <ele>1337.5</ele>
        <time>2019-11-10T11:05:30Z</time>
      </trkpt>
      <trkpt lat="44.13562" lon="5.67685">
        <ele>1336.9</ele>
        <time>2019-11-10T11:05:36Z</time>
      </trkpt>
      <trkpt lat="44.13553" lon="5.67687">
        <ele>1336.3</ele>
        <time>2019-11-10T11:05:42Z</time>
      </trkpt>
      <trkpt lat="44.13543" lon="5.67687">
        <ele>1336.1</ele>
        <time>2019-11-10T11:05:47Z</time>
      </trkpt>
      <trkpt lat="44.13533" lon="5.67683">
        <ele>1335.5</ele>
        <time>2019-11-10T11:05:55Z</time>
      </trkpt>
      <trkpt lat="44.13524" lon="5.67679">
        <ele>1335</ele>
        <time>2019-11-10T11:06:02Z</time>
      </trkpt>
      <trkpt lat="44.13514" lon="5.67678">
        <ele>1334.8</ele>
        <time>2019-11-10T11:06:08Z</time>
      </trkpt>
      <trkpt lat="44.13504" lon="5.67677">
        <ele>1334.2</ele>
        <time>2019-11-10T11:06:17Z</time>
      </trkpt>
      <trkpt lat="44.13485" lon="5.67676">
        <ele>1334.2</ele>
        <time>2019-11-10T11:06:30Z</time>
      </trkpt>
      <trkpt lat="44.13476" lon="5.67677">
        <ele>1334.1</ele>
        <time>2019-11-10T11:06:37Z</time>
      </trkpt>
      <trkpt lat="44.13465" lon="5.67679">
        <ele>1334.3</ele>
        <time>2019-11-10T11:06:44Z</time>
      </trkpt>
      <trkpt lat="44.13456" lon="5.67685">
        <ele>1333.7</ele>
        <time>2019-11-10T11:06:48Z</time>
      </trkpt>
      <trkpt lat="44.13448" lon="5.67692">
        <ele>1333.7</ele>
        <time>2019-11-10T11:06:55Z</time>
      </trkpt>
      <trkpt lat="44.13439" lon="5.677">
        <ele>1333.3</ele>
        <time>2019-11-10T11:07:02Z</time>
      </trkpt>
      <trkpt lat="44.13431" lon="5.67707">
        <ele>1333.3</ele>
        <time>2019-11-10T11:07:08Z</time>
      </trkpt>
      <trkpt lat="44.13424" lon="5.67715">
        <ele>1332.9</ele>
        <time>2019-11-10T11:07:14Z</time>
      </trkpt>
      <trkpt lat="44.13417" lon="5.67725">
        <ele>1332.6</ele>
        <time>2019-11-10T11:07:23Z</time>
      </trkpt>
      <trkpt lat="44.13405" lon="5.67744">
        <ele>1331.5</ele>
        <time>2019-11-10T11:07:39Z</time>
      </trkpt>
      <trkpt lat="44.13397" lon="5.67754">
        <ele>1331.3</ele>
        <time>2019-11-10T11:07:44Z</time>
      </trkpt>
      <trkpt lat="44.13391" lon="5.67763">
        <ele>1330.8</ele>
        <time>2019-11-10T11:07:49Z</time>
      </trkpt>
      <trkpt lat="44.13386" lon="5.67774">
        <ele>1330.5</ele>
        <time>2019-11-10T11:07:56Z</time>
      </trkpt>
      <trkpt lat="44.13382" lon="5.67786">
        <ele>1329.7</ele>
        <time>2019-11-10T11:08:02Z</time>
      </trkpt>
      <trkpt lat="44.13377" lon="5.67797">
        <ele>1328.8</ele>
        <time>2019-11-10T11:08:09Z</time>
      </trkpt>
      <trkpt lat="44.13372" lon="5.67811">
        <ele>1327.6</ele>
        <time>2019-11-10T11:08:17Z</time>
      </trkpt>
      <trkpt lat="44.13368" lon="5.67824">
        <ele>1327</ele>
        <time>2019-11-10T11:08:24Z</time>
      </trkpt>
      <trkpt lat="44.13359" lon="5.67848">
        <ele>1324.2</ele>
        <time>2019-11-10T11:08:52Z</time>
      </trkpt>
      <trkpt lat="44.13357" lon="5.67861">
        <ele>1322.9</ele>
        <time>2019-11-10T11:09:00Z</time>
      </trkpt>
      <trkpt lat="44.13354" lon="5.67873">
        <ele>1320.7</ele>
        <time>2019-11-10T11:09:09Z</time>
      </trkpt>
      <trkpt lat="44.13354" lon="5.67886">
        <ele>1319.3</ele>
        <time>2019-11-10T11:09:16Z</time>
      </trkpt>
      <trkpt lat="44.13356" lon="5.67899">
        <ele>1318.1</ele>
        <time>2019-11-10T11:09:23Z</time>
      </trkpt>
      <trkpt lat="44.13354" lon="5.67913">
        <ele>1315.7</ele>
        <time>2019-11-10T11:09:32Z</time>
      </trkpt>
      <trkpt lat="44.13357" lon="5.67938">
        <ele>1311.8</ele>
        <time>2019-11-10T11:09:48Z</time>
      </trkpt>
      <trkpt lat="44.13358" lon="5.67951">
        <ele>1309.5</ele>
        <time>2019-11-10T11:09:57Z</time>
      </trkpt>
      <trkpt lat="44.13359" lon="5.67965">
        <ele>1306.9</ele>
        <time>2019-11-10T11:10:08Z</time>
      </trkpt>
      <trkpt lat="44.13364" lon="5.67977">
        <ele>1305.6</ele>
        <time>2019-11-10T11:10:17Z</time>
      </trkpt>
      <trkpt lat="44.13368" lon="5.67988">
        <ele>1304.1</ele>
        <time>2019-11-10T11:10:25Z</time>
      </trkpt>
      <trkpt lat="44.13373" lon="5.68">
        <ele>1301.9</ele>
        <time>2019-11-10T11:10:34Z</time>
      </trkpt>
      <trkpt lat="44.13383" lon="5.68023">
        <ele>1298.7</ele>
        <time>2019-11-10T11:10:48Z</time>
      </trkpt>
      <trkpt lat="44.13386" lon="5.68034">
        <ele>1296.8</ele>
        <time>2019-11-10T11:10:56Z</time>
      </trkpt>
      <trkpt lat="44.13376" lon="5.68046">
        <ele>1294</ele>
        <time>2019-11-10T11:11:31Z</time>
      </trkpt>
      <trkpt lat="44.13382" lon="5.68056">
        <ele>1292.4</ele>
        <time>2019-11-10T11:22:09Z</time>
      </trkpt>
      <trkpt lat="44.13392" lon="5.68077">
        <ele>1291.1</ele>
        <time>2019-11-10T11:22:31Z</time>
      </trkpt>
      <trkpt lat="44.1339" lon="5.68089">
        <ele>1289.8</ele>
        <time>2019-11-10T11:22:40Z</time>
      </trkpt>
      <trkpt lat="44.13388" lon="5.68102">
        <ele>1287.4</ele>
        <time>2019-11-10T11:22:48Z</time>
      </trkpt>
      <trkpt lat="44.13386" lon="5.68115">
        <ele>1285.2</ele>
        <time>2019-11-10T11:22:56Z</time>
      </trkpt>
      <trkpt lat="44.13382" lon="5.68127">
        <ele>1283.9</ele>
        <time>2019-11-10T11:23:04Z</time>
      </trkpt>
      <trkpt lat="44.13374" lon="5.68135">
        <ele>1282.2</ele>
        <time>2019-11-10T11:23:13Z</time>
      </trkpt>
      <trkpt lat="44.13361" lon="5.68154">
        <ele>1280.5</ele>
        <time>2019-11-10T11:23:28Z</time>
      </trkpt>
      <trkpt lat="44.13354" lon="5.68164">
        <ele>1279.8</ele>
        <time>2019-11-10T11:23:36Z</time>
      </trkpt>
      <trkpt lat="44.13346" lon="5.68173">
        <ele>1279.3</ele>
        <time>2019-11-10T11:23:44Z</time>
      </trkpt>
      <trkpt lat="44.1334" lon="5.68183">
        <ele>1279.3</ele>
        <time>2019-11-10T11:23:53Z</time>
      </trkpt>
      <trkpt lat="44.13333" lon="5.68192">
        <ele>1279.3</ele>
        <time>2019-11-10T11:24:02Z</time>
      </trkpt>
      <trkpt lat="44.13326" lon="5.68201">
        <ele>1280</ele>
        <time>2019-11-10T11:24:09Z</time>
      </trkpt>
      <trkpt lat="44.13317" lon="5.68203">
        <ele>1279.7</ele>
        <time>2019-11-10T11:24:18Z</time>
      </trkpt>
      <trkpt lat="44.13299" lon="5.68214">
        <ele>1279.6</ele>
        <time>2019-11-10T11:24:37Z</time>
      </trkpt>
      <trkpt lat="44.1329" lon="5.6822">
        <ele>1278.7</ele>
        <time>2019-11-10T11:24:45Z</time>
      </trkpt>
      <trkpt lat="44.13281" lon="5.68222">
        <ele>1277.5</ele>
        <time>2019-11-10T11:24:53Z</time>
      </trkpt>
      <trkpt lat="44.13272" lon="5.68229">
        <ele>1276.6</ele>
        <time>2019-11-10T11:25:01Z</time>
      </trkpt>
      <trkpt lat="44.13266" lon="5.68238">
        <ele>1275.8</ele>
        <time>2019-11-10T11:25:08Z</time>
      </trkpt>
      <trkpt lat="44.13259" lon="5.68248">
        <ele>1274.4</ele>
        <time>2019-11-10T11:25:16Z</time>
      </trkpt>
      <trkpt lat="44.13249" lon="5.68255">
        <ele>1272.2</ele>
        <time>2019-11-10T11:25:49Z</time>
      </trkpt>
      <trkpt lat="44.13235" lon="5.68271">
        <ele>1269.8</ele>
        <time>2019-11-10T11:26:04Z</time>
      </trkpt>
      <trkpt lat="44.13228" lon="5.68279">
        <ele>1268.2</ele>
        <time>2019-11-10T11:26:14Z</time>
      </trkpt>
      <trkpt lat="44.13221" lon="5.68289">
        <ele>1266.4</ele>
        <time>2019-11-10T11:26:24Z</time>
      </trkpt>
      <trkpt lat="44.13214" lon="5.68296">
        <ele>1264.1</ele>
        <time>2019-11-10T11:26:34Z</time>
      </trkpt>
      <trkpt lat="44.13204" lon="5.68298">
        <ele>1261.6</ele>
        <time>2019-11-10T11:26:44Z</time>
      </trkpt>
      <trkpt lat="44.13195" lon="5.68298">
        <ele>1259.6</ele>
        <time>2019-11-10T11:26:53Z</time>
      </trkpt>
      <trkpt lat="44.13177" lon="5.68301">
        <ele>1255.3</ele>
        <time>2019-11-10T11:27:15Z</time>
      </trkpt>
      <trkpt lat="44.13168" lon="5.68301">
        <ele>1253.8</ele>
        <time>2019-11-10T11:27:25Z</time>
      </trkpt>
      <trkpt lat="44.13158" lon="5.68298">
        <ele>1251.7</ele>
        <time>2019-11-10T11:27:35Z</time>
      </trkpt>
      <trkpt lat="44.13149" lon="5.68297">
        <ele>1250.2</ele>
        <time>2019-11-10T11:27:46Z</time>
      </trkpt>
      <trkpt lat="44.1314" lon="5.68292">
        <ele>1248.8</ele>
        <time>2019-11-10T11:31:02Z</time>
      </trkpt>
      <trkpt lat="44.13143" lon="5.68253">
        <ele>1249.5</ele>
        <time>2019-11-10T11:32:37Z</time>
      </trkpt>
      <trkpt lat="44.13143" lon="5.68239">
        <ele>1249.6</ele>
        <time>2019-11-10T11:32:45Z</time>
      </trkpt>
      <trkpt lat="44.13142" lon="5.68226">
        <ele>1249.3</ele>
        <time>2019-11-10T11:32:52Z</time>
      </trkpt>
      <trkpt lat="44.1314" lon="5.68213">
        <ele>1248.1</ele>
        <time>2019-11-10T11:32:59Z</time>
      </trkpt>
      <trkpt lat="44.13136" lon="5.68201">
        <ele>1246.9</ele>
        <time>2019-11-10T11:33:07Z</time>
      </trkpt>
      <trkpt lat="44.13129" lon="5.68189">
        <ele>1245.7</ele>
        <time>2019-11-10T11:33:15Z</time>
      </trkpt>
      <trkpt lat="44.13124" lon="5.68178">
        <ele>1243.9</ele>
        <time>2019-11-10T11:33:22Z</time>
      </trkpt>
      <trkpt lat="44.13116" lon="5.68169">
        <ele>1243</ele>
        <time>2019-11-10T11:33:29Z</time>
      </trkpt>
      <trkpt lat="44.13103" lon="5.6815">
        <ele>1240.4</ele>
        <time>2019-11-10T11:33:44Z</time>
      </trkpt>
      <trkpt lat="44.13095" lon="5.68142">
        <ele>1239</ele>
        <time>2019-11-10T11:33:51Z</time>
      </trkpt>
      <trkpt lat="44.13087" lon="5.68136">
        <ele>1237.9</ele>
        <time>2019-11-10T11:33:55Z</time>
      </trkpt>
      <trkpt lat="44.1308" lon="5.68126">
        <ele>1236.7</ele>
        <time>2019-11-10T11:34:03Z</time>
      </trkpt>
      <trkpt lat="44.13071" lon="5.68118">
        <ele>1235.3</ele>
        <time>2019-11-10T11:34:10Z</time>
      </trkpt>
      <trkpt lat="44.13065" lon="5.68108">
        <ele>1233.5</ele>
        <time>2019-11-10T11:34:18Z</time>
      </trkpt>
      <trkpt lat="44.13064" lon="5.68095">
        <ele>1232.4</ele>
        <time>2019-11-10T11:34:25Z</time>
      </trkpt>
      <trkpt lat="44.13057" lon="5.68085">
        <ele>1231</ele>
        <time>2019-11-10T11:34:32Z</time>
      </trkpt>
      <trkpt lat="44.13039" lon="5.68077">
        <ele>1228.9</ele>
        <time>2019-11-10T11:34:47Z</time>
      </trkpt>
      <trkpt lat="44.13031" lon="5.68083">
        <ele>1228.1</ele>
        <time>2019-11-10T11:34:56Z</time>
      </trkpt>
      <trkpt lat="44.13036" lon="5.68097">
        <ele>1227.8</ele>
        <time>2019-11-10T11:35:16Z</time>
      </trkpt>
      <trkpt lat="44.13038" lon="5.68109">
        <ele>1227.8</ele>
        <time>2019-11-10T11:35:28Z</time>
      </trkpt>
      <trkpt lat="44.13036" lon="5.68097">
        <ele>1227.5</ele>
        <time>2019-11-10T11:36:00Z</time>
      </trkpt>
      <trkpt lat="44.13021" lon="5.68091">
        <ele>1228.8</ele>
        <time>2019-11-10T11:36:22Z</time>
      </trkpt>
      <trkpt lat="44.13013" lon="5.68098">
        <ele>1229</ele>
        <time>2019-11-10T11:36:30Z</time>
      </trkpt>
      <trkpt lat="44.13005" lon="5.68105">
        <ele>1229.7</ele>
        <time>2019-11-10T11:36:37Z</time>
      </trkpt>
      <trkpt lat="44.12996" lon="5.68107">
        <ele>1230</ele>
        <time>2019-11-10T11:36:43Z</time>
      </trkpt>
      <trkpt lat="44.12986" lon="5.68109">
        <ele>1230.4</ele>
        <time>2019-11-10T11:36:49Z</time>
      </trkpt>
      <trkpt lat="44.12976" lon="5.68111">
        <ele>1230.9</ele>
        <time>2019-11-10T11:36:56Z</time>
      </trkpt>
      <trkpt lat="44.12967" lon="5.68115">
        <ele>1231.2</ele>
        <time>2019-11-10T11:37:02Z</time>
      </trkpt>
      <trkpt lat="44.12948" lon="5.6812">
        <ele>1232.4</ele>
        <time>2019-11-10T11:37:15Z</time>
      </trkpt>
      <trkpt lat="44.12938" lon="5.68123">
        <ele>1233.1</ele>
        <time>2019-11-10T11:37:22Z</time>
      </trkpt>
      <trkpt lat="44.12928" lon="5.68126">
        <ele>1233.7</ele>
        <time>2019-11-10T11:37:28Z</time>
      </trkpt>
      <trkpt lat="44.12919" lon="5.68128">
        <ele>1233.9</ele>
        <time>2019-11-10T11:37:35Z</time>
      </trkpt>
      <trkpt lat="44.12909" lon="5.68128">
        <ele>1234.8</ele>
        <time>2019-11-10T11:37:42Z</time>
      </trkpt>
      <trkpt lat="44.12899" lon="5.68131">
        <ele>1235</ele>
        <time>2019-11-10T11:37:49Z</time>
      </trkpt>
      <trkpt lat="44.12889" lon="5.68133">
        <ele>1235.8</ele>
        <time>2019-11-10T11:37:55Z</time>
      </trkpt>
      <trkpt lat="44.1288" lon="5.68135">
        <ele>1236.8</ele>
        <time>2019-11-10T11:38:01Z</time>
      </trkpt>
      <trkpt lat="44.1287" lon="5.68138">
        <ele>1237.5</ele>
        <time>2019-11-10T11:38:07Z</time>
      </trkpt>
      <trkpt lat="44.12851" lon="5.68141">
        <ele>1239.4</ele>
        <time>2019-11-10T11:38:21Z</time>
      </trkpt>
      <trkpt lat="44.12841" lon="5.68142">
        <ele>1240.1</ele>
        <time>2019-11-10T11:38:28Z</time>
      </trkpt>
      <trkpt lat="44.12832" lon="5.68144">
        <ele>1241.2</ele>
        <time>2019-11-10T11:38:35Z</time>
      </trkpt>
      <trkpt lat="44.12822" lon="5.68142">
        <ele>1242.5</ele>
        <time>2019-11-10T11:38:43Z</time>
      </trkpt>
      <trkpt lat="44.12812" lon="5.68143">
        <ele>1243.8</ele>
        <time>2019-11-10T11:38:51Z</time>
      </trkpt>
      <trkpt lat="44.12803" lon="5.68144">
        <ele>1245.7</ele>
        <time>2019-11-10T11:38:58Z</time>
      </trkpt>
      <trkpt lat="44.12793" lon="5.68146">
        <ele>1246.3</ele>
        <time>2019-11-10T11:39:05Z</time>
      </trkpt>
      <trkpt lat="44.12784" lon="5.6815">
        <ele>1246.8</ele>
        <time>2019-11-10T11:39:12Z</time>
      </trkpt>
      <trkpt lat="44.12767" lon="5.68162">
        <ele>1246.6</ele>
        <time>2019-11-10T11:39:25Z</time>
      </trkpt>
      <trkpt lat="44.12759" lon="5.68168">
        <ele>1246.1</ele>
        <time>2019-11-10T11:39:32Z</time>
      </trkpt>
      <trkpt lat="44.1275" lon="5.68174">
        <ele>1245.8</ele>
        <time>2019-11-10T11:39:39Z</time>
      </trkpt>
      <trkpt lat="44.12742" lon="5.6818">
        <ele>1244.8</ele>
        <time>2019-11-10T11:39:46Z</time>
      </trkpt>
      <trkpt lat="44.12733" lon="5.68184">
        <ele>1243.8</ele>
        <time>2019-11-10T11:39:54Z</time>
      </trkpt>
      <trkpt lat="44.12723" lon="5.68189">
        <ele>1243.2</ele>
        <time>2019-11-10T11:40:00Z</time>
      </trkpt>
      <trkpt lat="44.12715" lon="5.68193">
        <ele>1242.9</ele>
        <time>2019-11-10T11:40:06Z</time>
      </trkpt>
      <trkpt lat="44.12705" lon="5.68196">
        <ele>1242.5</ele>
        <time>2019-11-10T11:40:13Z</time>
      </trkpt>
      <trkpt lat="44.12685" lon="5.68204">
        <ele>1242.4</ele>
        <time>2019-11-10T11:40:26Z</time>
      </trkpt>
      <trkpt lat="44.12675" lon="5.68208">
        <ele>1242.5</ele>
        <time>2019-11-10T11:40:33Z</time>
      </trkpt>
      <trkpt lat="44.12665" lon="5.68212">
        <ele>1242.3</ele>
        <time>2019-11-10T11:40:40Z</time>
      </trkpt>
      <trkpt lat="44.12657" lon="5.68217">
        <ele>1242.4</ele>
        <time>2019-11-10T11:40:48Z</time>
      </trkpt>
      <trkpt lat="44.12648" lon="5.68221">
        <ele>1241.6</ele>
        <time>2019-11-10T11:40:54Z</time>
      </trkpt>
      <trkpt lat="44.12638" lon="5.68224">
        <ele>1241.5</ele>
        <time>2019-11-10T11:41:01Z</time>
      </trkpt>
      <trkpt lat="44.1263" lon="5.68229">
        <ele>1241.7</ele>
        <time>2019-11-10T11:41:08Z</time>
      </trkpt>
      <trkpt lat="44.12621" lon="5.68232">
        <ele>1241.6</ele>
        <time>2019-11-10T11:41:14Z</time>
      </trkpt>
      <trkpt lat="44.12601" lon="5.68238">
        <ele>1241.3</ele>
        <time>2019-11-10T11:41:28Z</time>
      </trkpt>
      <trkpt lat="44.12592" lon="5.68242">
        <ele>1241.3</ele>
        <time>2019-11-10T11:41:35Z</time>
      </trkpt>
      <trkpt lat="44.12583" lon="5.68248">
        <ele>1241.3</ele>
        <time>2019-11-10T11:41:42Z</time>
      </trkpt>
      <trkpt lat="44.12576" lon="5.68257">
        <ele>1241.3</ele>
        <time>2019-11-10T11:41:50Z</time>
      </trkpt>
      <trkpt lat="44.12567" lon="5.68263">
        <ele>1241.1</ele>
        <time>2019-11-10T11:41:56Z</time>
      </trkpt>
      <trkpt lat="44.12558" lon="5.68265">
        <ele>1241</ele>
        <time>2019-11-10T11:42:02Z</time>
      </trkpt>
      <trkpt lat="44.12548" lon="5.68269">
        <ele>1240.4</ele>
        <time>2019-11-10T11:42:09Z</time>
      </trkpt>
      <trkpt lat="44.12539" lon="5.68271">
        <ele>1239.8</ele>
        <time>2019-11-10T11:42:16Z</time>
      </trkpt>
      <trkpt lat="44.12521" lon="5.68284">
        <ele>1238.6</ele>
        <time>2019-11-10T11:42:30Z</time>
      </trkpt>
      <trkpt lat="44.12514" lon="5.68292">
        <ele>1237.1</ele>
        <time>2019-11-10T11:42:37Z</time>
      </trkpt>
      <trkpt lat="44.12506" lon="5.68301">
        <ele>1235.9</ele>
        <time>2019-11-10T11:42:46Z</time>
      </trkpt>
      <trkpt lat="44.12498" lon="5.68307">
        <ele>1234.8</ele>
        <time>2019-11-10T11:42:53Z</time>
      </trkpt>
      <trkpt lat="44.12488" lon="5.68313">
        <ele>1233.3</ele>
        <time>2019-11-10T11:43:01Z</time>
      </trkpt>
      <trkpt lat="44.12479" lon="5.68318">
        <ele>1233</ele>
        <time>2019-11-10T11:43:08Z</time>
      </trkpt>
      <trkpt lat="44.1247" lon="5.68322">
        <ele>1232.5</ele>
        <time>2019-11-10T11:43:14Z</time>
      </trkpt>
      <trkpt lat="44.1246" lon="5.68326">
        <ele>1231.7</ele>
        <time>2019-11-10T11:43:20Z</time>
      </trkpt>
      <trkpt lat="44.12441" lon="5.68322">
        <ele>1232.3</ele>
        <time>2019-11-10T11:43:35Z</time>
      </trkpt>
      <trkpt lat="44.12432" lon="5.68317">
        <ele>1231.8</ele>
        <time>2019-11-10T11:43:42Z</time>
      </trkpt>
      <trkpt lat="44.12423" lon="5.68314">
        <ele>1232.5</ele>
        <time>2019-11-10T11:43:49Z</time>
      </trkpt>
      <trkpt lat="44.12413" lon="5.6831">
        <ele>1232.6</ele>
        <time>2019-11-10T11:43:56Z</time>
      </trkpt>
      <trkpt lat="44.12405" lon="5.68304">
        <ele>1232.6</ele>
        <time>2019-11-10T11:44:03Z</time>
      </trkpt>
      <trkpt lat="44.12396" lon="5.683">
        <ele>1232.7</ele>
        <time>2019-11-10T11:44:10Z</time>
      </trkpt>
      <trkpt lat="44.12388" lon="5.68293">
        <ele>1232.9</ele>
        <time>2019-11-10T11:44:15Z</time>
      </trkpt>
      <trkpt lat="44.1238" lon="5.68288">
        <ele>1232.8</ele>
        <time>2019-11-10T11:44:22Z</time>
      </trkpt>
      <trkpt lat="44.12361" lon="5.68276">
        <ele>1232.7</ele>
        <time>2019-11-10T11:44:36Z</time>
      </trkpt>
      <trkpt lat="44.12352" lon="5.6827">
        <ele>1232.6</ele>
        <time>2019-11-10T11:44:42Z</time>
      </trkpt>
      <trkpt lat="44.12343" lon="5.68266">
        <ele>1232.4</ele>
        <time>2019-11-10T11:44:47Z</time>
      </trkpt>
      <trkpt lat="44.12333" lon="5.68263">
        <ele>1231.8</ele>
        <time>2019-11-10T11:44:53Z</time>
      </trkpt>
      <trkpt lat="44.12324" lon="5.68259">
        <ele>1231</ele>
        <time>2019-11-10T11:45:01Z</time>
      </trkpt>
      <trkpt lat="44.12314" lon="5.68255">
        <ele>1231</ele>
        <time>2019-11-10T11:45:08Z</time>
      </trkpt>
      <trkpt lat="44.12306" lon="5.6825">
        <ele>1231.2</ele>
        <time>2019-11-10T11:45:14Z</time>
      </trkpt>
      <trkpt lat="44.12297" lon="5.68245">
        <ele>1231.4</ele>
        <time>2019-11-10T11:45:20Z</time>
      </trkpt>
      <trkpt lat="44.12288" lon="5.68242">
        <ele>1231.3</ele>
        <time>2019-11-10T11:45:26Z</time>
      </trkpt>
      <trkpt lat="44.12269" lon="5.68237">
        <ele>1231.3</ele>
        <time>2019-11-10T11:45:39Z</time>
      </trkpt>
      <trkpt lat="44.12259" lon="5.68233">
        <ele>1231.7</ele>
        <time>2019-11-10T11:45:45Z</time>
      </trkpt>
      <trkpt lat="44.1225" lon="5.68236">
        <ele>1231.8</ele>
        <time>2019-11-10T11:45:57Z</time>
      </trkpt>
      <trkpt lat="44.1224" lon="5.68241">
        <ele>1231.8</ele>
        <time>2019-11-10T11:46:13Z</time>
      </trkpt>
      <trkpt lat="44.12231" lon="5.68243">
        <ele>1231.5</ele>
        <time>2019-11-10T11:46:22Z</time>
      </trkpt>
      <trkpt lat="44.12223" lon="5.68253">
        <ele>1231.9</ele>
        <time>2019-11-10T11:46:35Z</time>
      </trkpt>
      <trkpt lat="44.12208" lon="5.6827">
        <ele>1230.6</ele>
        <time>2019-11-10T11:46:48Z</time>
      </trkpt>
      <trkpt lat="44.12201" lon="5.68279">
        <ele>1229.6</ele>
        <time>2019-11-10T11:46:54Z</time>
      </trkpt>
      <trkpt lat="44.12193" lon="5.68287">
        <ele>1228.4</ele>
        <time>2019-11-10T11:47:02Z</time>
      </trkpt>
      <trkpt lat="44.12184" lon="5.68282">
        <ele>1226.3</ele>
        <time>2019-11-10T11:47:42Z</time>
      </trkpt>
      <trkpt lat="44.12165" lon="5.68286">
        <ele>1223.9</ele>
        <time>2019-11-10T11:47:55Z</time>
      </trkpt>
      <trkpt lat="44.12155" lon="5.68286">
        <ele>1222.4</ele>
        <time>2019-11-10T11:48:02Z</time>
      </trkpt>
      <trkpt lat="44.12146" lon="5.68287">
        <ele>1221.1</ele>
        <time>2019-11-10T11:48:10Z</time>
      </trkpt>
      <trkpt lat="44.12137" lon="5.68291">
        <ele>1219.3</ele>
        <time>2019-11-10T11:48:18Z</time>
      </trkpt>
      <trkpt lat="44.12128" lon="5.68295">
        <ele>1217.4</ele>
        <time>2019-11-10T11:48:26Z</time>
      </trkpt>
      <trkpt lat="44.12118" lon="5.68298">
        <ele>1214.5</ele>
        <time>2019-11-10T11:48:34Z</time>
      </trkpt>
      <trkpt lat="44.12108" lon="5.68302">
        <ele>1213</ele>
        <time>2019-11-10T11:48:42Z</time>
      </trkpt>
      <trkpt lat="44.12099" lon="5.68307">
        <ele>1210.9</ele>
        <time>2019-11-10T11:48:51Z</time>
      </trkpt>
      <trkpt lat="44.12085" lon="5.68289">
        <ele>1207.4</ele>
        <time>2019-11-10T11:49:07Z</time>
      </trkpt>
      <trkpt lat="44.12079" lon="5.68278">
        <ele>1205.5</ele>
        <time>2019-11-10T11:49:14Z</time>
      </trkpt>
      <trkpt lat="44.12074" lon="5.68266">
        <ele>1204.7</ele>
        <time>2019-11-10T11:49:21Z</time>
      </trkpt>
      <trkpt lat="44.12067" lon="5.68258">
        <ele>1203.3</ele>
        <time>2019-11-10T11:49:28Z</time>
      </trkpt>
      <trkpt lat="44.1206" lon="5.6825">
        <ele>1201.7</ele>
        <time>2019-11-10T11:49:36Z</time>
      </trkpt>
      <trkpt lat="44.12051" lon="5.68244">
        <ele>1200.5</ele>
        <time>2019-11-10T11:49:44Z</time>
      </trkpt>
      <trkpt lat="44.12042" lon="5.6824">
        <ele>1199.8</ele>
        <time>2019-11-10T11:49:49Z</time>
      </trkpt>
      <trkpt lat="44.12034" lon="5.68235">
        <ele>1198.8</ele>
        <time>2019-11-10T11:49:58Z</time>
      </trkpt>
      <trkpt lat="44.12018" lon="5.68223">
        <ele>1196.4</ele>
        <time>2019-11-10T11:50:11Z</time>
      </trkpt>
      <trkpt lat="44.12008" lon="5.68221">
        <ele>1195.6</ele>
        <time>2019-11-10T11:50:20Z</time>
      </trkpt>
      <trkpt lat="44.12002" lon="5.6823">
        <ele>1194.8</ele>
        <time>2019-11-10T11:50:26Z</time>
      </trkpt>
      <trkpt lat="44.11998" lon="5.68219">
        <ele>1194.5</ele>
        <time>2019-11-10T11:51:22Z</time>
      </trkpt>
      <trkpt lat="44.11989" lon="5.68197">
        <ele>1192.6</ele>
        <time>2019-11-10T11:51:36Z</time>
      </trkpt>
      <trkpt lat="44.1198" lon="5.68191">
        <ele>1191.6</ele>
        <time>2019-11-10T11:51:44Z</time>
      </trkpt>
      <trkpt lat="44.11971" lon="5.68184">
        <ele>1189.7</ele>
        <time>2019-11-10T11:51:51Z</time>
      </trkpt>
      <trkpt lat="44.11966" lon="5.68173">
        <ele>1188.5</ele>
        <time>2019-11-10T11:51:59Z</time>
      </trkpt>
      <trkpt lat="44.11963" lon="5.68161">
        <ele>1187</ele>
        <time>2019-11-10T11:52:07Z</time>
      </trkpt>
      <trkpt lat="44.11958" lon="5.68149">
        <ele>1185.1</ele>
        <time>2019-11-10T11:52:15Z</time>
      </trkpt>
      <trkpt lat="44.11953" lon="5.68139">
        <ele>1183.4</ele>
        <time>2019-11-10T11:52:24Z</time>
      </trkpt>
      <trkpt lat="44.11939" lon="5.68121">
        <ele>1179.8</ele>
        <time>2019-11-10T11:52:43Z</time>
      </trkpt>
      <trkpt lat="44.1193" lon="5.68115">
        <ele>1178.3</ele>
        <time>2019-11-10T11:52:51Z</time>
      </trkpt>
      <trkpt lat="44.1192" lon="5.68113">
        <ele>1177</ele>
        <time>2019-11-10T11:52:58Z</time>
      </trkpt>
      <trkpt lat="44.11911" lon="5.68113">
        <ele>1175.5</ele>
        <time>2019-11-10T11:53:05Z</time>
      </trkpt>
      <trkpt lat="44.11901" lon="5.68114">
        <ele>1174.6</ele>
        <time>2019-11-10T11:53:12Z</time>
      </trkpt>
      <trkpt lat="44.11892" lon="5.68115">
        <ele>1173.7</ele>
        <time>2019-11-10T11:53:19Z</time>
      </trkpt>
      <trkpt lat="44.11882" lon="5.68112">
        <ele>1172.6</ele>
        <time>2019-11-10T11:53:27Z</time>
      </trkpt>
      <trkpt lat="44.11869" lon="5.68093">
        <ele>1172.9</ele>
        <time>2019-11-10T11:53:53Z</time>
      </trkpt>
      <trkpt lat="44.11871" lon="5.6808">
        <ele>1174.4</ele>
        <time>2019-11-10T11:54:53Z</time>
      </trkpt>
      <trkpt lat="44.11888" lon="5.68067">
        <ele>1176.9</ele>
        <time>2019-11-10T11:55:09Z</time>
      </trkpt>
      <trkpt lat="44.11896" lon="5.68059">
        <ele>1178.9</ele>
        <time>2019-11-10T11:55:20Z</time>
      </trkpt>
      <trkpt lat="44.11905" lon="5.68051">
        <ele>1180.4</ele>
        <time>2019-11-10T11:55:29Z</time>
      </trkpt>
      <trkpt lat="44.11914" lon="5.68047">
        <ele>1181.3</ele>
        <time>2019-11-10T11:55:37Z</time>
      </trkpt>
      <trkpt lat="44.11923" lon="5.68043">
        <ele>1182.4</ele>
        <time>2019-11-10T11:55:45Z</time>
      </trkpt>
      <trkpt lat="44.11936" lon="5.68043">
        <ele>1183.5</ele>
        <time>2019-11-10T11:55:51Z</time>
      </trkpt>
      <trkpt lat="44.11946" lon="5.68045">
        <ele>1184.5</ele>
        <time>2019-11-10T11:55:56Z</time>
      </trkpt>
      <trkpt lat="44.11955" lon="5.68023">
        <ele>1187.7</ele>
        <time>2019-11-10T11:56:12Z</time>
      </trkpt>
      <trkpt lat="44.11953" lon="5.68011">
        <ele>1187.7</ele>
        <time>2019-11-10T11:56:19Z</time>
      </trkpt>
      <trkpt lat="44.11947" lon="5.67998">
        <ele>1187.9</ele>
        <time>2019-11-10T11:56:25Z</time>
      </trkpt>
      <trkpt lat="44.1194" lon="5.67989">
        <ele>1188.3</ele>
        <time>2019-11-10T11:56:32Z</time>
      </trkpt>
      <trkpt lat="44.11932" lon="5.67983">
        <ele>1188.6</ele>
        <time>2019-11-10T11:56:38Z</time>
      </trkpt>
      <trkpt lat="44.11923" lon="5.67979">
        <ele>1189.4</ele>
        <time>2019-11-10T11:56:45Z</time>
      </trkpt>
      <trkpt lat="44.11914" lon="5.67976">
        <ele>1190.3</ele>
        <time>2019-11-10T11:56:53Z</time>
      </trkpt>
      <trkpt lat="44.11905" lon="5.67971">
        <ele>1191.3</ele>
        <time>2019-11-10T11:56:57Z</time>
      </trkpt>
      <trkpt lat="44.11887" lon="5.67961">
        <ele>1193.6</ele>
        <time>2019-11-10T11:57:13Z</time>
      </trkpt>
      <trkpt lat="44.11878" lon="5.67956">
        <ele>1194.5</ele>
        <time>2019-11-10T11:57:20Z</time>
      </trkpt>
      <trkpt lat="44.11869" lon="5.67951">
        <ele>1195.2</ele>
        <time>2019-11-10T11:57:26Z</time>
      </trkpt>
      <trkpt lat="44.11859" lon="5.67948">
        <ele>1196.1</ele>
        <time>2019-11-10T11:57:33Z</time>
      </trkpt>
      <trkpt lat="44.1185" lon="5.67943">
        <ele>1196.5</ele>
        <time>2019-11-10T11:57:40Z</time>
      </trkpt>
      <trkpt lat="44.1184" lon="5.67942">
        <ele>1196.9</ele>
        <time>2019-11-10T11:57:47Z</time>
      </trkpt>
      <trkpt lat="44.1183" lon="5.6794">
        <ele>1196.9</ele>
        <time>2019-11-10T11:57:54Z</time>
      </trkpt>
      <trkpt lat="44.11821" lon="5.67939">
        <ele>1197.1</ele>
        <time>2019-11-10T11:58:00Z</time>
      </trkpt>
      <trkpt lat="44.11802" lon="5.67932">
        <ele>1197</ele>
        <time>2019-11-10T11:58:14Z</time>
      </trkpt>
      <trkpt lat="44.11793" lon="5.67927">
        <ele>1196.3</ele>
        <time>2019-11-10T11:58:21Z</time>
      </trkpt>
      <trkpt lat="44.11784" lon="5.67924">
        <ele>1195.8</ele>
        <time>2019-11-10T11:58:28Z</time>
      </trkpt>
      <trkpt lat="44.11774" lon="5.67918">
        <ele>1194.9</ele>
        <time>2019-11-10T11:58:35Z</time>
      </trkpt>
      <trkpt lat="44.11768" lon="5.6791">
        <ele>1194</ele>
        <time>2019-11-10T11:58:41Z</time>
      </trkpt>
      <trkpt lat="44.1176" lon="5.67903">
        <ele>1193.4</ele>
        <time>2019-11-10T11:58:47Z</time>
      </trkpt>
      <trkpt lat="44.1175" lon="5.67902">
        <ele>1192.6</ele>
        <time>2019-11-10T11:58:55Z</time>
      </trkpt>
      <trkpt lat="44.1174" lon="5.67906">
        <ele>1192</ele>
        <time>2019-11-10T11:59:01Z</time>
      </trkpt>
      <trkpt lat="44.11721" lon="5.679">
        <ele>1190</ele>
        <time>2019-11-10T11:59:15Z</time>
      </trkpt>
      <trkpt lat="44.11711" lon="5.67901">
        <ele>1189</ele>
        <time>2019-11-10T11:59:23Z</time>
      </trkpt>
      <trkpt lat="44.11702" lon="5.67896">
        <ele>1187.8</ele>
        <time>2019-11-10T11:59:29Z</time>
      </trkpt>
      <trkpt lat="44.11693" lon="5.67894">
        <ele>1187.3</ele>
        <time>2019-11-10T11:59:35Z</time>
      </trkpt>
      <trkpt lat="44.11683" lon="5.67893">
        <ele>1186</ele>
        <time>2019-11-10T11:59:43Z</time>
      </trkpt>
      <trkpt lat="44.11675" lon="5.67885">
        <ele>1184.3</ele>
        <time>2019-11-10T11:59:53Z</time>
      </trkpt>
      <trkpt lat="44.11667" lon="5.67877">
        <ele>1183.5</ele>
        <time>2019-11-10T12:00:00Z</time>
      </trkpt>
      <trkpt lat="44.11658" lon="5.67874">
        <ele>1182.4</ele>
        <time>2019-11-10T12:00:09Z</time>
      </trkpt>
      <trkpt lat="44.11637" lon="5.67873">
        <ele>1180.5</ele>
        <time>2019-11-10T12:00:23Z</time>
      </trkpt>
      <trkpt lat="44.11628" lon="5.67872">
        <ele>1179.9</ele>
        <time>2019-11-10T12:00:29Z</time>
      </trkpt>
      <trkpt lat="44.11619" lon="5.67869">
        <ele>1179.1</ele>
        <time>2019-11-10T12:00:38Z</time>
      </trkpt>
      <trkpt lat="44.11609" lon="5.67866">
        <ele>1178.8</ele>
        <time>2019-11-10T12:00:45Z</time>
      </trkpt>
      <trkpt lat="44.11599" lon="5.67863">
        <ele>1178.2</ele>
        <time>2019-11-10T12:00:52Z</time>
      </trkpt>
      <trkpt lat="44.11591" lon="5.67856">
        <ele>1176.9</ele>
        <time>2019-11-10T12:00:59Z</time>
      </trkpt>
      <trkpt lat="44.11583" lon="5.67847">
        <ele>1176.1</ele>
        <time>2019-11-10T12:01:06Z</time>
      </trkpt>
      <trkpt lat="44.11574" lon="5.67841">
        <ele>1175</ele>
        <time>2019-11-10T12:01:13Z</time>
      </trkpt>
      <trkpt lat="44.11556" lon="5.67832">
        <ele>1172.4</ele>
        <time>2019-11-10T12:01:28Z</time>
      </trkpt>
      <trkpt lat="44.11545" lon="5.67828">
        <ele>1171.3</ele>
        <time>2019-11-10T12:01:34Z</time>
      </trkpt>
      <trkpt lat="44.11537" lon="5.67821">
        <ele>1170.3</ele>
        <time>2019-11-10T12:01:40Z</time>
      </trkpt>
      <trkpt lat="44.11529" lon="5.67812">
        <ele>1169.3</ele>
        <time>2019-11-10T12:01:47Z</time>
      </trkpt>
      <trkpt lat="44.1152" lon="5.67807">
        <ele>1168.8</ele>
        <time>2019-11-10T12:01:54Z</time>
      </trkpt>
      <trkpt lat="44.11512" lon="5.67798">
        <ele>1167.4</ele>
        <time>2019-11-10T12:02:02Z</time>
      </trkpt>
      <trkpt lat="44.11504" lon="5.67791">
        <ele>1166.6</ele>
        <time>2019-11-10T12:02:09Z</time>
      </trkpt>
      <trkpt lat="44.11495" lon="5.67787">
        <ele>1165.7</ele>
        <time>2019-11-10T12:02:16Z</time>
      </trkpt>
      <trkpt lat="44.11476" lon="5.67787">
        <ele>1164.1</ele>
        <time>2019-11-10T12:02:29Z</time>
      </trkpt>
      <trkpt lat="44.11467" lon="5.67787">
        <ele>1163.6</ele>
        <time>2019-11-10T12:02:36Z</time>
      </trkpt>
      <trkpt lat="44.11456" lon="5.67789">
        <ele>1162.9</ele>
        <time>2019-11-10T12:02:43Z</time>
      </trkpt>
      <trkpt lat="44.11447" lon="5.67785">
        <ele>1161.6</ele>
        <time>2019-11-10T12:02:50Z</time>
      </trkpt>
      <trkpt lat="44.11439" lon="5.67777">
        <ele>1161.2</ele>
        <time>2019-11-10T12:02:58Z</time>
      </trkpt>
      <trkpt lat="44.1143" lon="5.67774">
        <ele>1160.2</ele>
        <time>2019-11-10T12:03:04Z</time>
      </trkpt>
      <trkpt lat="44.1142" lon="5.67773">
        <ele>1159.3</ele>
        <time>2019-11-10T12:03:10Z</time>
      </trkpt>
      <trkpt lat="44.1141" lon="5.67769">
        <ele>1158.2</ele>
        <time>2019-11-10T12:03:17Z</time>
      </trkpt>
      <trkpt lat="44.11402" lon="5.67761">
        <ele>1157.8</ele>
        <time>2019-11-10T12:03:22Z</time>
      </trkpt>
      <trkpt lat="44.11384" lon="5.67752">
        <ele>1156.6</ele>
        <time>2019-11-10T12:03:37Z</time>
      </trkpt>
      <trkpt lat="44.11377" lon="5.67744">
        <ele>1156</ele>
        <time>2019-11-10T12:03:44Z</time>
      </trkpt>
      <trkpt lat="44.11367" lon="5.67739">
        <ele>1155.6</ele>
        <time>2019-11-10T12:03:53Z</time>
      </trkpt>
      <trkpt lat="44.11357" lon="5.67736">
        <ele>1155.1</ele>
        <time>2019-11-10T12:03:59Z</time>
      </trkpt>
      <trkpt lat="44.11347" lon="5.67732">
        <ele>1154.4</ele>
        <time>2019-11-10T12:04:05Z</time>
      </trkpt>
      <trkpt lat="44.11339" lon="5.67725">
        <ele>1154.6</ele>
        <time>2019-11-10T12:04:10Z</time>
      </trkpt>
      <trkpt lat="44.1133" lon="5.67722">
        <ele>1154.4</ele>
        <time>2019-11-10T12:04:15Z</time>
      </trkpt>
      <trkpt lat="44.1132" lon="5.67717">
        <ele>1154</ele>
        <time>2019-11-10T12:04:22Z</time>
      </trkpt>
      <trkpt lat="44.11311" lon="5.67713">
        <ele>1153.3</ele>
        <time>2019-11-10T12:04:29Z</time>
      </trkpt>
      <trkpt lat="44.11292" lon="5.67703">
        <ele>1152.5</ele>
        <time>2019-11-10T12:04:43Z</time>
      </trkpt>
      <trkpt lat="44.11284" lon="5.677">
        <ele>1152.4</ele>
        <time>2019-11-10T12:04:49Z</time>
      </trkpt>
      <trkpt lat="44.11274" lon="5.67696">
        <ele>1152</ele>
        <time>2019-11-10T12:04:56Z</time>
      </trkpt>
      <trkpt lat="44.11265" lon="5.67692">
        <ele>1151.4</ele>
        <time>2019-11-10T12:05:03Z</time>
      </trkpt>
      <trkpt lat="44.11256" lon="5.67688">
        <ele>1151.5</ele>
        <time>2019-11-10T12:05:10Z</time>
      </trkpt>
      <trkpt lat="44.11247" lon="5.67684">
        <ele>1151.5</ele>
        <time>2019-11-10T12:05:16Z</time>
      </trkpt>
      <trkpt lat="44.11238" lon="5.67678">
        <ele>1151.4</ele>
        <time>2019-11-10T12:05:24Z</time>
      </trkpt>
      <trkpt lat="44.1123" lon="5.67671">
        <ele>1150.9</ele>
        <time>2019-11-10T12:05:32Z</time>
      </trkpt>
      <trkpt lat="44.11215" lon="5.67654">
        <ele>1150.2</ele>
        <time>2019-11-10T12:05:46Z</time>
      </trkpt>
      <trkpt lat="44.11207" lon="5.67648">
        <ele>1149.9</ele>
        <time>2019-11-10T12:05:52Z</time>
      </trkpt>
      <trkpt lat="44.11198" lon="5.67643">
        <ele>1149.4</ele>
        <time>2019-11-10T12:05:59Z</time>
      </trkpt>
      <trkpt lat="44.1119" lon="5.67636">
        <ele>1148.4</ele>
        <time>2019-11-10T12:06:05Z</time>
      </trkpt>
      <trkpt lat="44.11186" lon="5.67624">
        <ele>1147.5</ele>
        <time>2019-11-10T12:06:12Z</time>
      </trkpt>
      <trkpt lat="44.11184" lon="5.67611">
        <ele>1146.9</ele>
        <time>2019-11-10T12:06:20Z</time>
      </trkpt>
      <trkpt lat="44.11177" lon="5.676">
        <ele>1145.7</ele>
        <time>2019-11-10T12:06:27Z</time>
      </trkpt>
      <trkpt lat="44.11167" lon="5.67596">
        <ele>1144.9</ele>
        <time>2019-11-10T12:06:33Z</time>
      </trkpt>
      <trkpt lat="44.11157" lon="5.67596">
        <ele>1144.1</ele>
        <time>2019-11-10T12:06:39Z</time>
      </trkpt>
      <trkpt lat="44.1114" lon="5.67583">
        <ele>1141.9</ele>
        <time>2019-11-10T12:06:54Z</time>
      </trkpt>
      <trkpt lat="44.11133" lon="5.67573">
        <ele>1140.7</ele>
        <time>2019-11-10T12:07:02Z</time>
      </trkpt>
      <trkpt lat="44.11126" lon="5.67564">
        <ele>1139.9</ele>
        <time>2019-11-10T12:07:09Z</time>
      </trkpt>
      <trkpt lat="44.11115" lon="5.67562">
        <ele>1139.1</ele>
        <time>2019-11-10T12:07:15Z</time>
      </trkpt>
      <trkpt lat="44.11107" lon="5.67557">
        <ele>1138.9</ele>
        <time>2019-11-10T12:07:21Z</time>
      </trkpt>
      <trkpt lat="44.11098" lon="5.67561">
        <ele>1139</ele>
        <time>2019-11-10T12:07:53Z</time>
      </trkpt>
      <trkpt lat="44.11079" lon="5.6756">
        <ele>1140</ele>
        <time>2019-11-10T12:08:10Z</time>
      </trkpt>
      <trkpt lat="44.1107" lon="5.67562">
        <ele>1141.4</ele>
        <time>2019-11-10T12:08:18Z</time>
      </trkpt>
      <trkpt lat="44.11065" lon="5.6755">
        <ele>1142.6</ele>
        <time>2019-11-10T12:08:27Z</time>
      </trkpt>
      <trkpt lat="44.11059" lon="5.67539">
        <ele>1143.7</ele>
        <time>2019-11-10T12:08:36Z</time>
      </trkpt>
      <trkpt lat="44.11049" lon="5.67541">
        <ele>1144.1</ele>
        <time>2019-11-10T12:08:42Z</time>
      </trkpt>
      <trkpt lat="44.11039" lon="5.67539">
        <ele>1144.9</ele>
        <time>2019-11-10T12:08:49Z</time>
      </trkpt>
      <trkpt lat="44.11029" lon="5.67534">
        <ele>1145.5</ele>
        <time>2019-11-10T12:08:56Z</time>
      </trkpt>
      <trkpt lat="44.11012" lon="5.67525">
        <ele>1146.6</ele>
        <time>2019-11-10T12:09:10Z</time>
      </trkpt>
      <trkpt lat="44.11003" lon="5.67521">
        <ele>1146.9</ele>
        <time>2019-11-10T12:09:17Z</time>
      </trkpt>
      <trkpt lat="44.10994" lon="5.67513">
        <ele>1147.6</ele>
        <time>2019-11-10T12:09:25Z</time>
      </trkpt>
      <trkpt lat="44.10985" lon="5.67508">
        <ele>1148.1</ele>
        <time>2019-11-10T12:09:32Z</time>
      </trkpt>
      <trkpt lat="44.10976" lon="5.67507">
        <ele>1148.9</ele>
        <time>2019-11-10T12:09:38Z</time>
      </trkpt>
      <trkpt lat="44.10967" lon="5.67504">
        <ele>1150.2</ele>
        <time>2019-11-10T12:09:45Z</time>
      </trkpt>
      <trkpt lat="44.10957" lon="5.67505">
        <ele>1151.4</ele>
        <time>2019-11-10T12:09:52Z</time>
      </trkpt>
      <trkpt lat="44.10947" lon="5.67509">
        <ele>1153.2</ele>
        <time>2019-11-10T12:10:00Z</time>
      </trkpt>
      <trkpt lat="44.1093" lon="5.67522">
        <ele>1156.6</ele>
        <time>2019-11-10T12:10:16Z</time>
      </trkpt>
      <trkpt lat="44.10922" lon="5.6753">
        <ele>1158</ele>
        <time>2019-11-10T12:10:24Z</time>
      </trkpt>
      <trkpt lat="44.10913" lon="5.67537">
        <ele>1159.1</ele>
        <time>2019-11-10T12:10:32Z</time>
      </trkpt>
      <trkpt lat="44.10905" lon="5.67545">
        <ele>1159.9</ele>
        <time>2019-11-10T12:10:39Z</time>
      </trkpt>
      <trkpt lat="44.10897" lon="5.67553">
        <ele>1160.4</ele>
        <time>2019-11-10T12:10:46Z</time>
      </trkpt>
      <trkpt lat="44.10889" lon="5.67563">
        <ele>1160.9</ele>
        <time>2019-11-10T12:10:53Z</time>
      </trkpt>
      <trkpt lat="44.10882" lon="5.67572">
        <ele>1160.8</ele>
        <time>2019-11-10T12:11:00Z</time>
      </trkpt>
      <trkpt lat="44.10875" lon="5.67581">
        <ele>1161.2</ele>
        <time>2019-11-10T12:11:07Z</time>
      </trkpt>
      <trkpt lat="44.10861" lon="5.676">
        <ele>1162.5</ele>
        <time>2019-11-10T12:11:24Z</time>
      </trkpt>
      <trkpt lat="44.10852" lon="5.67608">
        <ele>1162.8</ele>
        <time>2019-11-10T12:11:30Z</time>
      </trkpt>
      <trkpt lat="44.10845" lon="5.67616">
        <ele>1163.8</ele>
        <time>2019-11-10T12:11:36Z</time>
      </trkpt>
      <trkpt lat="44.10838" lon="5.67625">
        <ele>1164.3</ele>
        <time>2019-11-10T12:11:42Z</time>
      </trkpt>
      <trkpt lat="44.1083" lon="5.67632">
        <ele>1165</ele>
        <time>2019-11-10T12:11:49Z</time>
      </trkpt>
      <trkpt lat="44.10822" lon="5.67638">
        <ele>1165.5</ele>
        <time>2019-11-10T12:11:56Z</time>
      </trkpt>
      <trkpt lat="44.10813" lon="5.67642">
        <ele>1167</ele>
        <time>2019-11-10T12:12:04Z</time>
      </trkpt>
      <trkpt lat="44.10803" lon="5.67646">
        <ele>1168.1</ele>
        <time>2019-11-10T12:12:12Z</time>
      </trkpt>
      <trkpt lat="44.10784" lon="5.67646">
        <ele>1170.8</ele>
        <time>2019-11-10T12:12:29Z</time>
      </trkpt>
      <trkpt lat="44.10774" lon="5.67644">
        <ele>1171.2</ele>
        <time>2019-11-10T12:12:36Z</time>
      </trkpt>
      <trkpt lat="44.10765" lon="5.6764">
        <ele>1171.3</ele>
        <time>2019-11-10T12:12:42Z</time>
      </trkpt>
      <trkpt lat="44.10755" lon="5.67639">
        <ele>1171.7</ele>
        <time>2019-11-10T12:12:49Z</time>
      </trkpt>
      <trkpt lat="44.10745" lon="5.67638">
        <ele>1171.8</ele>
        <time>2019-11-10T12:12:57Z</time>
      </trkpt>
      <trkpt lat="44.10736" lon="5.67635">
        <ele>1172.1</ele>
        <time>2019-11-10T12:13:04Z</time>
      </trkpt>
      <trkpt lat="44.10726" lon="5.67634">
        <ele>1172.8</ele>
        <time>2019-11-10T12:13:11Z</time>
      </trkpt>
      <trkpt lat="44.10717" lon="5.67633">
        <ele>1173.2</ele>
        <time>2019-11-10T12:13:18Z</time>
      </trkpt>
      <trkpt lat="44.10698" lon="5.67631">
        <ele>1173.8</ele>
        <time>2019-11-10T12:13:32Z</time>
      </trkpt>
      <trkpt lat="44.10689" lon="5.67631">
        <ele>1174.1</ele>
        <time>2019-11-10T12:13:40Z</time>
      </trkpt>
      <trkpt lat="44.10679" lon="5.67627">
        <ele>1174.6</ele>
        <time>2019-11-10T12:13:47Z</time>
      </trkpt>
      <trkpt lat="44.1067" lon="5.6762">
        <ele>1175.2</ele>
        <time>2019-11-10T12:13:54Z</time>
      </trkpt>
      <trkpt lat="44.10663" lon="5.67612">
        <ele>1175.7</ele>
        <time>2019-11-10T12:14:02Z</time>
      </trkpt>
      <trkpt lat="44.10654" lon="5.67605">
        <ele>1176.6</ele>
        <time>2019-11-10T12:14:11Z</time>
      </trkpt>
      <trkpt lat="44.10644" lon="5.67607">
        <ele>1176.9</ele>
        <time>2019-11-10T12:14:17Z</time>
      </trkpt>
      <trkpt lat="44.10634" lon="5.67608">
        <ele>1176.3</ele>
        <time>2019-11-10T12:14:24Z</time>
      </trkpt>
      <trkpt lat="44.10615" lon="5.67605">
        <ele>1176.6</ele>
        <time>2019-11-10T12:14:38Z</time>
      </trkpt>
      <trkpt lat="44.10606" lon="5.676">
        <ele>1177</ele>
        <time>2019-11-10T12:14:44Z</time>
      </trkpt>
      <trkpt lat="44.10596" lon="5.67596">
        <ele>1177.2</ele>
        <time>2019-11-10T12:14:51Z</time>
      </trkpt>
      <trkpt lat="44.10587" lon="5.67594">
        <ele>1177.3</ele>
        <time>2019-11-10T12:14:57Z</time>
      </trkpt>
      <trkpt lat="44.10577" lon="5.6759">
        <ele>1177.5</ele>
        <time>2019-11-10T12:15:04Z</time>
      </trkpt>
      <trkpt lat="44.10567" lon="5.67587">
        <ele>1177.6</ele>
        <time>2019-11-10T12:15:11Z</time>
      </trkpt>
      <trkpt lat="44.10559" lon="5.67582">
        <ele>1177.6</ele>
        <time>2019-11-10T12:15:17Z</time>
      </trkpt>
      <trkpt lat="44.10551" lon="5.67575">
        <ele>1177.6</ele>
        <time>2019-11-10T12:15:24Z</time>
      </trkpt>
      <trkpt lat="44.10546" lon="5.67565">
        <ele>1178.6</ele>
        <time>2019-11-10T12:15:43Z</time>
      </trkpt>
      <trkpt lat="44.10551" lon="5.67553">
        <ele>1176.7</ele>
        <time>2019-11-10T12:22:10Z</time>
      </trkpt>
      <trkpt lat="44.10556" lon="5.67554">
        <ele>1176</ele>
        <time>2019-11-10T12:24:15Z</time>
      </trkpt>
      <trkpt lat="44.10541" lon="5.67548">
        <ele>1165.6</ele>
        <time>2019-11-10T13:16:02Z</time>
      </trkpt>
      <trkpt lat="44.10551" lon="5.67569">
        <ele>1163.9</ele>
        <time>2019-11-10T13:18:49Z</time>
      </trkpt>
      <trkpt lat="44.10539" lon="5.67589">
        <ele>1161.9</ele>
        <time>2019-11-10T13:20:07Z</time>
      </trkpt>
      <trkpt lat="44.10526" lon="5.67609">
        <ele>1160.4</ele>
        <time>2019-11-10T13:20:22Z</time>
      </trkpt>
      <trkpt lat="44.10522" lon="5.6762">
        <ele>1159.5</ele>
        <time>2019-11-10T13:20:29Z</time>
      </trkpt>
      <trkpt lat="44.10517" lon="5.67633">
        <ele>1158.5</ele>
        <time>2019-11-10T13:20:35Z</time>
      </trkpt>
      <trkpt lat="44.10509" lon="5.67628">
        <ele>1158.8</ele>
        <time>2019-11-10T13:20:43Z</time>
      </trkpt>
      <trkpt lat="44.105" lon="5.67623">
        <ele>1159.4</ele>
        <time>2019-11-10T13:20:51Z</time>
      </trkpt>
      <trkpt lat="44.10491" lon="5.6762">
        <ele>1160.1</ele>
        <time>2019-11-10T13:20:58Z</time>
      </trkpt>
      <trkpt lat="44.10481" lon="5.67617">
        <ele>1160.9</ele>
        <time>2019-11-10T13:21:06Z</time>
      </trkpt>
      <trkpt lat="44.10472" lon="5.67616">
        <ele>1161.6</ele>
        <time>2019-11-10T13:21:13Z</time>
      </trkpt>
      <trkpt lat="44.10453" lon="5.67614">
        <ele>1163</ele>
        <time>2019-11-10T13:21:28Z</time>
      </trkpt>
      <trkpt lat="44.10443" lon="5.67613">
        <ele>1162.9</ele>
        <time>2019-11-10T13:21:36Z</time>
      </trkpt>
      <trkpt lat="44.10434" lon="5.67611">
        <ele>1163.7</ele>
        <time>2019-11-10T13:21:44Z</time>
      </trkpt>
      <trkpt lat="44.10424" lon="5.6761">
        <ele>1164.1</ele>
        <time>2019-11-10T13:21:52Z</time>
      </trkpt>
      <trkpt lat="44.10414" lon="5.67608">
        <ele>1164.6</ele>
        <time>2019-11-10T13:22:00Z</time>
      </trkpt>
      <trkpt lat="44.10404" lon="5.67609">
        <ele>1164.3</ele>
        <time>2019-11-10T13:22:08Z</time>
      </trkpt>
      <trkpt lat="44.10395" lon="5.67614">
        <ele>1164.3</ele>
        <time>2019-11-10T13:22:16Z</time>
      </trkpt>
      <trkpt lat="44.10376" lon="5.6762">
        <ele>1163.6</ele>
        <time>2019-11-10T13:22:31Z</time>
      </trkpt>
      <trkpt lat="44.10369" lon="5.67628">
        <ele>1163.5</ele>
        <time>2019-11-10T13:22:38Z</time>
      </trkpt>
      <trkpt lat="44.1036" lon="5.67632">
        <ele>1162.9</ele>
        <time>2019-11-10T13:22:53Z</time>
      </trkpt>
      <trkpt lat="44.10351" lon="5.67636">
        <ele>1162.4</ele>
        <time>2019-11-10T13:23:00Z</time>
      </trkpt>
      <trkpt lat="44.10342" lon="5.67639">
        <ele>1162</ele>
        <time>2019-11-10T13:23:06Z</time>
      </trkpt>
      <trkpt lat="44.10332" lon="5.67643">
        <ele>1161.6</ele>
        <time>2019-11-10T13:23:13Z</time>
      </trkpt>
      <trkpt lat="44.10323" lon="5.67645">
        <ele>1161.1</ele>
        <time>2019-11-10T13:23:19Z</time>
      </trkpt>
      <trkpt lat="44.10304" lon="5.67648">
        <ele>1161.1</ele>
        <time>2019-11-10T13:23:32Z</time>
      </trkpt>
      <trkpt lat="44.10294" lon="5.6765">
        <ele>1161</ele>
        <time>2019-11-10T13:23:38Z</time>
      </trkpt>
      <trkpt lat="44.10284" lon="5.67652">
        <ele>1160.9</ele>
        <time>2019-11-10T13:23:45Z</time>
      </trkpt>
      <trkpt lat="44.10274" lon="5.67655">
        <ele>1161.2</ele>
        <time>2019-11-10T13:23:52Z</time>
      </trkpt>
      <trkpt lat="44.10264" lon="5.67658">
        <ele>1161.5</ele>
        <time>2019-11-10T13:23:59Z</time>
      </trkpt>
      <trkpt lat="44.10255" lon="5.67659">
        <ele>1162.2</ele>
        <time>2019-11-10T13:24:06Z</time>
      </trkpt>
      <trkpt lat="44.10245" lon="5.67662">
        <ele>1162.6</ele>
        <time>2019-11-10T13:24:13Z</time>
      </trkpt>
      <trkpt lat="44.10235" lon="5.67666">
        <ele>1163.6</ele>
        <time>2019-11-10T13:24:21Z</time>
      </trkpt>
      <trkpt lat="44.10217" lon="5.67671">
        <ele>1164.7</ele>
        <time>2019-11-10T13:24:34Z</time>
      </trkpt>
      <trkpt lat="44.10207" lon="5.67673">
        <ele>1165.3</ele>
        <time>2019-11-10T13:24:41Z</time>
      </trkpt>
      <trkpt lat="44.10198" lon="5.67676">
        <ele>1166.2</ele>
        <time>2019-11-10T13:24:49Z</time>
      </trkpt>
      <trkpt lat="44.10188" lon="5.67679">
        <ele>1166.9</ele>
        <time>2019-11-10T13:24:56Z</time>
      </trkpt>
      <trkpt lat="44.10179" lon="5.67681">
        <ele>1167.3</ele>
        <time>2019-11-10T13:25:03Z</time>
      </trkpt>
      <trkpt lat="44.1017" lon="5.67683">
        <ele>1167.9</ele>
        <time>2019-11-10T13:25:10Z</time>
      </trkpt>
      <trkpt lat="44.10161" lon="5.67685">
        <ele>1168.1</ele>
        <time>2019-11-10T13:25:16Z</time>
      </trkpt>
      <trkpt lat="44.10151" lon="5.67689">
        <ele>1168.6</ele>
        <time>2019-11-10T13:25:23Z</time>
      </trkpt>
      <trkpt lat="44.10136" lon="5.67702">
        <ele>1169.7</ele>
        <time>2019-11-10T13:25:36Z</time>
      </trkpt>
      <trkpt lat="44.10128" lon="5.67711">
        <ele>1169.8</ele>
        <time>2019-11-10T13:25:43Z</time>
      </trkpt>
      <trkpt lat="44.10119" lon="5.67715">
        <ele>1169.9</ele>
        <time>2019-11-10T13:25:49Z</time>
      </trkpt>
      <trkpt lat="44.1011" lon="5.67719">
        <ele>1169.9</ele>
        <time>2019-11-10T13:25:56Z</time>
      </trkpt>
      <trkpt lat="44.10102" lon="5.67725">
        <ele>1169.5</ele>
        <time>2019-11-10T13:26:03Z</time>
      </trkpt>
      <trkpt lat="44.10093" lon="5.67731">
        <ele>1169.5</ele>
        <time>2019-11-10T13:26:10Z</time>
      </trkpt>
      <trkpt lat="44.10085" lon="5.67739">
        <ele>1169.1</ele>
        <time>2019-11-10T13:26:16Z</time>
      </trkpt>
      <trkpt lat="44.10077" lon="5.67746">
        <ele>1168.9</ele>
        <time>2019-11-10T13:26:22Z</time>
      </trkpt>
      <trkpt lat="44.10069" lon="5.67755">
        <ele>1168.4</ele>
        <time>2019-11-10T13:26:29Z</time>
      </trkpt>
      <trkpt lat="44.10053" lon="5.67772">
        <ele>1166.6</ele>
        <time>2019-11-10T13:26:43Z</time>
      </trkpt>
      <trkpt lat="44.10045" lon="5.67779">
        <ele>1165.7</ele>
        <time>2019-11-10T13:26:50Z</time>
      </trkpt>
      <trkpt lat="44.10038" lon="5.67788">
        <ele>1165.2</ele>
        <time>2019-11-10T13:26:57Z</time>
      </trkpt>
      <trkpt lat="44.10031" lon="5.67796">
        <ele>1164.1</ele>
        <time>2019-11-10T13:27:03Z</time>
      </trkpt>
      <trkpt lat="44.10024" lon="5.67804">
        <ele>1162.6</ele>
        <time>2019-11-10T13:27:09Z</time>
      </trkpt>
      <trkpt lat="44.10016" lon="5.67811">
        <ele>1161.6</ele>
        <time>2019-11-10T13:27:16Z</time>
      </trkpt>
      <trkpt lat="44.10008" lon="5.67818">
        <ele>1160.5</ele>
        <time>2019-11-10T13:27:23Z</time>
      </trkpt>
      <trkpt lat="44.1" lon="5.67826">
        <ele>1159.7</ele>
        <time>2019-11-10T13:27:30Z</time>
      </trkpt>
      <trkpt lat="44.09982" lon="5.67836">
        <ele>1157.3</ele>
        <time>2019-11-10T13:27:45Z</time>
      </trkpt>
      <trkpt lat="44.09972" lon="5.67839">
        <ele>1156.7</ele>
        <time>2019-11-10T13:27:54Z</time>
      </trkpt>
      <trkpt lat="44.09963" lon="5.67844">
        <ele>1155.5</ele>
        <time>2019-11-10T13:28:02Z</time>
      </trkpt>
      <trkpt lat="44.09954" lon="5.67848">
        <ele>1154.1</ele>
        <time>2019-11-10T13:28:10Z</time>
      </trkpt>
      <trkpt lat="44.09945" lon="5.67852">
        <ele>1153.1</ele>
        <time>2019-11-10T13:28:17Z</time>
      </trkpt>
      <trkpt lat="44.09937" lon="5.67858">
        <ele>1152.3</ele>
        <time>2019-11-10T13:28:24Z</time>
      </trkpt>
      <trkpt lat="44.09927" lon="5.67862">
        <ele>1151.1</ele>
        <time>2019-11-10T13:28:32Z</time>
      </trkpt>
      <trkpt lat="44.09909" lon="5.67869">
        <ele>1149.7</ele>
        <time>2019-11-10T13:28:48Z</time>
      </trkpt>
      <trkpt lat="44.099" lon="5.67876">
        <ele>1148.7</ele>
        <time>2019-11-10T13:28:55Z</time>
      </trkpt>
      <trkpt lat="44.09892" lon="5.67881">
        <ele>1148</ele>
        <time>2019-11-10T13:29:02Z</time>
      </trkpt>
      <trkpt lat="44.09882" lon="5.67882">
        <ele>1146.2</ele>
        <time>2019-11-10T13:29:10Z</time>
      </trkpt>
      <trkpt lat="44.09873" lon="5.67884">
        <ele>1144.6</ele>
        <time>2019-11-10T13:29:18Z</time>
      </trkpt>
      <trkpt lat="44.09864" lon="5.6789">
        <ele>1143.4</ele>
        <time>2019-11-10T13:29:28Z</time>
      </trkpt>
      <trkpt lat="44.09856" lon="5.67896">
        <ele>1142.4</ele>
        <time>2019-11-10T13:29:35Z</time>
      </trkpt>
      <trkpt lat="44.09838" lon="5.67907">
        <ele>1140.1</ele>
        <time>2019-11-10T13:29:50Z</time>
      </trkpt>
      <trkpt lat="44.09829" lon="5.67908">
        <ele>1137.8</ele>
        <time>2019-11-10T13:30:19Z</time>
      </trkpt>
      <trkpt lat="44.0982" lon="5.67908">
        <ele>1136.5</ele>
        <time>2019-11-10T13:30:26Z</time>
      </trkpt>
      <trkpt lat="44.0981" lon="5.67905">
        <ele>1135.1</ele>
        <time>2019-11-10T13:30:34Z</time>
      </trkpt>
      <trkpt lat="44.09804" lon="5.67896">
        <ele>1134.5</ele>
        <time>2019-11-10T13:30:43Z</time>
      </trkpt>
      <trkpt lat="44.09788" lon="5.67881">
        <ele>1131.7</ele>
        <time>2019-11-10T13:31:44Z</time>
      </trkpt>
      <trkpt lat="44.0977" lon="5.67875">
        <ele>1129</ele>
        <time>2019-11-10T13:32:27Z</time>
      </trkpt>
      <trkpt lat="44.09762" lon="5.67868">
        <ele>1127.5</ele>
        <time>2019-11-10T13:32:33Z</time>
      </trkpt>
      <trkpt lat="44.09753" lon="5.67862">
        <ele>1125.4</ele>
        <time>2019-11-10T13:32:40Z</time>
      </trkpt>
      <trkpt lat="44.09746" lon="5.67854">
        <ele>1123.6</ele>
        <time>2019-11-10T13:32:48Z</time>
      </trkpt>
      <trkpt lat="44.09728" lon="5.67844">
        <ele>1120.8</ele>
        <time>2019-11-10T13:33:03Z</time>
      </trkpt>
      <trkpt lat="44.09718" lon="5.67845">
        <ele>1119.9</ele>
        <time>2019-11-10T13:33:12Z</time>
      </trkpt>
      <trkpt lat="44.09709" lon="5.67851">
        <ele>1119.2</ele>
        <time>2019-11-10T13:33:20Z</time>
      </trkpt>
      <trkpt lat="44.097" lon="5.67854">
        <ele>1118</ele>
        <time>2019-11-10T13:33:28Z</time>
      </trkpt>
      <trkpt lat="44.09691" lon="5.67857">
        <ele>1116.8</ele>
        <time>2019-11-10T13:33:38Z</time>
      </trkpt>
      <trkpt lat="44.09683" lon="5.67865">
        <ele>1115.9</ele>
        <time>2019-11-10T13:33:46Z</time>
      </trkpt>
      <trkpt lat="44.09678" lon="5.67876">
        <ele>1114.8</ele>
        <time>2019-11-10T13:34:01Z</time>
      </trkpt>
      <trkpt lat="44.0966" lon="5.67884">
        <ele>1111.2</ele>
        <time>2019-11-10T13:34:24Z</time>
      </trkpt>
      <trkpt lat="44.09652" lon="5.67891">
        <ele>1109.3</ele>
        <time>2019-11-10T13:34:33Z</time>
      </trkpt>
      <trkpt lat="44.09643" lon="5.67896">
        <ele>1107.6</ele>
        <time>2019-11-10T13:34:40Z</time>
      </trkpt>
      <trkpt lat="44.09636" lon="5.67904">
        <ele>1106.3</ele>
        <time>2019-11-10T13:34:47Z</time>
      </trkpt>
      <trkpt lat="44.09626" lon="5.67908">
        <ele>1104.6</ele>
        <time>2019-11-10T13:34:56Z</time>
      </trkpt>
      <trkpt lat="44.09617" lon="5.67912">
        <ele>1102.8</ele>
        <time>2019-11-10T13:35:04Z</time>
      </trkpt>
      <trkpt lat="44.09601" lon="5.67928">
        <ele>1098.4</ele>
        <time>2019-11-10T13:35:21Z</time>
      </trkpt>
      <trkpt lat="44.09592" lon="5.67931">
        <ele>1096.5</ele>
        <time>2019-11-10T13:36:09Z</time>
      </trkpt>
      <trkpt lat="44.09572" lon="5.67938">
        <ele>1093.1</ele>
        <time>2019-11-10T13:36:24Z</time>
      </trkpt>
      <trkpt lat="44.09562" lon="5.67942">
        <ele>1091.6</ele>
        <time>2019-11-10T13:36:30Z</time>
      </trkpt>
      <trkpt lat="44.09552" lon="5.67949">
        <ele>1089.2</ele>
        <time>2019-11-10T13:36:39Z</time>
      </trkpt>
      <trkpt lat="44.09543" lon="5.67958">
        <ele>1086.7</ele>
        <time>2019-11-10T13:36:47Z</time>
      </trkpt>
      <trkpt lat="44.09535" lon="5.67964">
        <ele>1084.8</ele>
        <time>2019-11-10T13:36:53Z</time>
      </trkpt>
      <trkpt lat="44.09527" lon="5.67968">
        <ele>1082.8</ele>
        <time>2019-11-10T13:37:01Z</time>
      </trkpt>
      <trkpt lat="44.09518" lon="5.67975">
        <ele>1079.9</ele>
        <time>2019-11-10T13:37:09Z</time>
      </trkpt>
      <trkpt lat="44.09511" lon="5.67984">
        <ele>1078.1</ele>
        <time>2019-11-10T13:37:17Z</time>
      </trkpt>
      <trkpt lat="44.09492" lon="5.67991">
        <ele>1074.7</ele>
        <time>2019-11-10T13:37:32Z</time>
      </trkpt>
      <trkpt lat="44.09482" lon="5.67995">
        <ele>1072.1</ele>
        <time>2019-11-10T13:38:44Z</time>
      </trkpt>
      <trkpt lat="44.09463" lon="5.67998">
        <ele>1068.9</ele>
        <time>2019-11-10T13:38:58Z</time>
      </trkpt>
      <trkpt lat="44.09454" lon="5.68001">
        <ele>1067.8</ele>
        <time>2019-11-10T13:39:03Z</time>
      </trkpt>
      <trkpt lat="44.09445" lon="5.68">
        <ele>1065.8</ele>
        <time>2019-11-10T13:39:10Z</time>
      </trkpt>
      <trkpt lat="44.09435" lon="5.68005">
        <ele>1063.3</ele>
        <time>2019-11-10T13:39:17Z</time>
      </trkpt>
      <trkpt lat="44.09427" lon="5.68009">
        <ele>1061.6</ele>
        <time>2019-11-10T13:39:25Z</time>
      </trkpt>
      <trkpt lat="44.09418" lon="5.68006">
        <ele>1059.7</ele>
        <time>2019-11-10T13:39:33Z</time>
      </trkpt>
      <trkpt lat="44.09408" lon="5.68009">
        <ele>1057.2</ele>
        <time>2019-11-10T13:39:41Z</time>
      </trkpt>
      <trkpt lat="44.09399" lon="5.68011">
        <ele>1056</ele>
        <time>2019-11-10T13:39:48Z</time>
      </trkpt>
      <trkpt lat="44.0938" lon="5.68006">
        <ele>1051.9</ele>
        <time>2019-11-10T13:40:07Z</time>
      </trkpt>
      <trkpt lat="44.09371" lon="5.6801">
        <ele>1050.1</ele>
        <time>2019-11-10T13:40:15Z</time>
      </trkpt>
      <trkpt lat="44.09362" lon="5.68011">
        <ele>1047.7</ele>
        <time>2019-11-10T13:40:33Z</time>
      </trkpt>
      <trkpt lat="44.09354" lon="5.68016">
        <ele>1045.6</ele>
        <time>2019-11-10T13:40:53Z</time>
      </trkpt>
      <trkpt lat="44.09336" lon="5.68018">
        <ele>1040.6</ele>
        <time>2019-11-10T13:41:15Z</time>
      </trkpt>
      <trkpt lat="44.09327" lon="5.68015">
        <ele>1037.9</ele>
        <time>2019-11-10T13:41:27Z</time>
      </trkpt>
      <trkpt lat="44.09318" lon="5.68015">
        <ele>1035.2</ele>
        <time>2019-11-10T13:41:41Z</time>
      </trkpt>
      <trkpt lat="44.09309" lon="5.68021">
        <ele>1032.3</ele>
        <time>2019-11-10T13:41:57Z</time>
      </trkpt>
      <trkpt lat="44.09292" lon="5.68027">
        <ele>1026</ele>
        <time>2019-11-10T13:42:31Z</time>
      </trkpt>
      <trkpt lat="44.09282" lon="5.68029">
        <ele>1022.2</ele>
        <time>2019-11-10T13:42:46Z</time>
      </trkpt>
      <trkpt lat="44.09273" lon="5.68031">
        <ele>1018.7</ele>
        <time>2019-11-10T13:42:59Z</time>
      </trkpt>
      <trkpt lat="44.09257" lon="5.68044">
        <ele>1015.2</ele>
        <time>2019-11-10T13:43:32Z</time>
      </trkpt>
      <trkpt lat="44.09248" lon="5.68049">
        <ele>1011.3</ele>
        <time>2019-11-10T13:43:44Z</time>
      </trkpt>
      <trkpt lat="44.09239" lon="5.68054">
        <ele>1009.1</ele>
        <time>2019-11-10T13:43:52Z</time>
      </trkpt>
      <trkpt lat="44.0923" lon="5.68059">
        <ele>1006</ele>
        <time>2019-11-10T13:44:02Z</time>
      </trkpt>
      <trkpt lat="44.09213" lon="5.68068">
        <ele>1000.6</ele>
        <time>2019-11-10T13:44:21Z</time>
      </trkpt>
      <trkpt lat="44.09203" lon="5.68069">
        <ele>997.9</ele>
        <time>2019-11-10T13:44:32Z</time>
      </trkpt>
      <trkpt lat="44.09196" lon="5.68076">
        <ele>996</ele>
        <time>2019-11-10T13:44:42Z</time>
      </trkpt>
      <trkpt lat="44.09187" lon="5.68083">
        <ele>993.5</ele>
        <time>2019-11-10T13:44:59Z</time>
      </trkpt>
      <trkpt lat="44.0918" lon="5.68092">
        <ele>991.2</ele>
        <time>2019-11-10T13:45:08Z</time>
      </trkpt>
      <trkpt lat="44.09168" lon="5.68112">
        <ele>988.1</ele>
        <time>2019-11-10T13:45:21Z</time>
      </trkpt>
      <trkpt lat="44.09164" lon="5.68124">
        <ele>986.9</ele>
        <time>2019-11-10T13:45:30Z</time>
      </trkpt>
      <trkpt lat="44.09159" lon="5.68136">
        <ele>985.6</ele>
        <time>2019-11-10T13:45:47Z</time>
      </trkpt>
      <trkpt lat="44.09154" lon="5.68147">
        <ele>984</ele>
        <time>2019-11-10T13:45:54Z</time>
      </trkpt>
      <trkpt lat="44.09146" lon="5.68156">
        <ele>980.8</ele>
        <time>2019-11-10T13:46:08Z</time>
      </trkpt>
      <trkpt lat="44.09138" lon="5.68161">
        <ele>978.6</ele>
        <time>2019-11-10T13:46:31Z</time>
      </trkpt>
      <trkpt lat="44.09121" lon="5.68175">
        <ele>972.8</ele>
        <time>2019-11-10T13:47:08Z</time>
      </trkpt>
      <trkpt lat="44.09117" lon="5.68187">
        <ele>971.9</ele>
        <time>2019-11-10T13:47:13Z</time>
      </trkpt>
      <trkpt lat="44.09114" lon="5.68199">
        <ele>969.5</ele>
        <time>2019-11-10T13:47:20Z</time>
      </trkpt>
      <trkpt lat="44.09113" lon="5.68213">
        <ele>966.9</ele>
        <time>2019-11-10T13:47:31Z</time>
      </trkpt>
      <trkpt lat="44.09113" lon="5.68226">
        <ele>964.8</ele>
        <time>2019-11-10T13:47:40Z</time>
      </trkpt>
      <trkpt lat="44.09117" lon="5.6825">
        <ele>960.8</ele>
        <time>2019-11-10T13:48:07Z</time>
      </trkpt>
      <trkpt lat="44.09119" lon="5.68263">
        <ele>958.2</ele>
        <time>2019-11-10T13:48:17Z</time>
      </trkpt>
      <trkpt lat="44.09121" lon="5.68276">
        <ele>955.4</ele>
        <time>2019-11-10T13:48:27Z</time>
      </trkpt>
      <trkpt lat="44.09128" lon="5.68285">
        <ele>953.3</ele>
        <time>2019-11-10T13:48:45Z</time>
      </trkpt>
      <trkpt lat="44.0914" lon="5.68305">
        <ele>949.1</ele>
        <time>2019-11-10T13:49:05Z</time>
      </trkpt>
      <trkpt lat="44.09145" lon="5.68317">
        <ele>947.9</ele>
        <time>2019-11-10T13:49:44Z</time>
      </trkpt>
      <trkpt lat="44.09153" lon="5.68326">
        <ele>945.9</ele>
        <time>2019-11-10T13:50:15Z</time>
      </trkpt>
      <trkpt lat="44.09158" lon="5.68351">
        <ele>942.9</ele>
        <time>2019-11-10T13:50:49Z</time>
      </trkpt>
      <trkpt lat="44.09163" lon="5.68363">
        <ele>940.5</ele>
        <time>2019-11-10T13:50:57Z</time>
      </trkpt>
      <trkpt lat="44.09168" lon="5.68374">
        <ele>938</ele>
        <time>2019-11-10T13:51:07Z</time>
      </trkpt>
      <trkpt lat="44.09173" lon="5.68385">
        <ele>936.2</ele>
        <time>2019-11-10T13:51:16Z</time>
      </trkpt>
      <trkpt lat="44.09185" lon="5.68404">
        <ele>932.8</ele>
        <time>2019-11-10T13:51:48Z</time>
      </trkpt>
      <trkpt lat="44.09188" lon="5.68416">
        <ele>929.9</ele>
        <time>2019-11-10T13:52:08Z</time>
      </trkpt>
      <trkpt lat="44.09189" lon="5.68429">
        <ele>927.2</ele>
        <time>2019-11-10T13:52:17Z</time>
      </trkpt>
      <trkpt lat="44.09189" lon="5.68455">
        <ele>921.9</ele>
        <time>2019-11-10T13:52:36Z</time>
      </trkpt>
      <trkpt lat="44.09193" lon="5.68468">
        <ele>919.5</ele>
        <time>2019-11-10T13:52:51Z</time>
      </trkpt>
      <trkpt lat="44.09196" lon="5.68481">
        <ele>917.5</ele>
        <time>2019-11-10T13:52:58Z</time>
      </trkpt>
      <trkpt lat="44.09199" lon="5.68494">
        <ele>914.7</ele>
        <time>2019-11-10T13:53:06Z</time>
      </trkpt>
      <trkpt lat="44.09203" lon="5.68506">
        <ele>912.8</ele>
        <time>2019-11-10T13:53:21Z</time>
      </trkpt>
      <trkpt lat="44.09213" lon="5.68527">
        <ele>909</ele>
        <time>2019-11-10T13:53:36Z</time>
      </trkpt>
      <trkpt lat="44.09218" lon="5.68538">
        <ele>907.1</ele>
        <time>2019-11-10T13:53:44Z</time>
      </trkpt>
      <trkpt lat="44.09222" lon="5.68551">
        <ele>905.3</ele>
        <time>2019-11-10T13:54:00Z</time>
      </trkpt>
      <trkpt lat="44.09227" lon="5.68562">
        <ele>903.1</ele>
        <time>2019-11-10T13:54:08Z</time>
      </trkpt>
      <trkpt lat="44.09233" lon="5.68572">
        <ele>901.4</ele>
        <time>2019-11-10T13:54:18Z</time>
      </trkpt>
      <trkpt lat="44.09239" lon="5.68583">
        <ele>899.9</ele>
        <time>2019-11-10T13:54:30Z</time>
      </trkpt>
      <trkpt lat="44.0924" lon="5.68607">
        <ele>895.5</ele>
        <time>2019-11-10T13:54:50Z</time>
      </trkpt>
      <trkpt lat="44.09245" lon="5.6862">
        <ele>893.8</ele>
        <time>2019-11-10T13:54:58Z</time>
      </trkpt>
      <trkpt lat="44.09255" lon="5.68623">
        <ele>892.6</ele>
        <time>2019-11-10T13:55:04Z</time>
      </trkpt>
      <trkpt lat="44.09262" lon="5.68634">
        <ele>891</ele>
        <time>2019-11-10T13:55:21Z</time>
      </trkpt>
      <trkpt lat="44.09263" lon="5.68647">
        <ele>890.1</ele>
        <time>2019-11-10T13:55:28Z</time>
      </trkpt>
      <trkpt lat="44.09261" lon="5.6866">
        <ele>889</ele>
        <time>2019-11-10T13:55:35Z</time>
      </trkpt>
      <trkpt lat="44.09264" lon="5.68687">
        <ele>887.4</ele>
        <time>2019-11-10T13:55:48Z</time>
      </trkpt>
      <trkpt lat="44.09266" lon="5.687">
        <ele>886.7</ele>
        <time>2019-11-10T13:55:54Z</time>
      </trkpt>
      <trkpt lat="44.09269" lon="5.68713">
        <ele>886.2</ele>
        <time>2019-11-10T13:56:01Z</time>
      </trkpt>
      <trkpt lat="44.09272" lon="5.68726">
        <ele>886.8</ele>
        <time>2019-11-10T13:57:11Z</time>
      </trkpt>
      <trkpt lat="44.09266" lon="5.68752">
        <ele>885.9</ele>
        <time>2019-11-10T13:57:24Z</time>
      </trkpt>
      <trkpt lat="44.09261" lon="5.68763">
        <ele>885.8</ele>
        <time>2019-11-10T13:57:31Z</time>
      </trkpt>
      <trkpt lat="44.09257" lon="5.68774">
        <ele>885.2</ele>
        <time>2019-11-10T13:57:38Z</time>
      </trkpt>
      <trkpt lat="44.09251" lon="5.68785">
        <ele>885.4</ele>
        <time>2019-11-10T13:57:44Z</time>
      </trkpt>
      <trkpt lat="44.09245" lon="5.68796">
        <ele>884.9</ele>
        <time>2019-11-10T13:57:53Z</time>
      </trkpt>
      <trkpt lat="44.09244" lon="5.68808">
        <ele>884.8</ele>
        <time>2019-11-10T13:58:10Z</time>
      </trkpt>
      <trkpt lat="44.09236" lon="5.68815">
        <ele>884</ele>
        <time>2019-11-10T13:58:19Z</time>
      </trkpt>
      <trkpt lat="44.09218" lon="5.68812">
        <ele>883.3</ele>
        <time>2019-11-10T13:58:57Z</time>
      </trkpt>
      <trkpt lat="44.09208" lon="5.68811">
        <ele>882.6</ele>
        <time>2019-11-10T13:59:05Z</time>
      </trkpt>
      <trkpt lat="44.09199" lon="5.68813">
        <ele>882.4</ele>
        <time>2019-11-10T13:59:12Z</time>
      </trkpt>
      <trkpt lat="44.09189" lon="5.68815">
        <ele>881.8</ele>
        <time>2019-11-10T13:59:19Z</time>
      </trkpt>
      <trkpt lat="44.09179" lon="5.68817">
        <ele>881.5</ele>
        <time>2019-11-10T13:59:25Z</time>
      </trkpt>
      <trkpt lat="44.09161" lon="5.68822">
        <ele>881.4</ele>
        <time>2019-11-10T13:59:38Z</time>
      </trkpt>
      <trkpt lat="44.0915" lon="5.68824">
        <ele>881.2</ele>
        <time>2019-11-10T13:59:45Z</time>
      </trkpt>
      <trkpt lat="44.09141" lon="5.68827">
        <ele>880.7</ele>
        <time>2019-11-10T13:59:51Z</time>
      </trkpt>
      <trkpt lat="44.09134" lon="5.68835">
        <ele>880.1</ele>
        <time>2019-11-10T13:59:57Z</time>
      </trkpt>
      <trkpt lat="44.09128" lon="5.68845">
        <ele>879.9</ele>
        <time>2019-11-10T14:00:03Z</time>
      </trkpt>
      <trkpt lat="44.09123" lon="5.68856">
        <ele>880.1</ele>
        <time>2019-11-10T14:00:10Z</time>
      </trkpt>
      <trkpt lat="44.09119" lon="5.68867">
        <ele>879.8</ele>
        <time>2019-11-10T14:00:16Z</time>
      </trkpt>
      <trkpt lat="44.09114" lon="5.6888">
        <ele>879.6</ele>
        <time>2019-11-10T14:00:23Z</time>
      </trkpt>
      <trkpt lat="44.0911" lon="5.68892">
        <ele>879.3</ele>
        <time>2019-11-10T14:00:30Z</time>
      </trkpt>
      <trkpt lat="44.09101" lon="5.68915">
        <ele>879.1</ele>
        <time>2019-11-10T14:00:43Z</time>
      </trkpt>
      <trkpt lat="44.09095" lon="5.68927">
        <ele>878.5</ele>
        <time>2019-11-10T14:00:50Z</time>
      </trkpt>
      <trkpt lat="44.09088" lon="5.68936">
        <ele>878.6</ele>
        <time>2019-11-10T14:00:55Z</time>
      </trkpt>
      <trkpt lat="44.09081" lon="5.68946">
        <ele>878.3</ele>
        <time>2019-11-10T14:01:01Z</time>
      </trkpt>
      <trkpt lat="44.09075" lon="5.68956">
        <ele>878.2</ele>
        <time>2019-11-10T14:01:07Z</time>
      </trkpt>
      <trkpt lat="44.09071" lon="5.68967">
        <ele>878.4</ele>
        <time>2019-11-10T14:01:14Z</time>
      </trkpt>
      <trkpt lat="44.09068" lon="5.6898">
        <ele>878.3</ele>
        <time>2019-11-10T14:01:22Z</time>
      </trkpt>
      <trkpt lat="44.09063" lon="5.68991">
        <ele>878.2</ele>
        <time>2019-11-10T14:01:28Z</time>
      </trkpt>
      <trkpt lat="44.09057" lon="5.69002">
        <ele>878</ele>
        <time>2019-11-10T14:01:34Z</time>
      </trkpt>
      <trkpt lat="44.09046" lon="5.69025">
        <ele>878.3</ele>
        <time>2019-11-10T14:01:47Z</time>
      </trkpt>
      <trkpt lat="44.0904" lon="5.69035">
        <ele>878.3</ele>
        <time>2019-11-10T14:01:54Z</time>
      </trkpt>
      <trkpt lat="44.09034" lon="5.69047">
        <ele>878.1</ele>
        <time>2019-11-10T14:02:02Z</time>
      </trkpt>
      <trkpt lat="44.09029" lon="5.69058">
        <ele>877.7</ele>
        <time>2019-11-10T14:02:08Z</time>
      </trkpt>
      <trkpt lat="44.09023" lon="5.69067">
        <ele>878</ele>
        <time>2019-11-10T14:02:15Z</time>
      </trkpt>
      <trkpt lat="44.09017" lon="5.69077">
        <ele>877.9</ele>
        <time>2019-11-10T14:02:21Z</time>
      </trkpt>
      <trkpt lat="44.09023" lon="5.69088">
        <ele>878.2</ele>
        <time>2019-11-10T14:02:33Z</time>
      </trkpt>
      <trkpt lat="44.09031" lon="5.69093">
        <ele>879</ele>
        <time>2019-11-10T14:02:41Z</time>
      </trkpt>
      <trkpt lat="44.09005" lon="5.69087">
        <ele>879.6</ele>
        <time>2019-11-10T14:04:10Z</time>
      </trkpt>
      <trkpt lat="44.08997" lon="5.69094">
        <ele>879.4</ele>
        <time>2019-11-10T14:04:18Z</time>
      </trkpt>
      <trkpt lat="44.08986" lon="5.69097">
        <ele>879.3</ele>
        <time>2019-11-10T14:04:26Z</time>
      </trkpt>
      <trkpt lat="44.08976" lon="5.69099">
        <ele>879.3</ele>
        <time>2019-11-10T14:04:33Z</time>
      </trkpt>
      <trkpt lat="44.08967" lon="5.691">
        <ele>879</ele>
        <time>2019-11-10T14:04:41Z</time>
      </trkpt>
      <trkpt lat="44.08957" lon="5.69102">
        <ele>878.7</ele>
        <time>2019-11-10T14:04:49Z</time>
      </trkpt>
      <trkpt lat="44.08948" lon="5.69106">
        <ele>878.3</ele>
        <time>2019-11-10T14:04:56Z</time>
      </trkpt>
      <trkpt lat="44.08949" lon="5.69131">
        <ele>879.4</ele>
        <time>2019-11-10T14:05:15Z</time>
      </trkpt>
      <trkpt lat="44.08958" lon="5.69137">
        <ele>879.6</ele>
        <time>2019-11-10T14:05:23Z</time>
      </trkpt>
      <trkpt lat="44.08961" lon="5.69149">
        <ele>880</ele>
        <time>2019-11-10T14:05:32Z</time>
      </trkpt>
      <trkpt lat="44.08965" lon="5.69162">
        <ele>879.2</ele>
        <time>2019-11-10T14:05:42Z</time>
      </trkpt>
      <trkpt lat="44.08958" lon="5.69172">
        <ele>878.6</ele>
        <time>2019-11-10T14:05:52Z</time>
      </trkpt>
      <trkpt lat="44.08951" lon="5.69181">
        <ele>877.2</ele>
        <time>2019-11-10T14:06:07Z</time>
      </trkpt>
      <trkpt lat="44.08951" lon="5.69203">
        <ele>870.7</ele>
        <time>2019-11-10T14:06:59Z</time>
      </trkpt>
      <trkpt lat="44.08941" lon="5.69208">
        <ele>869</ele>
        <time>2019-11-10T14:07:11Z</time>
      </trkpt>
      <trkpt lat="44.08924" lon="5.69218">
        <ele>867.2</ele>
        <time>2019-11-10T14:07:27Z</time>
      </trkpt>
      <trkpt lat="44.08916" lon="5.69224">
        <ele>866.2</ele>
        <time>2019-11-10T14:07:35Z</time>
      </trkpt>
      <trkpt lat="44.08909" lon="5.69234">
        <ele>864.8</ele>
        <time>2019-11-10T14:07:44Z</time>
      </trkpt>
      <trkpt lat="44.08901" lon="5.69241">
        <ele>863.1</ele>
        <time>2019-11-10T14:07:54Z</time>
      </trkpt>
      <trkpt lat="44.08893" lon="5.69248">
        <ele>862.3</ele>
        <time>2019-11-10T14:08:01Z</time>
      </trkpt>
      <trkpt lat="44.08885" lon="5.69255">
        <ele>861.5</ele>
        <time>2019-11-10T14:08:08Z</time>
      </trkpt>
      <trkpt lat="44.08877" lon="5.69263">
        <ele>860.6</ele>
        <time>2019-11-10T14:08:23Z</time>
      </trkpt>
      <trkpt lat="44.08862" lon="5.69278">
        <ele>859.3</ele>
        <time>2019-11-10T14:09:07Z</time>
      </trkpt>
      <trkpt lat="44.08854" lon="5.69287">
        <ele>858.7</ele>
        <time>2019-11-10T14:09:14Z</time>
      </trkpt>
      <trkpt lat="44.08845" lon="5.69292">
        <ele>859</ele>
        <time>2019-11-10T14:09:21Z</time>
      </trkpt>
      <trkpt lat="44.08836" lon="5.69299">
        <ele>858.7</ele>
        <time>2019-11-10T14:09:28Z</time>
      </trkpt>
      <trkpt lat="44.08822" lon="5.69316">
        <ele>857.9</ele>
        <time>2019-11-10T14:09:43Z</time>
      </trkpt>
      <trkpt lat="44.08814" lon="5.69323">
        <ele>857.4</ele>
        <time>2019-11-10T14:09:49Z</time>
      </trkpt>
      <trkpt lat="44.08806" lon="5.69332">
        <ele>857.1</ele>
        <time>2019-11-10T14:09:55Z</time>
      </trkpt>
      <trkpt lat="44.08797" lon="5.69339">
        <ele>856.4</ele>
        <time>2019-11-10T14:10:03Z</time>
      </trkpt>
      <trkpt lat="44.08789" lon="5.69345">
        <ele>855.9</ele>
        <time>2019-11-10T14:10:12Z</time>
      </trkpt>
      <trkpt lat="44.08782" lon="5.69354">
        <ele>855.7</ele>
        <time>2019-11-10T14:10:18Z</time>
      </trkpt>
      <trkpt lat="44.08774" lon="5.69362">
        <ele>855.2</ele>
        <time>2019-11-10T14:10:24Z</time>
      </trkpt>
      <trkpt lat="44.08766" lon="5.69369">
        <ele>854.7</ele>
        <time>2019-11-10T14:10:30Z</time>
      </trkpt>
      <trkpt lat="44.08756" lon="5.69393">
        <ele>854.2</ele>
        <time>2019-11-10T14:10:44Z</time>
      </trkpt>
      <trkpt lat="44.08753" lon="5.69407">
        <ele>853.4</ele>
        <time>2019-11-10T14:10:52Z</time>
      </trkpt>
      <trkpt lat="44.0875" lon="5.69419">
        <ele>853.2</ele>
        <time>2019-11-10T14:11:00Z</time>
      </trkpt>
      <trkpt lat="44.08746" lon="5.69432">
        <ele>853</ele>
        <time>2019-11-10T14:11:07Z</time>
      </trkpt>
      <trkpt lat="44.08744" lon="5.69445">
        <ele>852.4</ele>
        <time>2019-11-10T14:11:14Z</time>
      </trkpt>
      <trkpt lat="44.0874" lon="5.69458">
        <ele>852</ele>
        <time>2019-11-10T14:11:22Z</time>
      </trkpt>
      <trkpt lat="44.08736" lon="5.6947">
        <ele>852.7</ele>
        <time>2019-11-10T14:11:29Z</time>
      </trkpt>
      <trkpt lat="44.08732" lon="5.69483">
        <ele>853.3</ele>
        <time>2019-11-10T14:11:36Z</time>
      </trkpt>
      <trkpt lat="44.08721" lon="5.69505">
        <ele>854</ele>
        <time>2019-11-10T14:11:49Z</time>
      </trkpt>
      <trkpt lat="44.08713" lon="5.69514">
        <ele>854.8</ele>
        <time>2019-11-10T14:11:57Z</time>
      </trkpt>
      <trkpt lat="44.08705" lon="5.69521">
        <ele>855.6</ele>
        <time>2019-11-10T14:12:04Z</time>
      </trkpt>
      <trkpt lat="44.08695" lon="5.69526">
        <ele>856.6</ele>
        <time>2019-11-10T14:12:11Z</time>
      </trkpt>
      <trkpt lat="44.08686" lon="5.69528">
        <ele>857.4</ele>
        <time>2019-11-10T14:12:17Z</time>
      </trkpt>
      <trkpt lat="44.08677" lon="5.6953">
        <ele>858.5</ele>
        <time>2019-11-10T14:12:24Z</time>
      </trkpt>
      <trkpt lat="44.08668" lon="5.69532">
        <ele>859.7</ele>
        <time>2019-11-10T14:12:31Z</time>
      </trkpt>
      <trkpt lat="44.08658" lon="5.69532">
        <ele>861.2</ele>
        <time>2019-11-10T14:12:38Z</time>
      </trkpt>
      <trkpt lat="44.0864" lon="5.69533">
        <ele>863.1</ele>
        <time>2019-11-10T14:12:51Z</time>
      </trkpt>
      <trkpt lat="44.08631" lon="5.69536">
        <ele>864</ele>
        <time>2019-11-10T14:12:57Z</time>
      </trkpt>
      <trkpt lat="44.08621" lon="5.69539">
        <ele>865.3</ele>
        <time>2019-11-10T14:13:04Z</time>
      </trkpt>
      <trkpt lat="44.08613" lon="5.69544">
        <ele>866.9</ele>
        <time>2019-11-10T14:13:11Z</time>
      </trkpt>
      <trkpt lat="44.08604" lon="5.6955">
        <ele>867.6</ele>
        <time>2019-11-10T14:13:18Z</time>
      </trkpt>
      <trkpt lat="44.08595" lon="5.69556">
        <ele>869.2</ele>
        <time>2019-11-10T14:13:26Z</time>
      </trkpt>
      <trkpt lat="44.08585" lon="5.69561">
        <ele>870.4</ele>
        <time>2019-11-10T14:13:32Z</time>
      </trkpt>
      <trkpt lat="44.08577" lon="5.6957">
        <ele>871.5</ele>
        <time>2019-11-10T14:13:39Z</time>
      </trkpt>
      <trkpt lat="44.08564" lon="5.6959">
        <ele>873</ele>
        <time>2019-11-10T14:13:51Z</time>
      </trkpt>
      <trkpt lat="44.08559" lon="5.69601">
        <ele>873.7</ele>
        <time>2019-11-10T14:13:57Z</time>
      </trkpt>
      <trkpt lat="44.08556" lon="5.69615">
        <ele>874.4</ele>
        <time>2019-11-10T14:14:04Z</time>
      </trkpt>
      <trkpt lat="44.08553" lon="5.69628">
        <ele>875.4</ele>
        <time>2019-11-10T14:14:10Z</time>
      </trkpt>
      <trkpt lat="44.08548" lon="5.69639">
        <ele>876.1</ele>
        <time>2019-11-10T14:14:16Z</time>
      </trkpt>
      <trkpt lat="44.08544" lon="5.69653">
        <ele>877.2</ele>
        <time>2019-11-10T14:14:22Z</time>
      </trkpt>
      <trkpt lat="44.08544" lon="5.69667">
        <ele>878.1</ele>
        <time>2019-11-10T14:14:30Z</time>
      </trkpt>
      <trkpt lat="44.08541" lon="5.6968">
        <ele>879.3</ele>
        <time>2019-11-10T14:14:37Z</time>
      </trkpt>
      <trkpt lat="44.08537" lon="5.69694">
        <ele>879.9</ele>
        <time>2019-11-10T14:14:43Z</time>
      </trkpt>
      <trkpt lat="44.08529" lon="5.69717">
        <ele>881.6</ele>
        <time>2019-11-10T14:14:56Z</time>
      </trkpt>
      <trkpt lat="44.08526" lon="5.69729">
        <ele>882.4</ele>
        <time>2019-11-10T14:15:02Z</time>
      </trkpt>
      <trkpt lat="44.08525" lon="5.69743">
        <ele>883.3</ele>
        <time>2019-11-10T14:15:09Z</time>
      </trkpt>
      <trkpt lat="44.08526" lon="5.69757">
        <ele>884</ele>
        <time>2019-11-10T14:15:18Z</time>
      </trkpt>
      <trkpt lat="44.08522" lon="5.6977">
        <ele>885.4</ele>
        <time>2019-11-10T14:16:32Z</time>
      </trkpt>
      <trkpt lat="44.08552" lon="5.69761">
        <ele>887.4</ele>
        <time>2019-11-10T14:19:06Z</time>
      </trkpt>
      <trkpt lat="44.08561" lon="5.69764">
        <ele>888</ele>
        <time>2019-11-10T14:19:14Z</time>
      </trkpt>
      <trkpt lat="44.08569" lon="5.6977">
        <ele>889.1</ele>
        <time>2019-11-10T14:19:23Z</time>
      </trkpt>
      <trkpt lat="44.08578" lon="5.69775">
        <ele>890</ele>
        <time>2019-11-10T14:19:30Z</time>
      </trkpt>
      <trkpt lat="44.08586" lon="5.69781">
        <ele>890.8</ele>
        <time>2019-11-10T14:19:36Z</time>
      </trkpt>
      <trkpt lat="44.08594" lon="5.69788">
        <ele>891.6</ele>
        <time>2019-11-10T14:19:42Z</time>
      </trkpt>
      <trkpt lat="44.08602" lon="5.69796">
        <ele>892.2</ele>
        <time>2019-11-10T14:19:49Z</time>
      </trkpt>
      <trkpt lat="44.08608" lon="5.69807">
        <ele>893.3</ele>
        <time>2019-11-10T14:19:56Z</time>
      </trkpt>
      <trkpt lat="44.08618" lon="5.6983">
        <ele>894.5</ele>
        <time>2019-11-10T14:20:10Z</time>
      </trkpt>
      <trkpt lat="44.08619" lon="5.69843">
        <ele>895.2</ele>
        <time>2019-11-10T14:20:17Z</time>
      </trkpt>
      <trkpt lat="44.08622" lon="5.69856">
        <ele>895.7</ele>
        <time>2019-11-10T14:20:24Z</time>
      </trkpt>
      <trkpt lat="44.08628" lon="5.69867">
        <ele>896.4</ele>
        <time>2019-11-10T14:20:31Z</time>
      </trkpt>
      <trkpt lat="44.08632" lon="5.69878">
        <ele>897.3</ele>
        <time>2019-11-10T14:20:38Z</time>
      </trkpt>
      <trkpt lat="44.08638" lon="5.69889">
        <ele>898.1</ele>
        <time>2019-11-10T14:20:45Z</time>
      </trkpt>
      <trkpt lat="44.08645" lon="5.69899">
        <ele>898.7</ele>
        <time>2019-11-10T14:20:52Z</time>
      </trkpt>
      <trkpt lat="44.08652" lon="5.69909">
        <ele>899.6</ele>
        <time>2019-11-10T14:20:59Z</time>
      </trkpt>
      <trkpt lat="44.08666" lon="5.69927">
        <ele>901.2</ele>
        <time>2019-11-10T14:21:14Z</time>
      </trkpt>
      <trkpt lat="44.08675" lon="5.69937">
        <ele>901.8</ele>
        <time>2019-11-10T14:21:20Z</time>
      </trkpt>
      <trkpt lat="44.08682" lon="5.69945">
        <ele>902.1</ele>
        <time>2019-11-10T14:21:24Z</time>
      </trkpt>
      <trkpt lat="44.08691" lon="5.69953">
        <ele>902.9</ele>
        <time>2019-11-10T14:21:28Z</time>
      </trkpt>
      <trkpt lat="44.087" lon="5.6996">
        <ele>903.2</ele>
        <time>2019-11-10T14:21:34Z</time>
      </trkpt>
      <trkpt lat="44.08708" lon="5.69967">
        <ele>903.7</ele>
        <time>2019-11-10T14:21:41Z</time>
      </trkpt>
      <trkpt lat="44.08715" lon="5.69977">
        <ele>904</ele>
        <time>2019-11-10T14:21:48Z</time>
      </trkpt>
      <trkpt lat="44.08722" lon="5.69986">
        <ele>904.6</ele>
        <time>2019-11-10T14:21:55Z</time>
      </trkpt>
      <trkpt lat="44.08729" lon="5.69996">
        <ele>905.4</ele>
        <time>2019-11-10T14:22:04Z</time>
      </trkpt>
      <trkpt lat="44.08731" lon="5.70023">
        <ele>904.9</ele>
        <time>2019-11-10T14:22:20Z</time>
      </trkpt>
      <trkpt lat="44.0873" lon="5.70035">
        <ele>905.1</ele>
        <time>2019-11-10T14:22:26Z</time>
      </trkpt>
      <trkpt lat="44.0873" lon="5.70049">
        <ele>905.2</ele>
        <time>2019-11-10T14:22:33Z</time>
      </trkpt>
      <trkpt lat="44.08729" lon="5.70063">
        <ele>905.6</ele>
        <time>2019-11-10T14:22:40Z</time>
      </trkpt>
      <trkpt lat="44.08727" lon="5.70077">
        <ele>905.5</ele>
        <time>2019-11-10T14:22:47Z</time>
      </trkpt>
      <trkpt lat="44.08725" lon="5.70089">
        <ele>905.9</ele>
        <time>2019-11-10T14:22:53Z</time>
      </trkpt>
      <trkpt lat="44.08724" lon="5.70103">
        <ele>906.6</ele>
        <time>2019-11-10T14:23:00Z</time>
      </trkpt>
      <trkpt lat="44.08728" lon="5.70116">
        <ele>907.4</ele>
        <time>2019-11-10T14:23:08Z</time>
      </trkpt>
      <trkpt lat="44.08744" lon="5.7013">
        <ele>909.2</ele>
        <time>2019-11-10T14:23:22Z</time>
      </trkpt>
      <trkpt lat="44.08749" lon="5.70118">
        <ele>909.8</ele>
        <time>2019-11-10T14:23:57Z</time>
      </trkpt>
      <trkpt lat="44.08755" lon="5.70128">
        <ele>911.4</ele>
        <time>2019-11-10T14:26:00Z</time>
      </trkpt>
      <trkpt lat="44.08757" lon="5.70167">
        <ele>912.9</ele>
        <time>2019-11-10T14:32:36Z</time>
      </trkpt>
      <trkpt lat="44.08758" lon="5.70181">
        <ele>913.9</ele>
        <time>2019-11-10T14:32:44Z</time>
      </trkpt>
      <trkpt lat="44.08757" lon="5.70194">
        <ele>914.2</ele>
        <time>2019-11-10T14:32:51Z</time>
      </trkpt>
      <trkpt lat="44.08756" lon="5.70207">
        <ele>914.6</ele>
        <time>2019-11-10T14:32:57Z</time>
      </trkpt>
      <trkpt lat="44.08757" lon="5.70221">
        <ele>915.2</ele>
        <time>2019-11-10T14:33:04Z</time>
      </trkpt>
      <trkpt lat="44.08755" lon="5.70235">
        <ele>915.3</ele>
        <time>2019-11-10T14:33:11Z</time>
      </trkpt>
      <trkpt lat="44.08754" lon="5.70248">
        <ele>915.1</ele>
        <time>2019-11-10T14:33:18Z</time>
      </trkpt>
      <trkpt lat="44.08756" lon="5.7026">
        <ele>914.5</ele>
        <time>2019-11-10T14:33:26Z</time>
      </trkpt>
      <trkpt lat="44.08755" lon="5.70286">
        <ele>913</ele>
        <time>2019-11-10T14:33:40Z</time>
      </trkpt>
      <trkpt lat="44.08755" lon="5.70299">
        <ele>912.3</ele>
        <time>2019-11-10T14:33:47Z</time>
      </trkpt>
      <trkpt lat="44.08754" lon="5.70313">
        <ele>910.8</ele>
        <time>2019-11-10T14:33:54Z</time>
      </trkpt>
      <trkpt lat="44.0875" lon="5.70325">
        <ele>909.4</ele>
        <time>2019-11-10T14:34:01Z</time>
      </trkpt>
      <trkpt lat="44.08745" lon="5.70336">
        <ele>908.1</ele>
        <time>2019-11-10T14:34:08Z</time>
      </trkpt>
      <trkpt lat="44.08738" lon="5.70347">
        <ele>906.7</ele>
        <time>2019-11-10T14:34:15Z</time>
      </trkpt>
      <trkpt lat="44.08732" lon="5.70357">
        <ele>904.4</ele>
        <time>2019-11-10T14:34:23Z</time>
      </trkpt>
      <trkpt lat="44.08724" lon="5.70365">
        <ele>902.8</ele>
        <time>2019-11-10T14:34:30Z</time>
      </trkpt>
      <trkpt lat="44.08705" lon="5.70376">
        <ele>900.1</ele>
        <time>2019-11-10T14:34:45Z</time>
      </trkpt>
      <trkpt lat="44.08697" lon="5.70382">
        <ele>898.3</ele>
        <time>2019-11-10T14:34:52Z</time>
      </trkpt>
      <trkpt lat="44.0869" lon="5.70391">
        <ele>897</ele>
        <time>2019-11-10T14:34:59Z</time>
      </trkpt>
      <trkpt lat="44.08685" lon="5.70403">
        <ele>894.8</ele>
        <time>2019-11-10T14:35:06Z</time>
      </trkpt>
      <trkpt lat="44.0868" lon="5.70414">
        <ele>893.7</ele>
        <time>2019-11-10T14:35:14Z</time>
      </trkpt>
      <trkpt lat="44.08671" lon="5.7042">
        <ele>892.7</ele>
        <time>2019-11-10T14:35:22Z</time>
      </trkpt>
      <trkpt lat="44.08661" lon="5.70423">
        <ele>892.1</ele>
        <time>2019-11-10T14:35:29Z</time>
      </trkpt>
      <trkpt lat="44.08652" lon="5.70429">
        <ele>891.3</ele>
        <time>2019-11-10T14:35:35Z</time>
      </trkpt>
      <trkpt lat="44.08634" lon="5.70439">
        <ele>889.7</ele>
        <time>2019-11-10T14:35:49Z</time>
      </trkpt>
      <trkpt lat="44.08624" lon="5.70442">
        <ele>888.3</ele>
        <time>2019-11-10T14:35:56Z</time>
      </trkpt>
      <trkpt lat="44.08617" lon="5.70451">
        <ele>886.8</ele>
        <time>2019-11-10T14:36:04Z</time>
      </trkpt>
      <trkpt lat="44.08613" lon="5.70463">
        <ele>886</ele>
        <time>2019-11-10T14:36:11Z</time>
      </trkpt>
      <trkpt lat="44.08612" lon="5.70476">
        <ele>884.4</ele>
        <time>2019-11-10T14:36:18Z</time>
      </trkpt>
      <trkpt lat="44.08611" lon="5.7049">
        <ele>883.1</ele>
        <time>2019-11-10T14:36:31Z</time>
      </trkpt>
      <trkpt lat="44.08613" lon="5.70503">
        <ele>882</ele>
        <time>2019-11-10T14:36:38Z</time>
      </trkpt>
      <trkpt lat="44.08613" lon="5.70529">
        <ele>880.4</ele>
        <time>2019-11-10T14:36:52Z</time>
      </trkpt>
      <trkpt lat="44.08609" lon="5.70542">
        <ele>880</ele>
        <time>2019-11-10T14:36:58Z</time>
      </trkpt>
      <trkpt lat="44.08604" lon="5.70554">
        <ele>879.6</ele>
        <time>2019-11-10T14:37:04Z</time>
      </trkpt>
      <trkpt lat="44.08598" lon="5.70564">
        <ele>879.2</ele>
        <time>2019-11-10T14:37:10Z</time>
      </trkpt>
      <trkpt lat="44.0859" lon="5.70573">
        <ele>879.5</ele>
        <time>2019-11-10T14:37:16Z</time>
      </trkpt>
      <trkpt lat="44.08584" lon="5.70582">
        <ele>880</ele>
        <time>2019-11-10T14:37:22Z</time>
      </trkpt>
      <trkpt lat="44.08578" lon="5.70594">
        <ele>880.9</ele>
        <time>2019-11-10T14:37:31Z</time>
      </trkpt>
      <trkpt lat="44.0857" lon="5.70602">
        <ele>882.2</ele>
        <time>2019-11-10T14:37:40Z</time>
      </trkpt>
      <trkpt lat="44.08556" lon="5.70622">
        <ele>884.3</ele>
        <time>2019-11-10T14:37:54Z</time>
      </trkpt>
      <trkpt lat="44.08554" lon="5.70634">
        <ele>886</ele>
        <time>2019-11-10T14:38:05Z</time>
      </trkpt>
      <trkpt lat="44.08546" lon="5.70642">
        <ele>886.3</ele>
        <time>2019-11-10T14:39:25Z</time>
      </trkpt>
      <trkpt lat="44.08531" lon="5.70658">
        <ele>887.6</ele>
        <time>2019-11-10T14:39:37Z</time>
      </trkpt>
      <trkpt lat="44.08523" lon="5.70665">
        <ele>888.2</ele>
        <time>2019-11-10T14:39:44Z</time>
      </trkpt>
      <trkpt lat="44.08514" lon="5.70671">
        <ele>889.3</ele>
        <time>2019-11-10T14:39:52Z</time>
      </trkpt>
      <trkpt lat="44.08505" lon="5.70678">
        <ele>890.6</ele>
        <time>2019-11-10T14:40:00Z</time>
      </trkpt>
      <trkpt lat="44.08497" lon="5.70685">
        <ele>891.8</ele>
        <time>2019-11-10T14:40:08Z</time>
      </trkpt>
      <trkpt lat="44.08488" lon="5.7069">
        <ele>893.4</ele>
        <time>2019-11-10T14:40:16Z</time>
      </trkpt>
      <trkpt lat="44.0848" lon="5.70695">
        <ele>894.7</ele>
        <time>2019-11-10T14:40:24Z</time>
      </trkpt>
      <trkpt lat="44.08472" lon="5.70703">
        <ele>896.1</ele>
        <time>2019-11-10T14:40:32Z</time>
      </trkpt>
      <trkpt lat="44.08457" lon="5.70718">
        <ele>898.6</ele>
        <time>2019-11-10T14:40:48Z</time>
      </trkpt>
      <trkpt lat="44.0845" lon="5.70727">
        <ele>899.4</ele>
        <time>2019-11-10T14:40:55Z</time>
      </trkpt>
      <trkpt lat="44.08444" lon="5.70738">
        <ele>900.5</ele>
        <time>2019-11-10T14:41:02Z</time>
      </trkpt>
      <trkpt lat="44.08435" lon="5.70738">
        <ele>902.2</ele>
        <time>2019-11-10T14:41:10Z</time>
      </trkpt>
      <trkpt lat="44.08427" lon="5.70732">
        <ele>903.5</ele>
        <time>2019-11-10T14:41:19Z</time>
      </trkpt>
      <trkpt lat="44.08418" lon="5.70728">
        <ele>904.9</ele>
        <time>2019-11-10T14:41:36Z</time>
      </trkpt>
      <trkpt lat="44.08432" lon="5.70762">
        <ele>906.8</ele>
        <time>2019-11-10T14:43:37Z</time>
      </trkpt>
      <trkpt lat="44.08435" lon="5.70775">
        <ele>908.2</ele>
        <time>2019-11-10T14:43:45Z</time>
      </trkpt>
      <trkpt lat="44.08435" lon="5.70788">
        <ele>909.7</ele>
        <time>2019-11-10T14:43:52Z</time>
      </trkpt>
      <trkpt lat="44.08432" lon="5.70801">
        <ele>910.9</ele>
        <time>2019-11-10T14:43:57Z</time>
      </trkpt>
      <trkpt lat="44.08433" lon="5.70814">
        <ele>912.8</ele>
        <time>2019-11-10T14:44:04Z</time>
      </trkpt>
      <trkpt lat="44.08433" lon="5.70828">
        <ele>914.8</ele>
        <time>2019-11-10T14:44:12Z</time>
      </trkpt>
      <trkpt lat="44.08434" lon="5.70841">
        <ele>916.1</ele>
        <time>2019-11-10T14:44:19Z</time>
      </trkpt>
      <trkpt lat="44.08432" lon="5.70855">
        <ele>917.8</ele>
        <time>2019-11-10T14:44:26Z</time>
      </trkpt>
      <trkpt lat="44.08424" lon="5.70881">
        <ele>921.5</ele>
        <time>2019-11-10T14:44:40Z</time>
      </trkpt>
      <trkpt lat="44.08423" lon="5.70895">
        <ele>923.5</ele>
        <time>2019-11-10T14:44:48Z</time>
      </trkpt>
      <trkpt lat="44.08421" lon="5.70908">
        <ele>925.6</ele>
        <time>2019-11-10T14:44:55Z</time>
      </trkpt>
      <trkpt lat="44.08418" lon="5.70922">
        <ele>927.7</ele>
        <time>2019-11-10T14:45:02Z</time>
      </trkpt>
      <trkpt lat="44.08416" lon="5.70934">
        <ele>929.6</ele>
        <time>2019-11-10T14:45:09Z</time>
      </trkpt>
      <trkpt lat="44.08413" lon="5.70947">
        <ele>931.3</ele>
        <time>2019-11-10T14:45:16Z</time>
      </trkpt>
      <trkpt lat="44.08409" lon="5.7096">
        <ele>933.1</ele>
        <time>2019-11-10T14:45:23Z</time>
      </trkpt>
      <trkpt lat="44.08407" lon="5.70972">
        <ele>935.1</ele>
        <time>2019-11-10T14:45:30Z</time>
      </trkpt>
      <trkpt lat="44.08403" lon="5.70999">
        <ele>938.6</ele>
        <time>2019-11-10T14:45:45Z</time>
      </trkpt>
      <trkpt lat="44.08401" lon="5.71012">
        <ele>940.2</ele>
        <time>2019-11-10T14:45:53Z</time>
      </trkpt>
      <trkpt lat="44.08401" lon="5.71025">
        <ele>941.8</ele>
        <time>2019-11-10T14:46:01Z</time>
      </trkpt>
      <trkpt lat="44.08399" lon="5.71038">
        <ele>942.8</ele>
        <time>2019-11-10T14:46:08Z</time>
      </trkpt>
      <trkpt lat="44.08396" lon="5.71051">
        <ele>944</ele>
        <time>2019-11-10T14:46:16Z</time>
      </trkpt>
      <trkpt lat="44.08391" lon="5.71065">
        <ele>945.2</ele>
        <time>2019-11-10T14:46:23Z</time>
      </trkpt>
      <trkpt lat="44.08388" lon="5.71077">
        <ele>946.1</ele>
        <time>2019-11-10T14:46:30Z</time>
      </trkpt>
      <trkpt lat="44.08384" lon="5.7109">
        <ele>947.1</ele>
        <time>2019-11-10T14:46:37Z</time>
      </trkpt>
      <trkpt lat="44.08379" lon="5.71115">
        <ele>948.9</ele>
        <time>2019-11-10T14:46:52Z</time>
      </trkpt>
      <trkpt lat="44.08377" lon="5.71128">
        <ele>949.6</ele>
        <time>2019-11-10T14:46:59Z</time>
      </trkpt>
      <trkpt lat="44.08372" lon="5.71141">
        <ele>950.6</ele>
        <time>2019-11-10T14:47:06Z</time>
      </trkpt>
      <trkpt lat="44.08369" lon="5.71154">
        <ele>951.6</ele>
        <time>2019-11-10T14:47:13Z</time>
      </trkpt>
      <trkpt lat="44.08368" lon="5.71167">
        <ele>952.4</ele>
        <time>2019-11-10T14:47:20Z</time>
      </trkpt>
      <trkpt lat="44.0836" lon="5.71175">
        <ele>952.9</ele>
        <time>2019-11-10T14:47:26Z</time>
      </trkpt>
      <trkpt lat="44.08365" lon="5.71186">
        <ele>953.4</ele>
        <time>2019-11-10T14:47:31Z</time>
      </trkpt>
      <trkpt lat="44.08367" lon="5.71199">
        <ele>953.9</ele>
        <time>2019-11-10T14:47:38Z</time>
      </trkpt>
      <trkpt lat="44.08369" lon="5.71225">
        <ele>955.2</ele>
        <time>2019-11-10T14:47:51Z</time>
      </trkpt>
      <trkpt lat="44.0837" lon="5.71239">
        <ele>955.5</ele>
        <time>2019-11-10T14:47:58Z</time>
      </trkpt>
      <trkpt lat="44.08369" lon="5.71253">
        <ele>956.1</ele>
        <time>2019-11-10T14:48:05Z</time>
      </trkpt>
      <trkpt lat="44.08366" lon="5.71266">
        <ele>957.1</ele>
        <time>2019-11-10T14:48:12Z</time>
      </trkpt>
      <trkpt lat="44.08365" lon="5.71279">
        <ele>957.6</ele>
        <time>2019-11-10T14:48:19Z</time>
      </trkpt>
      <trkpt lat="44.08363" lon="5.71293">
        <ele>958.6</ele>
        <time>2019-11-10T14:48:26Z</time>
      </trkpt>
      <trkpt lat="44.08363" lon="5.71306">
        <ele>959.7</ele>
        <time>2019-11-10T14:48:33Z</time>
      </trkpt>
      <trkpt lat="44.08367" lon="5.71319">
        <ele>960.7</ele>
        <time>2019-11-10T14:48:41Z</time>
      </trkpt>
      <trkpt lat="44.08369" lon="5.71346">
        <ele>962.7</ele>
        <time>2019-11-10T14:48:56Z</time>
      </trkpt>
      <trkpt lat="44.08367" lon="5.71359">
        <ele>963</ele>
        <time>2019-11-10T14:49:03Z</time>
      </trkpt>
      <trkpt lat="44.08363" lon="5.71372">
        <ele>963.6</ele>
        <time>2019-11-10T14:49:10Z</time>
      </trkpt>
      <trkpt lat="44.08362" lon="5.71386">
        <ele>964.6</ele>
        <time>2019-11-10T14:49:18Z</time>
      </trkpt>
      <trkpt lat="44.08362" lon="5.71399">
        <ele>965.5</ele>
        <time>2019-11-10T14:49:26Z</time>
      </trkpt>
      <trkpt lat="44.08362" lon="5.71413">
        <ele>966.2</ele>
        <time>2019-11-10T14:49:33Z</time>
      </trkpt>
      <trkpt lat="44.08361" lon="5.71427">
        <ele>967</ele>
        <time>2019-11-10T14:49:41Z</time>
      </trkpt>
      <trkpt lat="44.08363" lon="5.7144">
        <ele>968</ele>
        <time>2019-11-10T14:49:48Z</time>
      </trkpt>
      <trkpt lat="44.08375" lon="5.71461">
        <ele>969.2</ele>
        <time>2019-11-10T14:50:02Z</time>
      </trkpt>
      <trkpt lat="44.08381" lon="5.71471">
        <ele>970.1</ele>
        <time>2019-11-10T14:50:09Z</time>
      </trkpt>
      <trkpt lat="44.08387" lon="5.71482">
        <ele>970.9</ele>
        <time>2019-11-10T14:50:16Z</time>
      </trkpt>
      <trkpt lat="44.0839" lon="5.71494">
        <ele>971.6</ele>
        <time>2019-11-10T14:50:23Z</time>
      </trkpt>
      <trkpt lat="44.08388" lon="5.71507">
        <ele>972.8</ele>
        <time>2019-11-10T14:50:29Z</time>
      </trkpt>
      <trkpt lat="44.08385" lon="5.71519">
        <ele>973.7</ele>
        <time>2019-11-10T14:50:35Z</time>
      </trkpt>
      <trkpt lat="44.08381" lon="5.71531">
        <ele>974.8</ele>
        <time>2019-11-10T14:50:42Z</time>
      </trkpt>
      <trkpt lat="44.08378" lon="5.71543">
        <ele>976.5</ele>
        <time>2019-11-10T14:50:49Z</time>
      </trkpt>
      <trkpt lat="44.08361" lon="5.71561">
        <ele>977.3</ele>
        <time>2019-11-10T14:51:06Z</time>
      </trkpt>
      <trkpt lat="44.08356" lon="5.71572">
        <ele>976.9</ele>
        <time>2019-11-10T14:51:14Z</time>
      </trkpt>
      <trkpt lat="44.0835" lon="5.71581">
        <ele>976.2</ele>
        <time>2019-11-10T14:51:22Z</time>
      </trkpt>
      <trkpt lat="44.08346" lon="5.71594">
        <ele>975.5</ele>
        <time>2019-11-10T14:51:29Z</time>
      </trkpt>
      <trkpt lat="44.08341" lon="5.71606">
        <ele>974.7</ele>
        <time>2019-11-10T14:51:36Z</time>
      </trkpt>
      <trkpt lat="44.08335" lon="5.71616">
        <ele>973.4</ele>
        <time>2019-11-10T14:51:43Z</time>
      </trkpt>
      <trkpt lat="44.08329" lon="5.71627">
        <ele>973.6</ele>
        <time>2019-11-10T14:51:49Z</time>
      </trkpt>
      <trkpt lat="44.08323" lon="5.71638">
        <ele>973.1</ele>
        <time>2019-11-10T14:51:57Z</time>
      </trkpt>
      <trkpt lat="44.08309" lon="5.71656">
        <ele>972.1</ele>
        <time>2019-11-10T14:52:10Z</time>
      </trkpt>
      <trkpt lat="44.08301" lon="5.71665">
        <ele>971.7</ele>
        <time>2019-11-10T14:52:17Z</time>
      </trkpt>
      <trkpt lat="44.08294" lon="5.71673">
        <ele>970.6</ele>
        <time>2019-11-10T14:52:23Z</time>
      </trkpt>
      <trkpt lat="44.08287" lon="5.71683">
        <ele>969.8</ele>
        <time>2019-11-10T14:52:30Z</time>
      </trkpt>
      <trkpt lat="44.08279" lon="5.7169">
        <ele>968.8</ele>
        <time>2019-11-10T14:52:36Z</time>
      </trkpt>
      <trkpt lat="44.08272" lon="5.717">
        <ele>967.9</ele>
        <time>2019-11-10T14:52:42Z</time>
      </trkpt>
      <trkpt lat="44.08267" lon="5.71711">
        <ele>966.6</ele>
        <time>2019-11-10T14:52:50Z</time>
      </trkpt>
      <trkpt lat="44.08261" lon="5.71722">
        <ele>965.7</ele>
        <time>2019-11-10T14:52:56Z</time>
      </trkpt>
      <trkpt lat="44.08256" lon="5.71732">
        <ele>964.9</ele>
        <time>2019-11-10T14:53:03Z</time>
      </trkpt>
      <trkpt lat="44.08249" lon="5.71757">
        <ele>963</ele>
        <time>2019-11-10T14:53:16Z</time>
      </trkpt>
      <trkpt lat="44.08242" lon="5.71766">
        <ele>962.4</ele>
        <time>2019-11-10T14:53:23Z</time>
      </trkpt>
      <trkpt lat="44.08235" lon="5.71775">
        <ele>961.9</ele>
        <time>2019-11-10T14:53:29Z</time>
      </trkpt>
      <trkpt lat="44.08229" lon="5.71787">
        <ele>960.9</ele>
        <time>2019-11-10T14:53:36Z</time>
      </trkpt>
      <trkpt lat="44.08225" lon="5.718">
        <ele>960.6</ele>
        <time>2019-11-10T14:53:43Z</time>
      </trkpt>
      <trkpt lat="44.0822" lon="5.7181">
        <ele>960</ele>
        <time>2019-11-10T14:53:49Z</time>
      </trkpt>
      <trkpt lat="44.08213" lon="5.71821">
        <ele>959.4</ele>
        <time>2019-11-10T14:53:56Z</time>
      </trkpt>
      <trkpt lat="44.08208" lon="5.71833">
        <ele>958.3</ele>
        <time>2019-11-10T14:54:04Z</time>
      </trkpt>
      <trkpt lat="44.08194" lon="5.71852">
        <ele>955.8</ele>
        <time>2019-11-10T14:54:18Z</time>
      </trkpt>
      <trkpt lat="44.08187" lon="5.71861">
        <ele>954.2</ele>
        <time>2019-11-10T14:54:27Z</time>
      </trkpt>
      <trkpt lat="44.08182" lon="5.71871">
        <ele>952.3</ele>
        <time>2019-11-10T14:54:36Z</time>
      </trkpt>
      <trkpt lat="44.08175" lon="5.7188">
        <ele>950.7</ele>
        <time>2019-11-10T14:54:44Z</time>
      </trkpt>
      <trkpt lat="44.08171" lon="5.71893">
        <ele>949.4</ele>
        <time>2019-11-10T14:54:52Z</time>
      </trkpt>
      <trkpt lat="44.0817" lon="5.71905">
        <ele>947.9</ele>
        <time>2019-11-10T14:54:59Z</time>
      </trkpt>
      <trkpt lat="44.0817" lon="5.7192">
        <ele>946.8</ele>
        <time>2019-11-10T14:55:08Z</time>
      </trkpt>
      <trkpt lat="44.08157" lon="5.71935">
        <ele>945</ele>
        <time>2019-11-10T14:55:22Z</time>
      </trkpt>
      <trkpt lat="44.08148" lon="5.7194">
        <ele>944</ele>
        <time>2019-11-10T14:55:30Z</time>
      </trkpt>
      <trkpt lat="44.08139" lon="5.71945">
        <ele>942.1</ele>
        <time>2019-11-10T14:55:39Z</time>
      </trkpt>
      <trkpt lat="44.0813" lon="5.71951">
        <ele>941.1</ele>
        <time>2019-11-10T14:55:49Z</time>
      </trkpt>
      <trkpt lat="44.08121" lon="5.71957">
        <ele>940.1</ele>
        <time>2019-11-10T14:55:57Z</time>
      </trkpt>
      <trkpt lat="44.08113" lon="5.71965">
        <ele>939</ele>
        <time>2019-11-10T14:56:06Z</time>
      </trkpt>
      <trkpt lat="44.08104" lon="5.71972">
        <ele>937.9</ele>
        <time>2019-11-10T14:56:14Z</time>
      </trkpt>
      <trkpt lat="44.08087" lon="5.71982">
        <ele>936.1</ele>
        <time>2019-11-10T14:56:31Z</time>
      </trkpt>
      <trkpt lat="44.08077" lon="5.71985">
        <ele>935</ele>
        <time>2019-11-10T14:56:39Z</time>
      </trkpt>
      <trkpt lat="44.08068" lon="5.71987">
        <ele>935.1</ele>
        <time>2019-11-10T14:56:46Z</time>
      </trkpt>
      <trkpt lat="44.08059" lon="5.71991">
        <ele>934.2</ele>
        <time>2019-11-10T14:56:53Z</time>
      </trkpt>
      <trkpt lat="44.08051" lon="5.71998">
        <ele>933.2</ele>
        <time>2019-11-10T14:57:01Z</time>
      </trkpt>
      <trkpt lat="44.08042" lon="5.72004">
        <ele>932.2</ele>
        <time>2019-11-10T14:57:09Z</time>
      </trkpt>
      <trkpt lat="44.08034" lon="5.72011">
        <ele>931.7</ele>
        <time>2019-11-10T14:57:16Z</time>
      </trkpt>
      <trkpt lat="44.08019" lon="5.72026">
        <ele>929.8</ele>
        <time>2019-11-10T14:57:30Z</time>
      </trkpt>
      <trkpt lat="44.08012" lon="5.72033">
        <ele>929</ele>
        <time>2019-11-10T14:57:38Z</time>
      </trkpt>
      <trkpt lat="44.08002" lon="5.72037">
        <ele>928.2</ele>
        <time>2019-11-10T14:57:46Z</time>
      </trkpt>
      <trkpt lat="44.07994" lon="5.72043">
        <ele>927</ele>
        <time>2019-11-10T14:57:54Z</time>
      </trkpt>
      <trkpt lat="44.07985" lon="5.72046">
        <ele>926.6</ele>
        <time>2019-11-10T14:58:00Z</time>
      </trkpt>
      <trkpt lat="44.07975" lon="5.72049">
        <ele>926.1</ele>
        <time>2019-11-10T14:58:07Z</time>
      </trkpt>
      <trkpt lat="44.07965" lon="5.72054">
        <ele>925</ele>
        <time>2019-11-10T14:58:14Z</time>
      </trkpt>
      <trkpt lat="44.07956" lon="5.72058">
        <ele>924.8</ele>
        <time>2019-11-10T14:58:21Z</time>
      </trkpt>
      <trkpt lat="44.07937" lon="5.72066">
        <ele>922.9</ele>
        <time>2019-11-10T14:58:35Z</time>
      </trkpt>
      <trkpt lat="44.07929" lon="5.72072">
        <ele>922.1</ele>
        <time>2019-11-10T14:58:42Z</time>
      </trkpt>
      <trkpt lat="44.0792" lon="5.72077">
        <ele>921</ele>
        <time>2019-11-10T14:58:48Z</time>
      </trkpt>
      <trkpt lat="44.07912" lon="5.72082">
        <ele>920</ele>
        <time>2019-11-10T14:58:55Z</time>
      </trkpt>
      <trkpt lat="44.07903" lon="5.7209">
        <ele>918.2</ele>
        <time>2019-11-10T14:59:03Z</time>
      </trkpt>
      <trkpt lat="44.07895" lon="5.72097">
        <ele>916.6</ele>
        <time>2019-11-10T14:59:11Z</time>
      </trkpt>
      <trkpt lat="44.07885" lon="5.72101">
        <ele>915.6</ele>
        <time>2019-11-10T14:59:19Z</time>
      </trkpt>
      <trkpt lat="44.07876" lon="5.72104">
        <ele>915</ele>
        <time>2019-11-10T14:59:26Z</time>
      </trkpt>
      <trkpt lat="44.07857" lon="5.72111">
        <ele>912.9</ele>
        <time>2019-11-10T14:59:43Z</time>
      </trkpt>
      <trkpt lat="44.07847" lon="5.72111">
        <ele>912</ele>
        <time>2019-11-10T14:59:53Z</time>
      </trkpt>
      <trkpt lat="44.07838" lon="5.72112">
        <ele>911.3</ele>
        <time>2019-11-10T14:59:59Z</time>
      </trkpt>
      <trkpt lat="44.07828" lon="5.72115">
        <ele>911</ele>
        <time>2019-11-10T15:00:05Z</time>
      </trkpt>
      <trkpt lat="44.07819" lon="5.72119">
        <ele>910.3</ele>
        <time>2019-11-10T15:00:12Z</time>
      </trkpt>
      <trkpt lat="44.0781" lon="5.72126">
        <ele>910.1</ele>
        <time>2019-11-10T15:00:20Z</time>
      </trkpt>
      <trkpt lat="44.07802" lon="5.72131">
        <ele>909.3</ele>
        <time>2019-11-10T15:00:26Z</time>
      </trkpt>
      <trkpt lat="44.07792" lon="5.72136">
        <ele>908.6</ele>
        <time>2019-11-10T15:00:33Z</time>
      </trkpt>
      <trkpt lat="44.07775" lon="5.72145">
        <ele>907.8</ele>
        <time>2019-11-10T15:00:47Z</time>
      </trkpt>
      <trkpt lat="44.07765" lon="5.72147">
        <ele>907</ele>
        <time>2019-11-10T15:00:55Z</time>
      </trkpt>
      <trkpt lat="44.07756" lon="5.72149">
        <ele>906.6</ele>
        <time>2019-11-10T15:01:02Z</time>
      </trkpt>
      <trkpt lat="44.07747" lon="5.72152">
        <ele>905.7</ele>
        <time>2019-11-10T15:01:09Z</time>
      </trkpt>
      <trkpt lat="44.07737" lon="5.72155">
        <ele>905.1</ele>
        <time>2019-11-10T15:01:16Z</time>
      </trkpt>
      <trkpt lat="44.07727" lon="5.72156">
        <ele>904.3</ele>
        <time>2019-11-10T15:01:23Z</time>
      </trkpt>
      <trkpt lat="44.07717" lon="5.72157">
        <ele>904.1</ele>
        <time>2019-11-10T15:01:29Z</time>
      </trkpt>
      <trkpt lat="44.07708" lon="5.72157">
        <ele>904</ele>
        <time>2019-11-10T15:01:36Z</time>
      </trkpt>
      <trkpt lat="44.07688" lon="5.72156">
        <ele>903.3</ele>
        <time>2019-11-10T15:01:49Z</time>
      </trkpt>
      <trkpt lat="44.07679" lon="5.72156">
        <ele>902.6</ele>
        <time>2019-11-10T15:01:54Z</time>
      </trkpt>
      <trkpt lat="44.0767" lon="5.72155">
        <ele>902.8</ele>
        <time>2019-11-10T15:02:00Z</time>
      </trkpt>
      <trkpt lat="44.0766" lon="5.72153">
        <ele>902.1</ele>
        <time>2019-11-10T15:02:07Z</time>
      </trkpt>
      <trkpt lat="44.07651" lon="5.7215">
        <ele>901.5</ele>
        <time>2019-11-10T15:02:14Z</time>
      </trkpt>
      <trkpt lat="44.07642" lon="5.72149">
        <ele>900.9</ele>
        <time>2019-11-10T15:02:21Z</time>
      </trkpt>
      <trkpt lat="44.07632" lon="5.72147">
        <ele>899.7</ele>
        <time>2019-11-10T15:02:28Z</time>
      </trkpt>
      <trkpt lat="44.07623" lon="5.72146">
        <ele>899.3</ele>
        <time>2019-11-10T15:02:33Z</time>
      </trkpt>
      <trkpt lat="44.07613" lon="5.72143">
        <ele>898</ele>
        <time>2019-11-10T15:02:40Z</time>
      </trkpt>
      <trkpt lat="44.07595" lon="5.72138">
        <ele>896.6</ele>
        <time>2019-11-10T15:02:54Z</time>
      </trkpt>
      <trkpt lat="44.07586" lon="5.72135">
        <ele>895.8</ele>
        <time>2019-11-10T15:03:01Z</time>
      </trkpt>
      <trkpt lat="44.07576" lon="5.72133">
        <ele>895.1</ele>
        <time>2019-11-10T15:03:09Z</time>
      </trkpt>
      <trkpt lat="44.07566" lon="5.72131">
        <ele>894.6</ele>
        <time>2019-11-10T15:03:16Z</time>
      </trkpt>
      <trkpt lat="44.07557" lon="5.72128">
        <ele>893.9</ele>
        <time>2019-11-10T15:03:23Z</time>
      </trkpt>
      <trkpt lat="44.07547" lon="5.72126">
        <ele>892.8</ele>
        <time>2019-11-10T15:03:30Z</time>
      </trkpt>
      <trkpt lat="44.07537" lon="5.72122">
        <ele>892.4</ele>
        <time>2019-11-10T15:03:36Z</time>
      </trkpt>
      <trkpt lat="44.07528" lon="5.72118">
        <ele>891.8</ele>
        <time>2019-11-10T15:03:44Z</time>
      </trkpt>
      <trkpt lat="44.0751" lon="5.72108">
        <ele>889.9</ele>
        <time>2019-11-10T15:04:00Z</time>
      </trkpt>
      <trkpt lat="44.07501" lon="5.72105">
        <ele>889.4</ele>
        <time>2019-11-10T15:04:07Z</time>
      </trkpt>
      <trkpt lat="44.07491" lon="5.72103">
        <ele>888.7</ele>
        <time>2019-11-10T15:04:15Z</time>
      </trkpt>
      <trkpt lat="44.07481" lon="5.72099">
        <ele>887.9</ele>
        <time>2019-11-10T15:04:22Z</time>
      </trkpt>
      <trkpt lat="44.07471" lon="5.72097">
        <ele>887.5</ele>
        <time>2019-11-10T15:04:29Z</time>
      </trkpt>
      <trkpt lat="44.07462" lon="5.72094">
        <ele>886.7</ele>
        <time>2019-11-10T15:04:35Z</time>
      </trkpt>
      <trkpt lat="44.07452" lon="5.72091">
        <ele>886.1</ele>
        <time>2019-11-10T15:04:42Z</time>
      </trkpt>
      <trkpt lat="44.07442" lon="5.72091">
        <ele>885.7</ele>
        <time>2019-11-10T15:04:50Z</time>
      </trkpt>
      <trkpt lat="44.07423" lon="5.72087">
        <ele>885.4</ele>
        <time>2019-11-10T15:05:03Z</time>
      </trkpt>
      <trkpt lat="44.07414" lon="5.72084">
        <ele>885</ele>
        <time>2019-11-10T15:05:10Z</time>
      </trkpt>
      <trkpt lat="44.07404" lon="5.72083">
        <ele>884.4</ele>
        <time>2019-11-10T15:05:16Z</time>
      </trkpt>
      <trkpt lat="44.07394" lon="5.72083">
        <ele>883.9</ele>
        <time>2019-11-10T15:05:23Z</time>
      </trkpt>
      <trkpt lat="44.07385" lon="5.72083">
        <ele>883.3</ele>
        <time>2019-11-10T15:05:30Z</time>
      </trkpt>
      <trkpt lat="44.07375" lon="5.72082">
        <ele>882.7</ele>
        <time>2019-11-10T15:05:36Z</time>
      </trkpt>
      <trkpt lat="44.07365" lon="5.72083">
        <ele>881.3</ele>
        <time>2019-11-10T15:05:43Z</time>
      </trkpt>
      <trkpt lat="44.07356" lon="5.72082">
        <ele>881.1</ele>
        <time>2019-11-10T15:05:49Z</time>
      </trkpt>
      <trkpt lat="44.07346" lon="5.72081">
        <ele>880.5</ele>
        <time>2019-11-10T15:05:56Z</time>
      </trkpt>
      <trkpt lat="44.07327" lon="5.72075">
        <ele>879.7</ele>
        <time>2019-11-10T15:06:10Z</time>
      </trkpt>
      <trkpt lat="44.07318" lon="5.72072">
        <ele>879.5</ele>
        <time>2019-11-10T15:06:17Z</time>
      </trkpt>
      <trkpt lat="44.07308" lon="5.72069">
        <ele>879.2</ele>
        <time>2019-11-10T15:06:24Z</time>
      </trkpt>
      <trkpt lat="44.07299" lon="5.72065">
        <ele>879.5</ele>
        <time>2019-11-10T15:06:31Z</time>
      </trkpt>
      <trkpt lat="44.07289" lon="5.72064">
        <ele>878.8</ele>
        <time>2019-11-10T15:06:38Z</time>
      </trkpt>
      <trkpt lat="44.07279" lon="5.72061">
        <ele>878</ele>
        <time>2019-11-10T15:06:45Z</time>
      </trkpt>
      <trkpt lat="44.07269" lon="5.72059">
        <ele>877.2</ele>
        <time>2019-11-10T15:06:52Z</time>
      </trkpt>
      <trkpt lat="44.0726" lon="5.72057">
        <ele>877</ele>
        <time>2019-11-10T15:06:58Z</time>
      </trkpt>
      <trkpt lat="44.07241" lon="5.7205">
        <ele>875</ele>
        <time>2019-11-10T15:07:13Z</time>
      </trkpt>
      <trkpt lat="44.07231" lon="5.72048">
        <ele>874.7</ele>
        <time>2019-11-10T15:07:19Z</time>
      </trkpt>
      <trkpt lat="44.07221" lon="5.72045">
        <ele>874.1</ele>
        <time>2019-11-10T15:07:26Z</time>
      </trkpt>
      <trkpt lat="44.07212" lon="5.72042">
        <ele>874.1</ele>
        <time>2019-11-10T15:07:34Z</time>
      </trkpt>
      <trkpt lat="44.07202" lon="5.72038">
        <ele>873.8</ele>
        <time>2019-11-10T15:07:42Z</time>
      </trkpt>
      <trkpt lat="44.07193" lon="5.72035">
        <ele>873.4</ele>
        <time>2019-11-10T15:07:47Z</time>
      </trkpt>
      <trkpt lat="44.07183" lon="5.72033">
        <ele>872.6</ele>
        <time>2019-11-10T15:07:53Z</time>
      </trkpt>
      <trkpt lat="44.07175" lon="5.72029">
        <ele>872.1</ele>
        <time>2019-11-10T15:08:00Z</time>
      </trkpt>
      <trkpt lat="44.07155" lon="5.72027">
        <ele>870.5</ele>
        <time>2019-11-10T15:08:13Z</time>
      </trkpt>
      <trkpt lat="44.07146" lon="5.72021">
        <ele>869.4</ele>
        <time>2019-11-10T15:08:18Z</time>
      </trkpt>
      <trkpt lat="44.07136" lon="5.72016">
        <ele>868.4</ele>
        <time>2019-11-10T15:08:25Z</time>
      </trkpt>
      <trkpt lat="44.07127" lon="5.72009">
        <ele>867.1</ele>
        <time>2019-11-10T15:08:34Z</time>
      </trkpt>
      <trkpt lat="44.07118" lon="5.72005">
        <ele>866.5</ele>
        <time>2019-11-10T15:08:41Z</time>
      </trkpt>
      <trkpt lat="44.07109" lon="5.72003">
        <ele>865.3</ele>
        <time>2019-11-10T15:08:46Z</time>
      </trkpt>
      <trkpt lat="44.071" lon="5.72001">
        <ele>864.6</ele>
        <time>2019-11-10T15:08:52Z</time>
      </trkpt>
      <trkpt lat="44.07091" lon="5.71998">
        <ele>863.5</ele>
        <time>2019-11-10T15:08:59Z</time>
      </trkpt>
      <trkpt lat="44.07081" lon="5.71996">
        <ele>862.3</ele>
        <time>2019-11-10T15:09:06Z</time>
      </trkpt>
      <trkpt lat="44.07063" lon="5.71986">
        <ele>860.3</ele>
        <time>2019-11-10T15:09:18Z</time>
      </trkpt>
      <trkpt lat="44.07054" lon="5.71982">
        <ele>858.9</ele>
        <time>2019-11-10T15:09:24Z</time>
      </trkpt>
      <trkpt lat="44.07045" lon="5.71977">
        <ele>857.9</ele>
        <time>2019-11-10T15:09:32Z</time>
      </trkpt>
      <trkpt lat="44.07037" lon="5.71973">
        <ele>856.7</ele>
        <time>2019-11-10T15:09:41Z</time>
      </trkpt>
      <trkpt lat="44.07032" lon="5.71962">
        <ele>855.9</ele>
        <time>2019-11-10T15:09:50Z</time>
      </trkpt>
      <trkpt lat="44.07027" lon="5.7195">
        <ele>854.3</ele>
        <time>2019-11-10T15:09:57Z</time>
      </trkpt>
      <trkpt lat="44.07021" lon="5.71938">
        <ele>852.7</ele>
        <time>2019-11-10T15:10:04Z</time>
      </trkpt>
      <trkpt lat="44.07012" lon="5.71934">
        <ele>851.5</ele>
        <time>2019-11-10T15:10:13Z</time>
      </trkpt>
      <trkpt lat="44.06993" lon="5.71928">
        <ele>849.8</ele>
        <time>2019-11-10T15:10:26Z</time>
      </trkpt>
      <trkpt lat="44.06984" lon="5.71926">
        <ele>849.3</ele>
        <time>2019-11-10T15:10:33Z</time>
      </trkpt>
      <trkpt lat="44.06975" lon="5.71923">
        <ele>848.1</ele>
        <time>2019-11-10T15:10:39Z</time>
      </trkpt>
      <trkpt lat="44.06965" lon="5.71921">
        <ele>847.5</ele>
        <time>2019-11-10T15:10:46Z</time>
      </trkpt>
      <trkpt lat="44.06956" lon="5.71918">
        <ele>847.2</ele>
        <time>2019-11-10T15:10:52Z</time>
      </trkpt>
      <trkpt lat="44.06946" lon="5.71914">
        <ele>846.3</ele>
        <time>2019-11-10T15:10:59Z</time>
      </trkpt>
      <trkpt lat="44.06936" lon="5.71913">
        <ele>845.3</ele>
        <time>2019-11-10T15:11:06Z</time>
      </trkpt>
      <trkpt lat="44.06926" lon="5.71909">
        <ele>844.3</ele>
        <time>2019-11-10T15:11:13Z</time>
      </trkpt>
      <trkpt lat="44.06917" lon="5.71903">
        <ele>843.3</ele>
        <time>2019-11-10T15:11:20Z</time>
      </trkpt>
      <trkpt lat="44.069" lon="5.71892">
        <ele>841.9</ele>
        <time>2019-11-10T15:11:32Z</time>
      </trkpt>
      <trkpt lat="44.06891" lon="5.71891">
        <ele>841.4</ele>
        <time>2019-11-10T15:11:38Z</time>
      </trkpt>
      <trkpt lat="44.0688" lon="5.71891">
        <ele>841</ele>
        <time>2019-11-10T15:11:45Z</time>
      </trkpt>
      <trkpt lat="44.0687" lon="5.71889">
        <ele>841</ele>
        <time>2019-11-10T15:11:51Z</time>
      </trkpt>
      <trkpt lat="44.0686" lon="5.71889">
        <ele>840.5</ele>
        <time>2019-11-10T15:11:57Z</time>
      </trkpt>
      <trkpt lat="44.0685" lon="5.71889">
        <ele>840.3</ele>
        <time>2019-11-10T15:12:03Z</time>
      </trkpt>
      <trkpt lat="44.06841" lon="5.71887">
        <ele>840.4</ele>
        <time>2019-11-10T15:12:09Z</time>
      </trkpt>
      <trkpt lat="44.06832" lon="5.71886">
        <ele>840.5</ele>
        <time>2019-11-10T15:12:15Z</time>
      </trkpt>
      <trkpt lat="44.06822" lon="5.71883">
        <ele>839.8</ele>
        <time>2019-11-10T15:12:22Z</time>
      </trkpt>
      <trkpt lat="44.06803" lon="5.71877">
        <ele>839.3</ele>
        <time>2019-11-10T15:12:35Z</time>
      </trkpt>
      <trkpt lat="44.06794" lon="5.71872">
        <ele>838.9</ele>
        <time>2019-11-10T15:12:42Z</time>
      </trkpt>
      <trkpt lat="44.06785" lon="5.71867">
        <ele>838.9</ele>
        <time>2019-11-10T15:12:47Z</time>
      </trkpt>
      <trkpt lat="44.06776" lon="5.71863">
        <ele>838.2</ele>
        <time>2019-11-10T15:12:53Z</time>
      </trkpt>
      <trkpt lat="44.06767" lon="5.71859">
        <ele>837.8</ele>
        <time>2019-11-10T15:12:59Z</time>
      </trkpt>
      <trkpt lat="44.06758" lon="5.71856">
        <ele>837.3</ele>
        <time>2019-11-10T15:13:05Z</time>
      </trkpt>
      <trkpt lat="44.06748" lon="5.71854">
        <ele>836.6</ele>
        <time>2019-11-10T15:13:13Z</time>
      </trkpt>
      <trkpt lat="44.06737" lon="5.71851">
        <ele>836.3</ele>
        <time>2019-11-10T15:13:20Z</time>
      </trkpt>
      <trkpt lat="44.06728" lon="5.71845">
        <ele>836</ele>
        <time>2019-11-10T15:13:27Z</time>
      </trkpt>
      <trkpt lat="44.06711" lon="5.71833">
        <ele>835.4</ele>
        <time>2019-11-10T15:13:40Z</time>
      </trkpt>
      <trkpt lat="44.06703" lon="5.71826">
        <ele>835.2</ele>
        <time>2019-11-10T15:13:46Z</time>
      </trkpt>
      <trkpt lat="44.06695" lon="5.71818">
        <ele>834.9</ele>
        <time>2019-11-10T15:13:52Z</time>
      </trkpt>
      <trkpt lat="44.06687" lon="5.7181">
        <ele>834.9</ele>
        <time>2019-11-10T15:13:59Z</time>
      </trkpt>
      <trkpt lat="44.06679" lon="5.71804">
        <ele>835</ele>
        <time>2019-11-10T15:14:06Z</time>
      </trkpt>
      <trkpt lat="44.06671" lon="5.71796">
        <ele>834.9</ele>
        <time>2019-11-10T15:14:13Z</time>
      </trkpt>
      <trkpt lat="44.06663" lon="5.71789">
        <ele>834.7</ele>
        <time>2019-11-10T15:14:19Z</time>
      </trkpt>
      <trkpt lat="44.06654" lon="5.7178">
        <ele>834.6</ele>
        <time>2019-11-10T15:14:26Z</time>
      </trkpt>
      <trkpt lat="44.06647" lon="5.71771">
        <ele>834.8</ele>
        <time>2019-11-10T15:14:33Z</time>
      </trkpt>
      <trkpt lat="44.06633" lon="5.71753">
        <ele>835</ele>
        <time>2019-11-10T15:14:46Z</time>
      </trkpt>
      <trkpt lat="44.06626" lon="5.71744">
        <ele>834.8</ele>
        <time>2019-11-10T15:14:53Z</time>
      </trkpt>
      <trkpt lat="44.06619" lon="5.71735">
        <ele>834.7</ele>
        <time>2019-11-10T15:15:00Z</time>
      </trkpt>
      <trkpt lat="44.0661" lon="5.71727">
        <ele>834.2</ele>
        <time>2019-11-10T15:15:06Z</time>
      </trkpt>
      <trkpt lat="44.066" lon="5.71721">
        <ele>833.5</ele>
        <time>2019-11-10T15:15:12Z</time>
      </trkpt>
      <trkpt lat="44.06591" lon="5.71717">
        <ele>833.2</ele>
        <time>2019-11-10T15:15:18Z</time>
      </trkpt>
      <trkpt lat="44.06581" lon="5.71714">
        <ele>832.8</ele>
        <time>2019-11-10T15:15:24Z</time>
      </trkpt>
      <trkpt lat="44.06572" lon="5.71711">
        <ele>832</ele>
        <time>2019-11-10T15:15:30Z</time>
      </trkpt>
      <trkpt lat="44.06564" lon="5.71707">
        <ele>831.2</ele>
        <time>2019-11-10T15:15:37Z</time>
      </trkpt>
      <trkpt lat="44.06546" lon="5.71702">
        <ele>829.6</ele>
        <time>2019-11-10T15:15:50Z</time>
      </trkpt>
      <trkpt lat="44.06536" lon="5.717">
        <ele>828.8</ele>
        <time>2019-11-10T15:15:56Z</time>
      </trkpt>
      <trkpt lat="44.06527" lon="5.71698">
        <ele>828.3</ele>
        <time>2019-11-10T15:16:02Z</time>
      </trkpt>
      <trkpt lat="44.06518" lon="5.71696">
        <ele>827.7</ele>
        <time>2019-11-10T15:16:09Z</time>
      </trkpt>
      <trkpt lat="44.06507" lon="5.71694">
        <ele>827.4</ele>
        <time>2019-11-10T15:16:17Z</time>
      </trkpt>
      <trkpt lat="44.06499" lon="5.71689">
        <ele>826.6</ele>
        <time>2019-11-10T15:16:24Z</time>
      </trkpt>
      <trkpt lat="44.06489" lon="5.71684">
        <ele>826.1</ele>
        <time>2019-11-10T15:16:31Z</time>
      </trkpt>
      <trkpt lat="44.0648" lon="5.7168">
        <ele>825.3</ele>
        <time>2019-11-10T15:16:38Z</time>
      </trkpt>
      <trkpt lat="44.06461" lon="5.71672">
        <ele>823.6</ele>
        <time>2019-11-10T15:16:52Z</time>
      </trkpt>
      <trkpt lat="44.06451" lon="5.71669">
        <ele>823.1</ele>
        <time>2019-11-10T15:16:59Z</time>
      </trkpt>
      <trkpt lat="44.06443" lon="5.71664">
        <ele>822.7</ele>
        <time>2019-11-10T15:17:05Z</time>
      </trkpt>
      <trkpt lat="44.06434" lon="5.71659">
        <ele>822</ele>
        <time>2019-11-10T15:17:12Z</time>
      </trkpt>
      <trkpt lat="44.06425" lon="5.71655">
        <ele>821.2</ele>
        <time>2019-11-10T15:17:18Z</time>
      </trkpt>
      <trkpt lat="44.06415" lon="5.71652">
        <ele>820.1</ele>
        <time>2019-11-10T15:17:25Z</time>
      </trkpt>
      <trkpt lat="44.06406" lon="5.71649">
        <ele>819.8</ele>
        <time>2019-11-10T15:17:32Z</time>
      </trkpt>
      <trkpt lat="44.06397" lon="5.71645">
        <ele>819.9</ele>
        <time>2019-11-10T15:17:38Z</time>
      </trkpt>
      <trkpt lat="44.0639" lon="5.71636">
        <ele>818.7</ele>
        <time>2019-11-10T15:17:44Z</time>
      </trkpt>
      <trkpt lat="44.06385" lon="5.71621">
        <ele>817.8</ele>
        <time>2019-11-10T15:23:15Z</time>
      </trkpt>
    </trkseg>
  </trk>
</gpx>